<?xml version="1.0" encoding="UTF-8" standalone="no" ?>
<gpx xmlns="http://www.topografix.com/GPX/1/1" xmlns:xsi="http://www.w3.org/2001/XMLSchema-instance" xsi:schemaLocation="http://www.topografix.com/GPX/1/1 http://www.topografix.com/GPX/1/1/gpx.xsd" version="1.1" creator="VisuGPX - https://www.visugpx.com">
  <metadata>
    <name>Sortie Lot 2014 Jour 2</name>
    <desc><![CDATA[Sortie Sauliac]]></desc>
  </metadata>
  <trk>
    <name><![CDATA[cabreret sauliac jour 2]]></name>
    <trkseg>
      <trkpt lat="44.52042" lon="1.67892">
        <ele>141</ele>
        <time>2014-07-20T07:02:33Z</time>
      </trkpt>
      <trkpt lat="44.52042" lon="1.67892">
        <ele>141</ele>
        <time>2014-07-20T07:02:34Z</time>
      </trkpt>
      <trkpt lat="44.52043" lon="1.67893">
        <ele>145</ele>
        <time>2014-07-20T07:02:38Z</time>
      </trkpt>
      <trkpt lat="44.52043" lon="1.67893">
        <ele>145</ele>
        <time>2014-07-20T07:02:39Z</time>
      </trkpt>
      <trkpt lat="44.52041" lon="1.67891">
        <ele>145</ele>
        <time>2014-07-20T07:03:05Z</time>
      </trkpt>
      <trkpt lat="44.52035" lon="1.67885">
        <ele>144</ele>
        <time>2014-07-20T07:03:31Z</time>
      </trkpt>
      <trkpt lat="44.52029" lon="1.67888">
        <ele>145</ele>
        <time>2014-07-20T07:04:12Z</time>
      </trkpt>
      <trkpt lat="44.52025" lon="1.67892">
        <ele>145</ele>
        <time>2014-07-20T07:04:53Z</time>
      </trkpt>
      <trkpt lat="44.52028" lon="1.67886">
        <ele>145</ele>
        <time>2014-07-20T07:05:33Z</time>
      </trkpt>
      <trkpt lat="44.52027" lon="1.67891">
        <ele>146</ele>
        <time>2014-07-20T07:06:06Z</time>
      </trkpt>
      <trkpt lat="44.52038" lon="1.67886">
        <ele>147</ele>
        <time>2014-07-20T07:06:19Z</time>
      </trkpt>
      <trkpt lat="44.52037" lon="1.67885">
        <ele>146</ele>
        <time>2014-07-20T07:06:36Z</time>
      </trkpt>
      <trkpt lat="44.52028" lon="1.67885">
        <ele>146</ele>
        <time>2014-07-20T07:07:24Z</time>
      </trkpt>
      <trkpt lat="44.52025" lon="1.67892">
        <ele>147</ele>
        <time>2014-07-20T07:08:13Z</time>
      </trkpt>
      <trkpt lat="44.52039" lon="1.67879">
        <ele>147</ele>
        <time>2014-07-20T07:08:58Z</time>
      </trkpt>
      <trkpt lat="44.52032" lon="1.67884">
        <ele>147</ele>
        <time>2014-07-20T07:09:38Z</time>
      </trkpt>
      <trkpt lat="44.5203" lon="1.67887">
        <ele>147</ele>
        <time>2014-07-20T07:10:15Z</time>
      </trkpt>
      <trkpt lat="44.52026" lon="1.67884">
        <ele>147</ele>
        <time>2014-07-20T07:10:53Z</time>
      </trkpt>
      <trkpt lat="44.52027" lon="1.67887">
        <ele>148</ele>
        <time>2014-07-20T07:11:39Z</time>
      </trkpt>
      <trkpt lat="44.5203" lon="1.67886">
        <ele>148</ele>
        <time>2014-07-20T07:12:22Z</time>
      </trkpt>
      <trkpt lat="44.52038" lon="1.67889">
        <ele>149</ele>
        <time>2014-07-20T07:13:00Z</time>
      </trkpt>
      <trkpt lat="44.52035" lon="1.67889">
        <ele>149</ele>
        <time>2014-07-20T07:13:39Z</time>
      </trkpt>
      <trkpt lat="44.52026" lon="1.67887">
        <ele>150</ele>
        <time>2014-07-20T07:14:08Z</time>
      </trkpt>
      <trkpt lat="44.52024" lon="1.67884">
        <ele>150</ele>
        <time>2014-07-20T07:14:51Z</time>
      </trkpt>
      <trkpt lat="44.52035" lon="1.67892">
        <ele>150</ele>
        <time>2014-07-20T07:15:31Z</time>
      </trkpt>
      <trkpt lat="44.52031" lon="1.6789">
        <ele>150</ele>
        <time>2014-07-20T07:16:07Z</time>
      </trkpt>
      <trkpt lat="44.52034" lon="1.6789">
        <ele>151</ele>
        <time>2014-07-20T07:16:36Z</time>
      </trkpt>
      <trkpt lat="44.52036" lon="1.67892">
        <ele>152</ele>
        <time>2014-07-20T07:17:14Z</time>
      </trkpt>
      <trkpt lat="44.5204" lon="1.67887">
        <ele>152</ele>
        <time>2014-07-20T07:17:47Z</time>
      </trkpt>
      <trkpt lat="44.52037" lon="1.67889">
        <ele>153</ele>
        <time>2014-07-20T07:18:33Z</time>
      </trkpt>
      <trkpt lat="44.5203" lon="1.67881">
        <ele>153</ele>
        <time>2014-07-20T07:19:06Z</time>
      </trkpt>
      <trkpt lat="44.5204" lon="1.67889">
        <ele>153</ele>
        <time>2014-07-20T07:19:43Z</time>
      </trkpt>
      <trkpt lat="44.52041" lon="1.67884">
        <ele>153</ele>
        <time>2014-07-20T07:20:17Z</time>
      </trkpt>
      <trkpt lat="44.52031" lon="1.67881">
        <ele>153</ele>
        <time>2014-07-20T07:20:47Z</time>
      </trkpt>
      <trkpt lat="44.52033" lon="1.67873">
        <ele>154</ele>
        <time>2014-07-20T07:21:19Z</time>
      </trkpt>
      <trkpt lat="44.52038" lon="1.67885">
        <ele>154</ele>
        <time>2014-07-20T07:21:33Z</time>
      </trkpt>
      <trkpt lat="44.52036" lon="1.6789">
        <ele>154</ele>
        <time>2014-07-20T07:21:53Z</time>
      </trkpt>
      <trkpt lat="44.52033" lon="1.67886">
        <ele>154</ele>
        <time>2014-07-20T07:22:17Z</time>
      </trkpt>
      <trkpt lat="44.52031" lon="1.67887">
        <ele>154</ele>
        <time>2014-07-20T07:22:39Z</time>
      </trkpt>
      <trkpt lat="44.52038" lon="1.67881">
        <ele>153</ele>
        <time>2014-07-20T07:22:59Z</time>
      </trkpt>
      <trkpt lat="44.52039" lon="1.67876">
        <ele>153</ele>
        <time>2014-07-20T07:23:33Z</time>
      </trkpt>
      <trkpt lat="44.52037" lon="1.67885">
        <ele>154</ele>
        <time>2014-07-20T07:23:46Z</time>
      </trkpt>
      <trkpt lat="44.52035" lon="1.67891">
        <ele>154</ele>
        <time>2014-07-20T07:23:51Z</time>
      </trkpt>
      <trkpt lat="44.52031" lon="1.67893">
        <ele>154</ele>
        <time>2014-07-20T07:23:54Z</time>
      </trkpt>
      <trkpt lat="44.52018" lon="1.6791">
        <ele>154</ele>
        <time>2014-07-20T07:24:07Z</time>
      </trkpt>
      <trkpt lat="44.52007" lon="1.67931">
        <ele>157</ele>
        <time>2014-07-20T07:24:21Z</time>
      </trkpt>
      <trkpt lat="44.52001" lon="1.67953">
        <ele>156</ele>
        <time>2014-07-20T07:24:30Z</time>
      </trkpt>
      <trkpt lat="44.51988" lon="1.67995">
        <ele>156</ele>
        <time>2014-07-20T07:24:46Z</time>
      </trkpt>
      <trkpt lat="44.51972" lon="1.68039">
        <ele>155</ele>
        <time>2014-07-20T07:25:01Z</time>
      </trkpt>
      <trkpt lat="44.51943" lon="1.68079">
        <ele>156</ele>
        <time>2014-07-20T07:25:15Z</time>
      </trkpt>
      <trkpt lat="44.51919" lon="1.6812">
        <ele>155</ele>
        <time>2014-07-20T07:25:30Z</time>
      </trkpt>
      <trkpt lat="44.519" lon="1.68152">
        <ele>156</ele>
        <time>2014-07-20T07:25:42Z</time>
      </trkpt>
      <trkpt lat="44.51859" lon="1.682">
        <ele>155</ele>
        <time>2014-07-20T07:25:58Z</time>
      </trkpt>
      <trkpt lat="44.51814" lon="1.68248">
        <ele>156</ele>
        <time>2014-07-20T07:26:15Z</time>
      </trkpt>
      <trkpt lat="44.51764" lon="1.68299">
        <ele>156</ele>
        <time>2014-07-20T07:26:33Z</time>
      </trkpt>
      <trkpt lat="44.51715" lon="1.68342">
        <ele>156</ele>
        <time>2014-07-20T07:26:51Z</time>
      </trkpt>
      <trkpt lat="44.51665" lon="1.68392">
        <ele>156</ele>
        <time>2014-07-20T07:27:09Z</time>
      </trkpt>
      <trkpt lat="44.5163" lon="1.68445">
        <ele>156</ele>
        <time>2014-07-20T07:27:24Z</time>
      </trkpt>
      <trkpt lat="44.51603" lon="1.68511">
        <ele>156</ele>
        <time>2014-07-20T07:27:40Z</time>
      </trkpt>
      <trkpt lat="44.51596" lon="1.68582">
        <ele>156</ele>
        <time>2014-07-20T07:27:54Z</time>
      </trkpt>
      <trkpt lat="44.51596" lon="1.68662">
        <ele>155</ele>
        <time>2014-07-20T07:28:09Z</time>
      </trkpt>
      <trkpt lat="44.51606" lon="1.68723">
        <ele>155</ele>
        <time>2014-07-20T07:28:22Z</time>
      </trkpt>
      <trkpt lat="44.51616" lon="1.68781">
        <ele>155</ele>
        <time>2014-07-20T07:28:36Z</time>
      </trkpt>
      <trkpt lat="44.51633" lon="1.68824">
        <ele>155</ele>
        <time>2014-07-20T07:28:46Z</time>
      </trkpt>
      <trkpt lat="44.5165" lon="1.68864">
        <ele>155</ele>
        <time>2014-07-20T07:28:56Z</time>
      </trkpt>
      <trkpt lat="44.51675" lon="1.68931">
        <ele>155</ele>
        <time>2014-07-20T07:29:10Z</time>
      </trkpt>
      <trkpt lat="44.51693" lon="1.68994">
        <ele>155</ele>
        <time>2014-07-20T07:29:24Z</time>
      </trkpt>
      <trkpt lat="44.51711" lon="1.69063">
        <ele>155</ele>
        <time>2014-07-20T07:29:40Z</time>
      </trkpt>
      <trkpt lat="44.51733" lon="1.69147">
        <ele>155</ele>
        <time>2014-07-20T07:30:00Z</time>
      </trkpt>
      <trkpt lat="44.51755" lon="1.69186">
        <ele>155</ele>
        <time>2014-07-20T07:30:14Z</time>
      </trkpt>
      <trkpt lat="44.51771" lon="1.69198">
        <ele>158</ele>
        <time>2014-07-20T07:30:24Z</time>
      </trkpt>
      <trkpt lat="44.51793" lon="1.69206">
        <ele>161</ele>
        <time>2014-07-20T07:30:37Z</time>
      </trkpt>
      <trkpt lat="44.51815" lon="1.69199">
        <ele>164</ele>
        <time>2014-07-20T07:30:51Z</time>
      </trkpt>
      <trkpt lat="44.51821" lon="1.69195">
        <ele>165</ele>
        <time>2014-07-20T07:30:56Z</time>
      </trkpt>
      <trkpt lat="44.51823" lon="1.69194">
        <ele>165</ele>
        <time>2014-07-20T07:30:57Z</time>
      </trkpt>
      <trkpt lat="44.51841" lon="1.69181">
        <ele>168</ele>
        <time>2014-07-20T07:31:11Z</time>
      </trkpt>
      <trkpt lat="44.51865" lon="1.69167">
        <ele>171</ele>
        <time>2014-07-20T07:31:28Z</time>
      </trkpt>
      <trkpt lat="44.51874" lon="1.69162">
        <ele>172</ele>
        <time>2014-07-20T07:31:35Z</time>
      </trkpt>
      <trkpt lat="44.51876" lon="1.69161">
        <ele>173</ele>
        <time>2014-07-20T07:31:36Z</time>
      </trkpt>
      <trkpt lat="44.51877" lon="1.69161">
        <ele>173</ele>
        <time>2014-07-20T07:31:37Z</time>
      </trkpt>
      <trkpt lat="44.51897" lon="1.69153">
        <ele>175</ele>
        <time>2014-07-20T07:31:51Z</time>
      </trkpt>
      <trkpt lat="44.51916" lon="1.69147">
        <ele>177</ele>
        <time>2014-07-20T07:32:06Z</time>
      </trkpt>
      <trkpt lat="44.51929" lon="1.69143">
        <ele>178</ele>
        <time>2014-07-20T07:32:14Z</time>
      </trkpt>
      <trkpt lat="44.51934" lon="1.69143">
        <ele>179</ele>
        <time>2014-07-20T07:32:19Z</time>
      </trkpt>
      <trkpt lat="44.51939" lon="1.69143">
        <ele>179</ele>
        <time>2014-07-20T07:32:23Z</time>
      </trkpt>
      <trkpt lat="44.5194" lon="1.69143">
        <ele>179</ele>
        <time>2014-07-20T07:32:24Z</time>
      </trkpt>
      <trkpt lat="44.51954" lon="1.69147">
        <ele>181</ele>
        <time>2014-07-20T07:32:37Z</time>
      </trkpt>
      <trkpt lat="44.51966" lon="1.69152">
        <ele>182</ele>
        <time>2014-07-20T07:32:49Z</time>
      </trkpt>
      <trkpt lat="44.51982" lon="1.69153">
        <ele>184</ele>
        <time>2014-07-20T07:33:02Z</time>
      </trkpt>
      <trkpt lat="44.51997" lon="1.69155">
        <ele>186</ele>
        <time>2014-07-20T07:33:15Z</time>
      </trkpt>
      <trkpt lat="44.52003" lon="1.69155">
        <ele>186</ele>
        <time>2014-07-20T07:33:20Z</time>
      </trkpt>
      <trkpt lat="44.52005" lon="1.69154">
        <ele>186</ele>
        <time>2014-07-20T07:33:21Z</time>
      </trkpt>
      <trkpt lat="44.52024" lon="1.69155">
        <ele>188</ele>
        <time>2014-07-20T07:33:35Z</time>
      </trkpt>
      <trkpt lat="44.52026" lon="1.69155">
        <ele>188</ele>
        <time>2014-07-20T07:33:37Z</time>
      </trkpt>
      <trkpt lat="44.52043" lon="1.69161">
        <ele>190</ele>
        <time>2014-07-20T07:33:51Z</time>
      </trkpt>
      <trkpt lat="44.52053" lon="1.69166">
        <ele>192</ele>
        <time>2014-07-20T07:34:00Z</time>
      </trkpt>
      <trkpt lat="44.52054" lon="1.69167">
        <ele>192</ele>
        <time>2014-07-20T07:34:01Z</time>
      </trkpt>
      <trkpt lat="44.52063" lon="1.69172">
        <ele>192</ele>
        <time>2014-07-20T07:34:08Z</time>
      </trkpt>
      <trkpt lat="44.52071" lon="1.69175">
        <ele>193</ele>
        <time>2014-07-20T07:34:14Z</time>
      </trkpt>
      <trkpt lat="44.52077" lon="1.69178">
        <ele>194</ele>
        <time>2014-07-20T07:34:19Z</time>
      </trkpt>
      <trkpt lat="44.52078" lon="1.69178">
        <ele>194</ele>
        <time>2014-07-20T07:34:20Z</time>
      </trkpt>
      <trkpt lat="44.52079" lon="1.69179">
        <ele>193</ele>
        <time>2014-07-20T07:34:21Z</time>
      </trkpt>
      <trkpt lat="44.52089" lon="1.69182">
        <ele>195</ele>
        <time>2014-07-20T07:34:30Z</time>
      </trkpt>
      <trkpt lat="44.5209" lon="1.69183">
        <ele>195</ele>
        <time>2014-07-20T07:34:31Z</time>
      </trkpt>
      <trkpt lat="44.52091" lon="1.69183">
        <ele>195</ele>
        <time>2014-07-20T07:34:32Z</time>
      </trkpt>
      <trkpt lat="44.5211" lon="1.69188">
        <ele>197</ele>
        <time>2014-07-20T07:34:47Z</time>
      </trkpt>
      <trkpt lat="44.52129" lon="1.69194">
        <ele>198</ele>
        <time>2014-07-20T07:35:00Z</time>
      </trkpt>
      <trkpt lat="44.52136" lon="1.69198">
        <ele>199</ele>
        <time>2014-07-20T07:35:05Z</time>
      </trkpt>
      <trkpt lat="44.52146" lon="1.69207">
        <ele>200</ele>
        <time>2014-07-20T07:35:14Z</time>
      </trkpt>
      <trkpt lat="44.52162" lon="1.69229">
        <ele>202</ele>
        <time>2014-07-20T07:35:29Z</time>
      </trkpt>
      <trkpt lat="44.52174" lon="1.69254">
        <ele>204</ele>
        <time>2014-07-20T07:35:44Z</time>
      </trkpt>
      <trkpt lat="44.52176" lon="1.69257">
        <ele>204</ele>
        <time>2014-07-20T07:35:46Z</time>
      </trkpt>
      <trkpt lat="44.52177" lon="1.69258">
        <ele>204</ele>
        <time>2014-07-20T07:35:47Z</time>
      </trkpt>
      <trkpt lat="44.52187" lon="1.69274">
        <ele>205</ele>
        <time>2014-07-20T07:35:59Z</time>
      </trkpt>
      <trkpt lat="44.52198" lon="1.693">
        <ele>207</ele>
        <time>2014-07-20T07:36:14Z</time>
      </trkpt>
      <trkpt lat="44.52198" lon="1.69302">
        <ele>207</ele>
        <time>2014-07-20T07:36:15Z</time>
      </trkpt>
      <trkpt lat="44.52199" lon="1.69304">
        <ele>207</ele>
        <time>2014-07-20T07:36:16Z</time>
      </trkpt>
      <trkpt lat="44.52199" lon="1.69305">
        <ele>207</ele>
        <time>2014-07-20T07:36:17Z</time>
      </trkpt>
      <trkpt lat="44.522" lon="1.69307">
        <ele>208</ele>
        <time>2014-07-20T07:36:18Z</time>
      </trkpt>
      <trkpt lat="44.522" lon="1.69309">
        <ele>207</ele>
        <time>2014-07-20T07:36:19Z</time>
      </trkpt>
      <trkpt lat="44.52201" lon="1.6931">
        <ele>207</ele>
        <time>2014-07-20T07:36:20Z</time>
      </trkpt>
      <trkpt lat="44.52201" lon="1.69312">
        <ele>208</ele>
        <time>2014-07-20T07:36:21Z</time>
      </trkpt>
      <trkpt lat="44.52202" lon="1.69313">
        <ele>208</ele>
        <time>2014-07-20T07:36:22Z</time>
      </trkpt>
      <trkpt lat="44.52203" lon="1.69315">
        <ele>208</ele>
        <time>2014-07-20T07:36:23Z</time>
      </trkpt>
      <trkpt lat="44.52215" lon="1.69345">
        <ele>210</ele>
        <time>2014-07-20T07:36:40Z</time>
      </trkpt>
      <trkpt lat="44.52217" lon="1.69348">
        <ele>210</ele>
        <time>2014-07-20T07:36:42Z</time>
      </trkpt>
      <trkpt lat="44.52218" lon="1.69349">
        <ele>211</ele>
        <time>2014-07-20T07:36:43Z</time>
      </trkpt>
      <trkpt lat="44.52219" lon="1.6935">
        <ele>211</ele>
        <time>2014-07-20T07:36:44Z</time>
      </trkpt>
      <trkpt lat="44.5222" lon="1.69352">
        <ele>211</ele>
        <time>2014-07-20T07:36:45Z</time>
      </trkpt>
      <trkpt lat="44.52221" lon="1.69354">
        <ele>211</ele>
        <time>2014-07-20T07:36:46Z</time>
      </trkpt>
      <trkpt lat="44.52238" lon="1.69371">
        <ele>212</ele>
        <time>2014-07-20T07:37:00Z</time>
      </trkpt>
      <trkpt lat="44.52259" lon="1.69383">
        <ele>214</ele>
        <time>2014-07-20T07:37:13Z</time>
      </trkpt>
      <trkpt lat="44.52276" lon="1.69386">
        <ele>214</ele>
        <time>2014-07-20T07:37:25Z</time>
      </trkpt>
      <trkpt lat="44.52304" lon="1.69381">
        <ele>215</ele>
        <time>2014-07-20T07:37:39Z</time>
      </trkpt>
      <trkpt lat="44.52329" lon="1.69383">
        <ele>216</ele>
        <time>2014-07-20T07:37:51Z</time>
      </trkpt>
      <trkpt lat="44.52352" lon="1.69396">
        <ele>217</ele>
        <time>2014-07-20T07:38:04Z</time>
      </trkpt>
      <trkpt lat="44.52379" lon="1.69425">
        <ele>219</ele>
        <time>2014-07-20T07:38:19Z</time>
      </trkpt>
      <trkpt lat="44.52399" lon="1.69446">
        <ele>220</ele>
        <time>2014-07-20T07:38:32Z</time>
      </trkpt>
      <trkpt lat="44.52409" lon="1.69456">
        <ele>222</ele>
        <time>2014-07-20T07:38:38Z</time>
      </trkpt>
      <trkpt lat="44.5241" lon="1.69458">
        <ele>221</ele>
        <time>2014-07-20T07:38:39Z</time>
      </trkpt>
      <trkpt lat="44.52428" lon="1.69496">
        <ele>224</ele>
        <time>2014-07-20T07:38:52Z</time>
      </trkpt>
      <trkpt lat="44.52442" lon="1.6955">
        <ele>226</ele>
        <time>2014-07-20T07:39:08Z</time>
      </trkpt>
      <trkpt lat="44.52469" lon="1.6959">
        <ele>227</ele>
        <time>2014-07-20T07:39:23Z</time>
      </trkpt>
      <trkpt lat="44.52501" lon="1.69622">
        <ele>229</ele>
        <time>2014-07-20T07:39:40Z</time>
      </trkpt>
      <trkpt lat="44.52531" lon="1.69634">
        <ele>230</ele>
        <time>2014-07-20T07:39:52Z</time>
      </trkpt>
      <trkpt lat="44.52554" lon="1.6965">
        <ele>233</ele>
        <time>2014-07-20T07:40:04Z</time>
      </trkpt>
      <trkpt lat="44.52576" lon="1.69664">
        <ele>231</ele>
        <time>2014-07-20T07:40:15Z</time>
      </trkpt>
      <trkpt lat="44.52578" lon="1.69665">
        <ele>235</ele>
        <time>2014-07-20T07:40:16Z</time>
      </trkpt>
      <trkpt lat="44.5258" lon="1.69666">
        <ele>232</ele>
        <time>2014-07-20T07:40:17Z</time>
      </trkpt>
      <trkpt lat="44.52607" lon="1.69685">
        <ele>235</ele>
        <time>2014-07-20T07:40:31Z</time>
      </trkpt>
      <trkpt lat="44.52633" lon="1.69708">
        <ele>236</ele>
        <time>2014-07-20T07:40:43Z</time>
      </trkpt>
      <trkpt lat="44.5266" lon="1.69734">
        <ele>238</ele>
        <time>2014-07-20T07:40:56Z</time>
      </trkpt>
      <trkpt lat="44.52688" lon="1.69773">
        <ele>240</ele>
        <time>2014-07-20T07:41:11Z</time>
      </trkpt>
      <trkpt lat="44.52716" lon="1.69806">
        <ele>241</ele>
        <time>2014-07-20T07:41:25Z</time>
      </trkpt>
      <trkpt lat="44.52752" lon="1.69823">
        <ele>242</ele>
        <time>2014-07-20T07:41:38Z</time>
      </trkpt>
      <trkpt lat="44.52786" lon="1.69836">
        <ele>244</ele>
        <time>2014-07-20T07:41:50Z</time>
      </trkpt>
      <trkpt lat="44.52826" lon="1.69847">
        <ele>244</ele>
        <time>2014-07-20T07:42:03Z</time>
      </trkpt>
      <trkpt lat="44.52874" lon="1.69849">
        <ele>245</ele>
        <time>2014-07-20T07:42:17Z</time>
      </trkpt>
      <trkpt lat="44.52929" lon="1.69851">
        <ele>246</ele>
        <time>2014-07-20T07:42:32Z</time>
      </trkpt>
      <trkpt lat="44.52983" lon="1.6987">
        <ele>247</ele>
        <time>2014-07-20T07:42:48Z</time>
      </trkpt>
      <trkpt lat="44.53039" lon="1.69871">
        <ele>249</ele>
        <time>2014-07-20T07:43:04Z</time>
      </trkpt>
      <trkpt lat="44.53087" lon="1.69875">
        <ele>251</ele>
        <time>2014-07-20T07:43:18Z</time>
      </trkpt>
      <trkpt lat="44.53145" lon="1.69881">
        <ele>253</ele>
        <time>2014-07-20T07:43:36Z</time>
      </trkpt>
      <trkpt lat="44.53179" lon="1.69883">
        <ele>255</ele>
        <time>2014-07-20T07:43:50Z</time>
      </trkpt>
      <trkpt lat="44.5318" lon="1.69885">
        <ele>255</ele>
        <time>2014-07-20T07:43:51Z</time>
      </trkpt>
      <trkpt lat="44.53181" lon="1.69888">
        <ele>255</ele>
        <time>2014-07-20T07:43:52Z</time>
      </trkpt>
      <trkpt lat="44.53181" lon="1.6989">
        <ele>256</ele>
        <time>2014-07-20T07:43:53Z</time>
      </trkpt>
      <trkpt lat="44.5318" lon="1.69892">
        <ele>255</ele>
        <time>2014-07-20T07:43:54Z</time>
      </trkpt>
      <trkpt lat="44.53179" lon="1.69895">
        <ele>256</ele>
        <time>2014-07-20T07:43:55Z</time>
      </trkpt>
      <trkpt lat="44.53177" lon="1.69896">
        <ele>256</ele>
        <time>2014-07-20T07:43:56Z</time>
      </trkpt>
      <trkpt lat="44.53175" lon="1.69897">
        <ele>256</ele>
        <time>2014-07-20T07:43:57Z</time>
      </trkpt>
      <trkpt lat="44.53137" lon="1.69921">
        <ele>259</ele>
        <time>2014-07-20T07:44:17Z</time>
      </trkpt>
      <trkpt lat="44.53104" lon="1.69943">
        <ele>261</ele>
        <time>2014-07-20T07:44:34Z</time>
      </trkpt>
      <trkpt lat="44.53074" lon="1.69976">
        <ele>263</ele>
        <time>2014-07-20T07:44:51Z</time>
      </trkpt>
      <trkpt lat="44.53042" lon="1.70014">
        <ele>264</ele>
        <time>2014-07-20T07:45:10Z</time>
      </trkpt>
      <trkpt lat="44.53017" lon="1.70044">
        <ele>265</ele>
        <time>2014-07-20T07:45:26Z</time>
      </trkpt>
      <trkpt lat="44.53007" lon="1.70085">
        <ele>267</ele>
        <time>2014-07-20T07:45:40Z</time>
      </trkpt>
      <trkpt lat="44.53007" lon="1.70146">
        <ele>269</ele>
        <time>2014-07-20T07:45:57Z</time>
      </trkpt>
      <trkpt lat="44.53014" lon="1.70194">
        <ele>269</ele>
        <time>2014-07-20T07:46:10Z</time>
      </trkpt>
      <trkpt lat="44.53013" lon="1.70216">
        <ele>267</ele>
        <time>2014-07-20T07:46:17Z</time>
      </trkpt>
      <trkpt lat="44.53013" lon="1.70218">
        <ele>267</ele>
        <time>2014-07-20T07:46:18Z</time>
      </trkpt>
      <trkpt lat="44.53014" lon="1.70221">
        <ele>267</ele>
        <time>2014-07-20T07:46:19Z</time>
      </trkpt>
      <trkpt lat="44.53014" lon="1.70224">
        <ele>267</ele>
        <time>2014-07-20T07:46:20Z</time>
      </trkpt>
      <trkpt lat="44.53013" lon="1.70228">
        <ele>267</ele>
        <time>2014-07-20T07:46:21Z</time>
      </trkpt>
      <trkpt lat="44.53012" lon="1.70233">
        <ele>267</ele>
        <time>2014-07-20T07:46:22Z</time>
      </trkpt>
      <trkpt lat="44.5301" lon="1.70237">
        <ele>266</ele>
        <time>2014-07-20T07:46:23Z</time>
      </trkpt>
      <trkpt lat="44.53007" lon="1.70243">
        <ele>266</ele>
        <time>2014-07-20T07:46:24Z</time>
      </trkpt>
      <trkpt lat="44.53003" lon="1.70248">
        <ele>266</ele>
        <time>2014-07-20T07:46:25Z</time>
      </trkpt>
      <trkpt lat="44.52992" lon="1.70264">
        <ele>266</ele>
        <time>2014-07-20T07:46:28Z</time>
      </trkpt>
      <trkpt lat="44.52985" lon="1.70273">
        <ele>265</ele>
        <time>2014-07-20T07:46:30Z</time>
      </trkpt>
      <trkpt lat="44.52974" lon="1.70287">
        <ele>265</ele>
        <time>2014-07-20T07:46:33Z</time>
      </trkpt>
      <trkpt lat="44.5297" lon="1.70292">
        <ele>264</ele>
        <time>2014-07-20T07:46:34Z</time>
      </trkpt>
      <trkpt lat="44.52966" lon="1.70297">
        <ele>264</ele>
        <time>2014-07-20T07:46:35Z</time>
      </trkpt>
      <trkpt lat="44.52946" lon="1.70317">
        <ele>263</ele>
        <time>2014-07-20T07:46:39Z</time>
      </trkpt>
      <trkpt lat="44.52941" lon="1.70321">
        <ele>263</ele>
        <time>2014-07-20T07:46:40Z</time>
      </trkpt>
      <trkpt lat="44.5288" lon="1.70354">
        <ele>261</ele>
        <time>2014-07-20T07:46:51Z</time>
      </trkpt>
      <trkpt lat="44.52872" lon="1.70359">
        <ele>260</ele>
        <time>2014-07-20T07:46:53Z</time>
      </trkpt>
      <trkpt lat="44.52869" lon="1.70363">
        <ele>260</ele>
        <time>2014-07-20T07:46:54Z</time>
      </trkpt>
      <trkpt lat="44.52862" lon="1.70372">
        <ele>260</ele>
        <time>2014-07-20T07:46:56Z</time>
      </trkpt>
      <trkpt lat="44.52859" lon="1.70378">
        <ele>260</ele>
        <time>2014-07-20T07:46:57Z</time>
      </trkpt>
      <trkpt lat="44.52857" lon="1.70383">
        <ele>259</ele>
        <time>2014-07-20T07:46:58Z</time>
      </trkpt>
      <trkpt lat="44.52854" lon="1.70387">
        <ele>259</ele>
        <time>2014-07-20T07:46:59Z</time>
      </trkpt>
      <trkpt lat="44.52852" lon="1.70391">
        <ele>258</ele>
        <time>2014-07-20T07:47:00Z</time>
      </trkpt>
      <trkpt lat="44.52828" lon="1.70427">
        <ele>256</ele>
        <time>2014-07-20T07:47:10Z</time>
      </trkpt>
      <trkpt lat="44.52824" lon="1.7043">
        <ele>256</ele>
        <time>2014-07-20T07:47:11Z</time>
      </trkpt>
      <trkpt lat="44.52815" lon="1.70436">
        <ele>255</ele>
        <time>2014-07-20T07:47:13Z</time>
      </trkpt>
      <trkpt lat="44.5281" lon="1.70438">
        <ele>255</ele>
        <time>2014-07-20T07:47:14Z</time>
      </trkpt>
      <trkpt lat="44.52794" lon="1.70442">
        <ele>254</ele>
        <time>2014-07-20T07:47:17Z</time>
      </trkpt>
      <trkpt lat="44.52762" lon="1.7047">
        <ele>252</ele>
        <time>2014-07-20T07:47:25Z</time>
      </trkpt>
      <trkpt lat="44.5276" lon="1.70477">
        <ele>251</ele>
        <time>2014-07-20T07:47:26Z</time>
      </trkpt>
      <trkpt lat="44.5276" lon="1.70484">
        <ele>251</ele>
        <time>2014-07-20T07:47:27Z</time>
      </trkpt>
      <trkpt lat="44.52762" lon="1.70492">
        <ele>250</ele>
        <time>2014-07-20T07:47:28Z</time>
      </trkpt>
      <trkpt lat="44.52764" lon="1.70499">
        <ele>250</ele>
        <time>2014-07-20T07:47:29Z</time>
      </trkpt>
      <trkpt lat="44.52768" lon="1.70504">
        <ele>249</ele>
        <time>2014-07-20T07:47:30Z</time>
      </trkpt>
      <trkpt lat="44.52775" lon="1.70517">
        <ele>249</ele>
        <time>2014-07-20T07:47:32Z</time>
      </trkpt>
      <trkpt lat="44.52778" lon="1.70525">
        <ele>249</ele>
        <time>2014-07-20T07:47:33Z</time>
      </trkpt>
      <trkpt lat="44.5278" lon="1.70533">
        <ele>248</ele>
        <time>2014-07-20T07:47:34Z</time>
      </trkpt>
      <trkpt lat="44.52789" lon="1.70554">
        <ele>247</ele>
        <time>2014-07-20T07:47:37Z</time>
      </trkpt>
      <trkpt lat="44.52791" lon="1.70558">
        <ele>247</ele>
        <time>2014-07-20T07:47:38Z</time>
      </trkpt>
      <trkpt lat="44.52793" lon="1.70561">
        <ele>247</ele>
        <time>2014-07-20T07:47:39Z</time>
      </trkpt>
      <trkpt lat="44.52794" lon="1.70563">
        <ele>247</ele>
        <time>2014-07-20T07:47:40Z</time>
      </trkpt>
      <trkpt lat="44.52795" lon="1.70566">
        <ele>246</ele>
        <time>2014-07-20T07:47:41Z</time>
      </trkpt>
      <trkpt lat="44.52793" lon="1.70569">
        <ele>246</ele>
        <time>2014-07-20T07:47:51Z</time>
      </trkpt>
      <trkpt lat="44.52792" lon="1.70567">
        <ele>246</ele>
        <time>2014-07-20T07:47:53Z</time>
      </trkpt>
      <trkpt lat="44.52791" lon="1.70566">
        <ele>246</ele>
        <time>2014-07-20T07:47:54Z</time>
      </trkpt>
      <trkpt lat="44.52791" lon="1.70564">
        <ele>247</ele>
        <time>2014-07-20T07:47:55Z</time>
      </trkpt>
      <trkpt lat="44.5279" lon="1.70563">
        <ele>247</ele>
        <time>2014-07-20T07:47:56Z</time>
      </trkpt>
      <trkpt lat="44.5279" lon="1.70561">
        <ele>247</ele>
        <time>2014-07-20T07:47:57Z</time>
      </trkpt>
      <trkpt lat="44.52789" lon="1.70558">
        <ele>247</ele>
        <time>2014-07-20T07:47:58Z</time>
      </trkpt>
      <trkpt lat="44.52787" lon="1.70555">
        <ele>247</ele>
        <time>2014-07-20T07:48:00Z</time>
      </trkpt>
      <trkpt lat="44.52785" lon="1.70554">
        <ele>247</ele>
        <time>2014-07-20T07:48:01Z</time>
      </trkpt>
      <trkpt lat="44.52785" lon="1.70555">
        <ele>246</ele>
        <time>2014-07-20T07:48:02Z</time>
      </trkpt>
      <trkpt lat="44.52773" lon="1.70575">
        <ele>245</ele>
        <time>2014-07-20T07:48:09Z</time>
      </trkpt>
      <trkpt lat="44.52769" lon="1.7058">
        <ele>245</ele>
        <time>2014-07-20T07:48:10Z</time>
      </trkpt>
      <trkpt lat="44.52765" lon="1.70583">
        <ele>244</ele>
        <time>2014-07-20T07:48:11Z</time>
      </trkpt>
      <trkpt lat="44.52761" lon="1.70583">
        <ele>243</ele>
        <time>2014-07-20T07:48:12Z</time>
      </trkpt>
      <trkpt lat="44.52757" lon="1.70582">
        <ele>243</ele>
        <time>2014-07-20T07:48:13Z</time>
      </trkpt>
      <trkpt lat="44.52748" lon="1.70584">
        <ele>242</ele>
        <time>2014-07-20T07:48:15Z</time>
      </trkpt>
      <trkpt lat="44.52744" lon="1.70587">
        <ele>240</ele>
        <time>2014-07-20T07:48:16Z</time>
      </trkpt>
      <trkpt lat="44.52735" lon="1.70596">
        <ele>240</ele>
        <time>2014-07-20T07:48:18Z</time>
      </trkpt>
      <trkpt lat="44.52718" lon="1.70617">
        <ele>238</ele>
        <time>2014-07-20T07:48:22Z</time>
      </trkpt>
      <trkpt lat="44.52704" lon="1.70641">
        <ele>235</ele>
        <time>2014-07-20T07:48:26Z</time>
      </trkpt>
      <trkpt lat="44.52698" lon="1.70652">
        <ele>233</ele>
        <time>2014-07-20T07:48:28Z</time>
      </trkpt>
      <trkpt lat="44.52684" lon="1.70671">
        <ele>230</ele>
        <time>2014-07-20T07:48:31Z</time>
      </trkpt>
      <trkpt lat="44.5268" lon="1.70676">
        <ele>230</ele>
        <time>2014-07-20T07:48:32Z</time>
      </trkpt>
      <trkpt lat="44.52661" lon="1.70691">
        <ele>227</ele>
        <time>2014-07-20T07:48:36Z</time>
      </trkpt>
      <trkpt lat="44.52641" lon="1.7071">
        <ele>224</ele>
        <time>2014-07-20T07:48:40Z</time>
      </trkpt>
      <trkpt lat="44.5263" lon="1.7072">
        <ele>224</ele>
        <time>2014-07-20T07:48:42Z</time>
      </trkpt>
      <trkpt lat="44.52609" lon="1.70734">
        <ele>220</ele>
        <time>2014-07-20T07:48:46Z</time>
      </trkpt>
      <trkpt lat="44.52603" lon="1.70737">
        <ele>220</ele>
        <time>2014-07-20T07:48:47Z</time>
      </trkpt>
      <trkpt lat="44.52584" lon="1.70749">
        <ele>216</ele>
        <time>2014-07-20T07:48:52Z</time>
      </trkpt>
      <trkpt lat="44.5258" lon="1.70751">
        <ele>216</ele>
        <time>2014-07-20T07:48:53Z</time>
      </trkpt>
      <trkpt lat="44.52545" lon="1.70774">
        <ele>214</ele>
        <time>2014-07-20T07:49:03Z</time>
      </trkpt>
      <trkpt lat="44.52528" lon="1.70779">
        <ele>216</ele>
        <time>2014-07-20T07:49:10Z</time>
      </trkpt>
      <trkpt lat="44.52507" lon="1.70791">
        <ele>218</ele>
        <time>2014-07-20T07:49:21Z</time>
      </trkpt>
      <trkpt lat="44.52501" lon="1.70796">
        <ele>219</ele>
        <time>2014-07-20T07:49:33Z</time>
      </trkpt>
      <trkpt lat="44.52502" lon="1.70796">
        <ele>219</ele>
        <time>2014-07-20T07:50:01Z</time>
      </trkpt>
      <trkpt lat="44.52499" lon="1.70797">
        <ele>219</ele>
        <time>2014-07-20T07:50:23Z</time>
      </trkpt>
      <trkpt lat="44.52489" lon="1.70803">
        <ele>220</ele>
        <time>2014-07-20T07:50:33Z</time>
      </trkpt>
      <trkpt lat="44.52484" lon="1.70807">
        <ele>221</ele>
        <time>2014-07-20T07:50:37Z</time>
      </trkpt>
      <trkpt lat="44.52483" lon="1.70808">
        <ele>222</ele>
        <time>2014-07-20T07:50:38Z</time>
      </trkpt>
      <trkpt lat="44.52482" lon="1.70809">
        <ele>222</ele>
        <time>2014-07-20T07:50:39Z</time>
      </trkpt>
      <trkpt lat="44.52481" lon="1.7081">
        <ele>221</ele>
        <time>2014-07-20T07:50:41Z</time>
      </trkpt>
      <trkpt lat="44.5248" lon="1.70811">
        <ele>222</ele>
        <time>2014-07-20T07:50:42Z</time>
      </trkpt>
      <trkpt lat="44.52469" lon="1.70823">
        <ele>223</ele>
        <time>2014-07-20T07:50:54Z</time>
      </trkpt>
      <trkpt lat="44.5245" lon="1.70847">
        <ele>226</ele>
        <time>2014-07-20T07:51:08Z</time>
      </trkpt>
      <trkpt lat="44.52436" lon="1.70867">
        <ele>228</ele>
        <time>2014-07-20T07:51:21Z</time>
      </trkpt>
      <trkpt lat="44.52421" lon="1.7089">
        <ele>231</ele>
        <time>2014-07-20T07:51:37Z</time>
      </trkpt>
      <trkpt lat="44.52416" lon="1.70897">
        <ele>232</ele>
        <time>2014-07-20T07:51:42Z</time>
      </trkpt>
      <trkpt lat="44.52416" lon="1.70898">
        <ele>232</ele>
        <time>2014-07-20T07:51:43Z</time>
      </trkpt>
      <trkpt lat="44.52407" lon="1.70911">
        <ele>233</ele>
        <time>2014-07-20T07:51:51Z</time>
      </trkpt>
      <trkpt lat="44.52405" lon="1.70913">
        <ele>233</ele>
        <time>2014-07-20T07:51:52Z</time>
      </trkpt>
      <trkpt lat="44.5239" lon="1.70938">
        <ele>235</ele>
        <time>2014-07-20T07:52:07Z</time>
      </trkpt>
      <trkpt lat="44.52372" lon="1.70959">
        <ele>237</ele>
        <time>2014-07-20T07:52:22Z</time>
      </trkpt>
      <trkpt lat="44.52355" lon="1.70982">
        <ele>239</ele>
        <time>2014-07-20T07:52:37Z</time>
      </trkpt>
      <trkpt lat="44.52352" lon="1.70986">
        <ele>240</ele>
        <time>2014-07-20T07:52:40Z</time>
      </trkpt>
      <trkpt lat="44.52351" lon="1.70987">
        <ele>240</ele>
        <time>2014-07-20T07:52:41Z</time>
      </trkpt>
      <trkpt lat="44.52338" lon="1.7101">
        <ele>242</ele>
        <time>2014-07-20T07:52:56Z</time>
      </trkpt>
      <trkpt lat="44.52338" lon="1.71012">
        <ele>242</ele>
        <time>2014-07-20T07:52:57Z</time>
      </trkpt>
      <trkpt lat="44.52337" lon="1.71013">
        <ele>242</ele>
        <time>2014-07-20T07:52:58Z</time>
      </trkpt>
      <trkpt lat="44.52336" lon="1.71014">
        <ele>242</ele>
        <time>2014-07-20T07:52:59Z</time>
      </trkpt>
      <trkpt lat="44.52335" lon="1.71016">
        <ele>243</ele>
        <time>2014-07-20T07:53:00Z</time>
      </trkpt>
      <trkpt lat="44.52335" lon="1.71017">
        <ele>243</ele>
        <time>2014-07-20T07:53:01Z</time>
      </trkpt>
      <trkpt lat="44.52334" lon="1.71018">
        <ele>243</ele>
        <time>2014-07-20T07:53:02Z</time>
      </trkpt>
      <trkpt lat="44.52331" lon="1.71036">
        <ele>244</ele>
        <time>2014-07-20T07:53:13Z</time>
      </trkpt>
      <trkpt lat="44.52332" lon="1.71041">
        <ele>245</ele>
        <time>2014-07-20T07:53:16Z</time>
      </trkpt>
      <trkpt lat="44.52332" lon="1.71043">
        <ele>245</ele>
        <time>2014-07-20T07:53:17Z</time>
      </trkpt>
      <trkpt lat="44.52333" lon="1.71046">
        <ele>245</ele>
        <time>2014-07-20T07:53:18Z</time>
      </trkpt>
      <trkpt lat="44.52333" lon="1.71049">
        <ele>245</ele>
        <time>2014-07-20T07:53:19Z</time>
      </trkpt>
      <trkpt lat="44.52334" lon="1.71052">
        <ele>245</ele>
        <time>2014-07-20T07:53:20Z</time>
      </trkpt>
      <trkpt lat="44.52334" lon="1.71055">
        <ele>245</ele>
        <time>2014-07-20T07:53:21Z</time>
      </trkpt>
      <trkpt lat="44.52335" lon="1.71057">
        <ele>245</ele>
        <time>2014-07-20T07:53:22Z</time>
      </trkpt>
      <trkpt lat="44.52336" lon="1.7106">
        <ele>245</ele>
        <time>2014-07-20T07:53:23Z</time>
      </trkpt>
      <trkpt lat="44.52336" lon="1.71062">
        <ele>246</ele>
        <time>2014-07-20T07:53:24Z</time>
      </trkpt>
      <trkpt lat="44.52336" lon="1.71065">
        <ele>246</ele>
        <time>2014-07-20T07:53:25Z</time>
      </trkpt>
      <trkpt lat="44.5234" lon="1.71079">
        <ele>246</ele>
        <time>2014-07-20T07:53:31Z</time>
      </trkpt>
      <trkpt lat="44.5234" lon="1.71081">
        <ele>247</ele>
        <time>2014-07-20T07:53:32Z</time>
      </trkpt>
      <trkpt lat="44.5234" lon="1.71084">
        <ele>246</ele>
        <time>2014-07-20T07:53:33Z</time>
      </trkpt>
      <trkpt lat="44.52346" lon="1.71122">
        <ele>247</ele>
        <time>2014-07-20T07:53:48Z</time>
      </trkpt>
      <trkpt lat="44.52346" lon="1.71134">
        <ele>246</ele>
        <time>2014-07-20T07:53:59Z</time>
      </trkpt>
      <trkpt lat="44.52346" lon="1.71127">
        <ele>246</ele>
        <time>2014-07-20T07:54:40Z</time>
      </trkpt>
      <trkpt lat="44.52345" lon="1.71129">
        <ele>246</ele>
        <time>2014-07-20T07:55:24Z</time>
      </trkpt>
      <trkpt lat="44.52344" lon="1.71126">
        <ele>246</ele>
        <time>2014-07-20T07:55:55Z</time>
      </trkpt>
      <trkpt lat="44.52343" lon="1.71126">
        <ele>246</ele>
        <time>2014-07-20T07:56:29Z</time>
      </trkpt>
      <trkpt lat="44.52342" lon="1.71125">
        <ele>247</ele>
        <time>2014-07-20T07:57:03Z</time>
      </trkpt>
      <trkpt lat="44.52342" lon="1.71125">
        <ele>246</ele>
        <time>2014-07-20T07:57:37Z</time>
      </trkpt>
      <trkpt lat="44.52341" lon="1.71128">
        <ele>247</ele>
        <time>2014-07-20T07:58:02Z</time>
      </trkpt>
      <trkpt lat="44.52344" lon="1.71129">
        <ele>247</ele>
        <time>2014-07-20T07:58:28Z</time>
      </trkpt>
      <trkpt lat="44.52345" lon="1.7113">
        <ele>247</ele>
        <time>2014-07-20T07:59:01Z</time>
      </trkpt>
      <trkpt lat="44.52347" lon="1.7113">
        <ele>247</ele>
        <time>2014-07-20T07:59:21Z</time>
      </trkpt>
      <trkpt lat="44.52345" lon="1.71131">
        <ele>248</ele>
        <time>2014-07-20T07:59:53Z</time>
      </trkpt>
      <trkpt lat="44.52342" lon="1.71126">
        <ele>248</ele>
        <time>2014-07-20T08:00:21Z</time>
      </trkpt>
      <trkpt lat="44.52345" lon="1.71134">
        <ele>248</ele>
        <time>2014-07-20T08:00:47Z</time>
      </trkpt>
      <trkpt lat="44.52347" lon="1.71142">
        <ele>249</ele>
        <time>2014-07-20T08:01:00Z</time>
      </trkpt>
      <trkpt lat="44.52348" lon="1.71144">
        <ele>249</ele>
        <time>2014-07-20T08:01:01Z</time>
      </trkpt>
      <trkpt lat="44.52347" lon="1.71145">
        <ele>249</ele>
        <time>2014-07-20T08:01:02Z</time>
      </trkpt>
      <trkpt lat="44.52347" lon="1.71147">
        <ele>248</ele>
        <time>2014-07-20T08:01:03Z</time>
      </trkpt>
      <trkpt lat="44.52346" lon="1.71149">
        <ele>248</ele>
        <time>2014-07-20T08:01:04Z</time>
      </trkpt>
      <trkpt lat="44.52346" lon="1.71152">
        <ele>248</ele>
        <time>2014-07-20T08:01:05Z</time>
      </trkpt>
      <trkpt lat="44.52337" lon="1.71192">
        <ele>246</ele>
        <time>2014-07-20T08:01:15Z</time>
      </trkpt>
      <trkpt lat="44.52322" lon="1.71198">
        <ele>242</ele>
        <time>2014-07-20T08:01:19Z</time>
      </trkpt>
      <trkpt lat="44.52304" lon="1.71202">
        <ele>240</ele>
        <time>2014-07-20T08:01:22Z</time>
      </trkpt>
      <trkpt lat="44.52292" lon="1.71203">
        <ele>238</ele>
        <time>2014-07-20T08:01:24Z</time>
      </trkpt>
      <trkpt lat="44.52286" lon="1.71202">
        <ele>238</ele>
        <time>2014-07-20T08:01:25Z</time>
      </trkpt>
      <trkpt lat="44.5228" lon="1.712">
        <ele>237</ele>
        <time>2014-07-20T08:01:26Z</time>
      </trkpt>
      <trkpt lat="44.52265" lon="1.71197">
        <ele>236</ele>
        <time>2014-07-20T08:01:28Z</time>
      </trkpt>
      <trkpt lat="44.52258" lon="1.71196">
        <ele>235</ele>
        <time>2014-07-20T08:01:29Z</time>
      </trkpt>
      <trkpt lat="44.52231" lon="1.71195">
        <ele>232</ele>
        <time>2014-07-20T08:01:33Z</time>
      </trkpt>
      <trkpt lat="44.52227" lon="1.71195">
        <ele>231</ele>
        <time>2014-07-20T08:01:34Z</time>
      </trkpt>
      <trkpt lat="44.52224" lon="1.71196">
        <ele>230</ele>
        <time>2014-07-20T08:01:35Z</time>
      </trkpt>
      <trkpt lat="44.52222" lon="1.71198">
        <ele>230</ele>
        <time>2014-07-20T08:01:36Z</time>
      </trkpt>
      <trkpt lat="44.52223" lon="1.71201">
        <ele>229</ele>
        <time>2014-07-20T08:01:39Z</time>
      </trkpt>
      <trkpt lat="44.52224" lon="1.71201">
        <ele>229</ele>
        <time>2014-07-20T08:01:40Z</time>
      </trkpt>
      <trkpt lat="44.52226" lon="1.71202">
        <ele>228</ele>
        <time>2014-07-20T08:01:41Z</time>
      </trkpt>
      <trkpt lat="44.52228" lon="1.71202">
        <ele>228</ele>
        <time>2014-07-20T08:01:42Z</time>
      </trkpt>
      <trkpt lat="44.5223" lon="1.71203">
        <ele>227</ele>
        <time>2014-07-20T08:01:43Z</time>
      </trkpt>
      <trkpt lat="44.52232" lon="1.71204">
        <ele>227</ele>
        <time>2014-07-20T08:01:44Z</time>
      </trkpt>
      <trkpt lat="44.52257" lon="1.71219">
        <ele>225</ele>
        <time>2014-07-20T08:01:54Z</time>
      </trkpt>
      <trkpt lat="44.52266" lon="1.71228">
        <ele>224</ele>
        <time>2014-07-20T08:01:56Z</time>
      </trkpt>
      <trkpt lat="44.5227" lon="1.71234">
        <ele>223</ele>
        <time>2014-07-20T08:01:57Z</time>
      </trkpt>
      <trkpt lat="44.52275" lon="1.71241">
        <ele>223</ele>
        <time>2014-07-20T08:01:58Z</time>
      </trkpt>
      <trkpt lat="44.52279" lon="1.71248">
        <ele>222</ele>
        <time>2014-07-20T08:01:59Z</time>
      </trkpt>
      <trkpt lat="44.52283" lon="1.71255">
        <ele>222</ele>
        <time>2014-07-20T08:02:00Z</time>
      </trkpt>
      <trkpt lat="44.52286" lon="1.71261">
        <ele>221</ele>
        <time>2014-07-20T08:02:01Z</time>
      </trkpt>
      <trkpt lat="44.52287" lon="1.71265">
        <ele>221</ele>
        <time>2014-07-20T08:02:02Z</time>
      </trkpt>
      <trkpt lat="44.52288" lon="1.71268">
        <ele>220</ele>
        <time>2014-07-20T08:02:03Z</time>
      </trkpt>
      <trkpt lat="44.52287" lon="1.7127">
        <ele>219</ele>
        <time>2014-07-20T08:02:04Z</time>
      </trkpt>
      <trkpt lat="44.52286" lon="1.71269">
        <ele>219</ele>
        <time>2014-07-20T08:02:05Z</time>
      </trkpt>
      <trkpt lat="44.52284" lon="1.71267">
        <ele>219</ele>
        <time>2014-07-20T08:02:06Z</time>
      </trkpt>
      <trkpt lat="44.52283" lon="1.71265">
        <ele>218</ele>
        <time>2014-07-20T08:02:07Z</time>
      </trkpt>
      <trkpt lat="44.52279" lon="1.71259">
        <ele>217</ele>
        <time>2014-07-20T08:02:17Z</time>
      </trkpt>
      <trkpt lat="44.52273" lon="1.71256">
        <ele>217</ele>
        <time>2014-07-20T08:02:47Z</time>
      </trkpt>
      <trkpt lat="44.52261" lon="1.71248">
        <ele>215</ele>
        <time>2014-07-20T08:02:51Z</time>
      </trkpt>
      <trkpt lat="44.52252" lon="1.71245">
        <ele>214</ele>
        <time>2014-07-20T08:02:53Z</time>
      </trkpt>
      <trkpt lat="44.52243" lon="1.71241">
        <ele>213</ele>
        <time>2014-07-20T08:02:55Z</time>
      </trkpt>
      <trkpt lat="44.52239" lon="1.71241">
        <ele>212</ele>
        <time>2014-07-20T08:02:56Z</time>
      </trkpt>
      <trkpt lat="44.52235" lon="1.7124">
        <ele>211</ele>
        <time>2014-07-20T08:02:57Z</time>
      </trkpt>
      <trkpt lat="44.52232" lon="1.71239">
        <ele>210</ele>
        <time>2014-07-20T08:02:58Z</time>
      </trkpt>
      <trkpt lat="44.52228" lon="1.71238">
        <ele>210</ele>
        <time>2014-07-20T08:02:59Z</time>
      </trkpt>
      <trkpt lat="44.52223" lon="1.71239">
        <ele>209</ele>
        <time>2014-07-20T08:03:00Z</time>
      </trkpt>
      <trkpt lat="44.52219" lon="1.7124">
        <ele>208</ele>
        <time>2014-07-20T08:03:01Z</time>
      </trkpt>
      <trkpt lat="44.52208" lon="1.71246">
        <ele>208</ele>
        <time>2014-07-20T08:03:03Z</time>
      </trkpt>
      <trkpt lat="44.52202" lon="1.7125">
        <ele>206</ele>
        <time>2014-07-20T08:03:04Z</time>
      </trkpt>
      <trkpt lat="44.52196" lon="1.71254">
        <ele>206</ele>
        <time>2014-07-20T08:03:05Z</time>
      </trkpt>
      <trkpt lat="44.52174" lon="1.71267">
        <ele>204</ele>
        <time>2014-07-20T08:03:08Z</time>
      </trkpt>
      <trkpt lat="44.52151" lon="1.71283">
        <ele>202</ele>
        <time>2014-07-20T08:03:11Z</time>
      </trkpt>
      <trkpt lat="44.52135" lon="1.713">
        <ele>198</ele>
        <time>2014-07-20T08:03:14Z</time>
      </trkpt>
      <trkpt lat="44.52129" lon="1.7131">
        <ele>196</ele>
        <time>2014-07-20T08:03:16Z</time>
      </trkpt>
      <trkpt lat="44.52128" lon="1.71315">
        <ele>196</ele>
        <time>2014-07-20T08:03:17Z</time>
      </trkpt>
      <trkpt lat="44.52128" lon="1.71321">
        <ele>196</ele>
        <time>2014-07-20T08:03:18Z</time>
      </trkpt>
      <trkpt lat="44.52126" lon="1.71326">
        <ele>196</ele>
        <time>2014-07-20T08:03:19Z</time>
      </trkpt>
      <trkpt lat="44.52125" lon="1.71331">
        <ele>196</ele>
        <time>2014-07-20T08:03:20Z</time>
      </trkpt>
      <trkpt lat="44.52123" lon="1.71335">
        <ele>196</ele>
        <time>2014-07-20T08:03:21Z</time>
      </trkpt>
      <trkpt lat="44.52121" lon="1.71339">
        <ele>196</ele>
        <time>2014-07-20T08:03:22Z</time>
      </trkpt>
      <trkpt lat="44.52118" lon="1.71342">
        <ele>196</ele>
        <time>2014-07-20T08:03:23Z</time>
      </trkpt>
      <trkpt lat="44.52115" lon="1.71345">
        <ele>197</ele>
        <time>2014-07-20T08:03:24Z</time>
      </trkpt>
      <trkpt lat="44.52113" lon="1.71347">
        <ele>198</ele>
        <time>2014-07-20T08:03:25Z</time>
      </trkpt>
      <trkpt lat="44.5211" lon="1.71349">
        <ele>198</ele>
        <time>2014-07-20T08:03:26Z</time>
      </trkpt>
      <trkpt lat="44.52108" lon="1.71352">
        <ele>198</ele>
        <time>2014-07-20T08:03:27Z</time>
      </trkpt>
      <trkpt lat="44.52106" lon="1.71354">
        <ele>199</ele>
        <time>2014-07-20T08:03:28Z</time>
      </trkpt>
      <trkpt lat="44.52069" lon="1.7139">
        <ele>199</ele>
        <time>2014-07-20T08:03:44Z</time>
      </trkpt>
      <trkpt lat="44.52033" lon="1.71428">
        <ele>200</ele>
        <time>2014-07-20T08:03:56Z</time>
      </trkpt>
      <trkpt lat="44.52003" lon="1.71459">
        <ele>200</ele>
        <time>2014-07-20T08:04:08Z</time>
      </trkpt>
      <trkpt lat="44.51969" lon="1.7151">
        <ele>201</ele>
        <time>2014-07-20T08:04:23Z</time>
      </trkpt>
      <trkpt lat="44.51957" lon="1.71536">
        <ele>203</ele>
        <time>2014-07-20T08:04:31Z</time>
      </trkpt>
      <trkpt lat="44.51955" lon="1.71564">
        <ele>205</ele>
        <time>2014-07-20T08:04:43Z</time>
      </trkpt>
      <trkpt lat="44.51956" lon="1.71565">
        <ele>205</ele>
        <time>2014-07-20T08:04:59Z</time>
      </trkpt>
      <trkpt lat="44.51955" lon="1.71566">
        <ele>205</ele>
        <time>2014-07-20T08:05:11Z</time>
      </trkpt>
      <trkpt lat="44.51952" lon="1.71563">
        <ele>205</ele>
        <time>2014-07-20T08:05:24Z</time>
      </trkpt>
      <trkpt lat="44.51955" lon="1.71565">
        <ele>205</ele>
        <time>2014-07-20T08:05:43Z</time>
      </trkpt>
      <trkpt lat="44.51957" lon="1.71569">
        <ele>205</ele>
        <time>2014-07-20T08:05:57Z</time>
      </trkpt>
      <trkpt lat="44.51957" lon="1.7157">
        <ele>205</ele>
        <time>2014-07-20T08:05:58Z</time>
      </trkpt>
      <trkpt lat="44.51958" lon="1.71571">
        <ele>205</ele>
        <time>2014-07-20T08:05:59Z</time>
      </trkpt>
      <trkpt lat="44.51961" lon="1.71578">
        <ele>205</ele>
        <time>2014-07-20T08:06:10Z</time>
      </trkpt>
      <trkpt lat="44.51962" lon="1.71579">
        <ele>205</ele>
        <time>2014-07-20T08:06:11Z</time>
      </trkpt>
      <trkpt lat="44.51964" lon="1.7158">
        <ele>204</ele>
        <time>2014-07-20T08:06:12Z</time>
      </trkpt>
      <trkpt lat="44.51965" lon="1.71582">
        <ele>204</ele>
        <time>2014-07-20T08:06:13Z</time>
      </trkpt>
      <trkpt lat="44.51966" lon="1.71586">
        <ele>204</ele>
        <time>2014-07-20T08:06:26Z</time>
      </trkpt>
      <trkpt lat="44.51978" lon="1.71607">
        <ele>204</ele>
        <time>2014-07-20T08:06:36Z</time>
      </trkpt>
      <trkpt lat="44.51994" lon="1.71637">
        <ele>204</ele>
        <time>2014-07-20T08:06:45Z</time>
      </trkpt>
      <trkpt lat="44.52019" lon="1.71689">
        <ele>204</ele>
        <time>2014-07-20T08:07:02Z</time>
      </trkpt>
      <trkpt lat="44.52022" lon="1.71698">
        <ele>204</ele>
        <time>2014-07-20T08:07:04Z</time>
      </trkpt>
      <trkpt lat="44.52022" lon="1.71704">
        <ele>203</ele>
        <time>2014-07-20T08:07:05Z</time>
      </trkpt>
      <trkpt lat="44.52021" lon="1.71709">
        <ele>203</ele>
        <time>2014-07-20T08:07:06Z</time>
      </trkpt>
      <trkpt lat="44.52021" lon="1.71715">
        <ele>203</ele>
        <time>2014-07-20T08:07:07Z</time>
      </trkpt>
      <trkpt lat="44.5202" lon="1.71721">
        <ele>203</ele>
        <time>2014-07-20T08:07:08Z</time>
      </trkpt>
      <trkpt lat="44.5202" lon="1.71726">
        <ele>202</ele>
        <time>2014-07-20T08:07:09Z</time>
      </trkpt>
      <trkpt lat="44.5202" lon="1.71731">
        <ele>202</ele>
        <time>2014-07-20T08:07:10Z</time>
      </trkpt>
      <trkpt lat="44.5202" lon="1.71742">
        <ele>201</ele>
        <time>2014-07-20T08:07:12Z</time>
      </trkpt>
      <trkpt lat="44.52021" lon="1.71747">
        <ele>200</ele>
        <time>2014-07-20T08:07:13Z</time>
      </trkpt>
      <trkpt lat="44.52031" lon="1.71767">
        <ele>198</ele>
        <time>2014-07-20T08:07:17Z</time>
      </trkpt>
      <trkpt lat="44.52033" lon="1.71774">
        <ele>199</ele>
        <time>2014-07-20T08:07:18Z</time>
      </trkpt>
      <trkpt lat="44.52036" lon="1.7178">
        <ele>198</ele>
        <time>2014-07-20T08:07:19Z</time>
      </trkpt>
      <trkpt lat="44.52038" lon="1.71785">
        <ele>198</ele>
        <time>2014-07-20T08:07:20Z</time>
      </trkpt>
      <trkpt lat="44.52037" lon="1.71788">
        <ele>198</ele>
        <time>2014-07-20T08:07:21Z</time>
      </trkpt>
      <trkpt lat="44.52036" lon="1.7179">
        <ele>198</ele>
        <time>2014-07-20T08:07:22Z</time>
      </trkpt>
      <trkpt lat="44.52028" lon="1.71798">
        <ele>198</ele>
        <time>2014-07-20T08:07:33Z</time>
      </trkpt>
      <trkpt lat="44.52025" lon="1.71795">
        <ele>198</ele>
        <time>2014-07-20T08:07:49Z</time>
      </trkpt>
      <trkpt lat="44.52024" lon="1.71791">
        <ele>198</ele>
        <time>2014-07-20T08:07:52Z</time>
      </trkpt>
      <trkpt lat="44.52023" lon="1.71786">
        <ele>199</ele>
        <time>2014-07-20T08:07:54Z</time>
      </trkpt>
      <trkpt lat="44.52015" lon="1.71778">
        <ele>198</ele>
        <time>2014-07-20T08:07:56Z</time>
      </trkpt>
      <trkpt lat="44.52005" lon="1.71768">
        <ele>198</ele>
        <time>2014-07-20T08:07:58Z</time>
      </trkpt>
      <trkpt lat="44.51991" lon="1.71746">
        <ele>199</ele>
        <time>2014-07-20T08:08:04Z</time>
      </trkpt>
      <trkpt lat="44.52001" lon="1.71724">
        <ele>202</ele>
        <time>2014-07-20T08:08:14Z</time>
      </trkpt>
      <trkpt lat="44.51998" lon="1.7169">
        <ele>204</ele>
        <time>2014-07-20T08:08:27Z</time>
      </trkpt>
      <trkpt lat="44.51997" lon="1.71649">
        <ele>205</ele>
        <time>2014-07-20T08:08:40Z</time>
      </trkpt>
      <trkpt lat="44.51974" lon="1.71596">
        <ele>205</ele>
        <time>2014-07-20T08:08:54Z</time>
      </trkpt>
      <trkpt lat="44.51956" lon="1.71566">
        <ele>206</ele>
        <time>2014-07-20T08:09:06Z</time>
      </trkpt>
      <trkpt lat="44.51955" lon="1.71565">
        <ele>205</ele>
        <time>2014-07-20T08:09:17Z</time>
      </trkpt>
      <trkpt lat="44.51953" lon="1.7156">
        <ele>204</ele>
        <time>2014-07-20T08:09:30Z</time>
      </trkpt>
      <trkpt lat="44.51952" lon="1.71561">
        <ele>205</ele>
        <time>2014-07-20T08:10:01Z</time>
      </trkpt>
      <trkpt lat="44.51953" lon="1.71561">
        <ele>205</ele>
        <time>2014-07-20T08:10:34Z</time>
      </trkpt>
      <trkpt lat="44.51952" lon="1.71561">
        <ele>205</ele>
        <time>2014-07-20T08:10:58Z</time>
      </trkpt>
      <trkpt lat="44.51954" lon="1.7156">
        <ele>205</ele>
        <time>2014-07-20T08:11:17Z</time>
      </trkpt>
      <trkpt lat="44.51956" lon="1.71566">
        <ele>205</ele>
        <time>2014-07-20T08:11:22Z</time>
      </trkpt>
      <trkpt lat="44.51959" lon="1.7157">
        <ele>205</ele>
        <time>2014-07-20T08:11:33Z</time>
      </trkpt>
      <trkpt lat="44.51958" lon="1.71569">
        <ele>205</ele>
        <time>2014-07-20T08:11:35Z</time>
      </trkpt>
      <trkpt lat="44.51958" lon="1.71567">
        <ele>205</ele>
        <time>2014-07-20T08:11:38Z</time>
      </trkpt>
      <trkpt lat="44.51958" lon="1.71565">
        <ele>205</ele>
        <time>2014-07-20T08:11:39Z</time>
      </trkpt>
      <trkpt lat="44.51959" lon="1.71557">
        <ele>206</ele>
        <time>2014-07-20T08:11:46Z</time>
      </trkpt>
      <trkpt lat="44.51962" lon="1.71556">
        <ele>207</ele>
        <time>2014-07-20T08:11:59Z</time>
      </trkpt>
      <trkpt lat="44.51963" lon="1.71556">
        <ele>207</ele>
        <time>2014-07-20T08:12:00Z</time>
      </trkpt>
      <trkpt lat="44.51971" lon="1.71554">
        <ele>211</ele>
        <time>2014-07-20T08:12:11Z</time>
      </trkpt>
      <trkpt lat="44.51977" lon="1.7155">
        <ele>212</ele>
        <time>2014-07-20T08:12:20Z</time>
      </trkpt>
      <trkpt lat="44.51991" lon="1.71545">
        <ele>215</ele>
        <time>2014-07-20T08:12:36Z</time>
      </trkpt>
      <trkpt lat="44.52001" lon="1.71545">
        <ele>217</ele>
        <time>2014-07-20T08:12:52Z</time>
      </trkpt>
      <trkpt lat="44.52007" lon="1.71545">
        <ele>220</ele>
        <time>2014-07-20T08:13:06Z</time>
      </trkpt>
      <trkpt lat="44.52012" lon="1.71544">
        <ele>222</ele>
        <time>2014-07-20T08:13:17Z</time>
      </trkpt>
      <trkpt lat="44.5202" lon="1.71546">
        <ele>224</ele>
        <time>2014-07-20T08:13:31Z</time>
      </trkpt>
      <trkpt lat="44.52022" lon="1.71548">
        <ele>225</ele>
        <time>2014-07-20T08:13:36Z</time>
      </trkpt>
      <trkpt lat="44.52029" lon="1.71552">
        <ele>227</ele>
        <time>2014-07-20T08:13:50Z</time>
      </trkpt>
      <trkpt lat="44.52035" lon="1.7155">
        <ele>229</ele>
        <time>2014-07-20T08:14:07Z</time>
      </trkpt>
      <trkpt lat="44.52038" lon="1.71554">
        <ele>230</ele>
        <time>2014-07-20T08:14:20Z</time>
      </trkpt>
      <trkpt lat="44.52046" lon="1.71552">
        <ele>233</ele>
        <time>2014-07-20T08:14:34Z</time>
      </trkpt>
      <trkpt lat="44.52049" lon="1.71549">
        <ele>233</ele>
        <time>2014-07-20T08:14:38Z</time>
      </trkpt>
      <trkpt lat="44.5205" lon="1.71549">
        <ele>234</ele>
        <time>2014-07-20T08:14:39Z</time>
      </trkpt>
      <trkpt lat="44.52051" lon="1.71548">
        <ele>234</ele>
        <time>2014-07-20T08:14:40Z</time>
      </trkpt>
      <trkpt lat="44.52064" lon="1.71543">
        <ele>237</ele>
        <time>2014-07-20T08:14:56Z</time>
      </trkpt>
      <trkpt lat="44.52067" lon="1.71544">
        <ele>237</ele>
        <time>2014-07-20T08:14:59Z</time>
      </trkpt>
      <trkpt lat="44.52076" lon="1.71542">
        <ele>239</ele>
        <time>2014-07-20T08:15:11Z</time>
      </trkpt>
      <trkpt lat="44.52077" lon="1.71542">
        <ele>240</ele>
        <time>2014-07-20T08:15:26Z</time>
      </trkpt>
      <trkpt lat="44.52083" lon="1.71543">
        <ele>241</ele>
        <time>2014-07-20T08:15:46Z</time>
      </trkpt>
      <trkpt lat="44.52092" lon="1.71545">
        <ele>244</ele>
        <time>2014-07-20T08:15:57Z</time>
      </trkpt>
      <trkpt lat="44.52098" lon="1.71548">
        <ele>245</ele>
        <time>2014-07-20T08:16:04Z</time>
      </trkpt>
      <trkpt lat="44.52109" lon="1.71551">
        <ele>247</ele>
        <time>2014-07-20T08:16:18Z</time>
      </trkpt>
      <trkpt lat="44.52117" lon="1.71561">
        <ele>249</ele>
        <time>2014-07-20T08:16:32Z</time>
      </trkpt>
      <trkpt lat="44.5212" lon="1.71567">
        <ele>250</ele>
        <time>2014-07-20T08:16:38Z</time>
      </trkpt>
      <trkpt lat="44.52123" lon="1.71576">
        <ele>251</ele>
        <time>2014-07-20T08:16:51Z</time>
      </trkpt>
      <trkpt lat="44.52123" lon="1.71593">
        <ele>253</ele>
        <time>2014-07-20T08:17:05Z</time>
      </trkpt>
      <trkpt lat="44.52123" lon="1.71611">
        <ele>255</ele>
        <time>2014-07-20T08:17:21Z</time>
      </trkpt>
      <trkpt lat="44.52123" lon="1.71624">
        <ele>255</ele>
        <time>2014-07-20T08:17:36Z</time>
      </trkpt>
      <trkpt lat="44.52124" lon="1.71626">
        <ele>256</ele>
        <time>2014-07-20T08:17:51Z</time>
      </trkpt>
      <trkpt lat="44.52122" lon="1.71633">
        <ele>256</ele>
        <time>2014-07-20T08:18:03Z</time>
      </trkpt>
      <trkpt lat="44.52121" lon="1.71634">
        <ele>257</ele>
        <time>2014-07-20T08:18:04Z</time>
      </trkpt>
      <trkpt lat="44.5212" lon="1.71636">
        <ele>256</ele>
        <time>2014-07-20T08:18:05Z</time>
      </trkpt>
      <trkpt lat="44.52119" lon="1.71638">
        <ele>257</ele>
        <time>2014-07-20T08:18:06Z</time>
      </trkpt>
      <trkpt lat="44.52119" lon="1.7164">
        <ele>257</ele>
        <time>2014-07-20T08:18:07Z</time>
      </trkpt>
      <trkpt lat="44.52118" lon="1.71643">
        <ele>257</ele>
        <time>2014-07-20T08:18:08Z</time>
      </trkpt>
      <trkpt lat="44.52118" lon="1.71645">
        <ele>257</ele>
        <time>2014-07-20T08:18:09Z</time>
      </trkpt>
      <trkpt lat="44.52118" lon="1.71647">
        <ele>258</ele>
        <time>2014-07-20T08:18:10Z</time>
      </trkpt>
      <trkpt lat="44.52118" lon="1.71649">
        <ele>258</ele>
        <time>2014-07-20T08:18:11Z</time>
      </trkpt>
      <trkpt lat="44.52118" lon="1.71651">
        <ele>258</ele>
        <time>2014-07-20T08:18:12Z</time>
      </trkpt>
      <trkpt lat="44.52118" lon="1.71653">
        <ele>258</ele>
        <time>2014-07-20T08:18:13Z</time>
      </trkpt>
      <trkpt lat="44.52118" lon="1.71655">
        <ele>258</ele>
        <time>2014-07-20T08:18:14Z</time>
      </trkpt>
      <trkpt lat="44.52118" lon="1.71657">
        <ele>259</ele>
        <time>2014-07-20T08:18:15Z</time>
      </trkpt>
      <trkpt lat="44.52119" lon="1.7166">
        <ele>259</ele>
        <time>2014-07-20T08:18:16Z</time>
      </trkpt>
      <trkpt lat="44.52117" lon="1.71693">
        <ele>262</ele>
        <time>2014-07-20T08:18:29Z</time>
      </trkpt>
      <trkpt lat="44.52116" lon="1.71694">
        <ele>262</ele>
        <time>2014-07-20T08:18:30Z</time>
      </trkpt>
      <trkpt lat="44.52114" lon="1.71695">
        <ele>263</ele>
        <time>2014-07-20T08:18:32Z</time>
      </trkpt>
      <trkpt lat="44.52102" lon="1.71698">
        <ele>262</ele>
        <time>2014-07-20T08:18:38Z</time>
      </trkpt>
      <trkpt lat="44.52098" lon="1.71702">
        <ele>262</ele>
        <time>2014-07-20T08:18:48Z</time>
      </trkpt>
      <trkpt lat="44.52097" lon="1.71703">
        <ele>262</ele>
        <time>2014-07-20T08:18:49Z</time>
      </trkpt>
      <trkpt lat="44.52093" lon="1.71715">
        <ele>264</ele>
        <time>2014-07-20T08:19:01Z</time>
      </trkpt>
      <trkpt lat="44.52094" lon="1.71731">
        <ele>265</ele>
        <time>2014-07-20T08:19:15Z</time>
      </trkpt>
      <trkpt lat="44.52094" lon="1.71746">
        <ele>267</ele>
        <time>2014-07-20T08:19:29Z</time>
      </trkpt>
      <trkpt lat="44.52092" lon="1.71762">
        <ele>269</ele>
        <time>2014-07-20T08:19:43Z</time>
      </trkpt>
      <trkpt lat="44.52096" lon="1.71776">
        <ele>271</ele>
        <time>2014-07-20T08:19:56Z</time>
      </trkpt>
      <trkpt lat="44.52104" lon="1.71785">
        <ele>271</ele>
        <time>2014-07-20T08:20:04Z</time>
      </trkpt>
      <trkpt lat="44.52105" lon="1.71787">
        <ele>272</ele>
        <time>2014-07-20T08:20:05Z</time>
      </trkpt>
      <trkpt lat="44.5211" lon="1.71798">
        <ele>273</ele>
        <time>2014-07-20T08:20:14Z</time>
      </trkpt>
      <trkpt lat="44.52111" lon="1.71798">
        <ele>273</ele>
        <time>2014-07-20T08:20:15Z</time>
      </trkpt>
      <trkpt lat="44.52112" lon="1.71799">
        <ele>274</ele>
        <time>2014-07-20T08:20:16Z</time>
      </trkpt>
      <trkpt lat="44.52123" lon="1.71812">
        <ele>274</ele>
        <time>2014-07-20T08:20:27Z</time>
      </trkpt>
      <trkpt lat="44.52147" lon="1.71829">
        <ele>275</ele>
        <time>2014-07-20T08:20:38Z</time>
      </trkpt>
      <trkpt lat="44.52148" lon="1.71831">
        <ele>275</ele>
        <time>2014-07-20T08:20:39Z</time>
      </trkpt>
      <trkpt lat="44.52149" lon="1.71833">
        <ele>275</ele>
        <time>2014-07-20T08:20:40Z</time>
      </trkpt>
      <trkpt lat="44.52151" lon="1.71835">
        <ele>275</ele>
        <time>2014-07-20T08:20:41Z</time>
      </trkpt>
      <trkpt lat="44.52152" lon="1.71837">
        <ele>275</ele>
        <time>2014-07-20T08:20:42Z</time>
      </trkpt>
      <trkpt lat="44.52154" lon="1.71839">
        <ele>275</ele>
        <time>2014-07-20T08:20:43Z</time>
      </trkpt>
      <trkpt lat="44.52155" lon="1.7184">
        <ele>275</ele>
        <time>2014-07-20T08:20:44Z</time>
      </trkpt>
      <trkpt lat="44.52157" lon="1.71841">
        <ele>275</ele>
        <time>2014-07-20T08:20:45Z</time>
      </trkpt>
      <trkpt lat="44.5216" lon="1.71842">
        <ele>275</ele>
        <time>2014-07-20T08:20:46Z</time>
      </trkpt>
      <trkpt lat="44.52162" lon="1.71843">
        <ele>275</ele>
        <time>2014-07-20T08:20:47Z</time>
      </trkpt>
      <trkpt lat="44.52165" lon="1.71845">
        <ele>275</ele>
        <time>2014-07-20T08:20:48Z</time>
      </trkpt>
      <trkpt lat="44.52187" lon="1.71861">
        <ele>275</ele>
        <time>2014-07-20T08:20:59Z</time>
      </trkpt>
      <trkpt lat="44.52199" lon="1.71893">
        <ele>277</ele>
        <time>2014-07-20T08:21:14Z</time>
      </trkpt>
      <trkpt lat="44.52204" lon="1.71908">
        <ele>279</ele>
        <time>2014-07-20T08:21:25Z</time>
      </trkpt>
      <trkpt lat="44.52208" lon="1.71921">
        <ele>280</ele>
        <time>2014-07-20T08:21:38Z</time>
      </trkpt>
      <trkpt lat="44.52209" lon="1.71926">
        <ele>281</ele>
        <time>2014-07-20T08:21:57Z</time>
      </trkpt>
      <trkpt lat="44.52219" lon="1.71942">
        <ele>281</ele>
        <time>2014-07-20T08:22:09Z</time>
      </trkpt>
      <trkpt lat="44.52222" lon="1.71946">
        <ele>282</ele>
        <time>2014-07-20T08:22:11Z</time>
      </trkpt>
      <trkpt lat="44.52223" lon="1.71948">
        <ele>282</ele>
        <time>2014-07-20T08:22:12Z</time>
      </trkpt>
      <trkpt lat="44.52234" lon="1.71971">
        <ele>284</ele>
        <time>2014-07-20T08:22:25Z</time>
      </trkpt>
      <trkpt lat="44.52241" lon="1.71981">
        <ele>285</ele>
        <time>2014-07-20T08:22:36Z</time>
      </trkpt>
      <trkpt lat="44.52242" lon="1.71983">
        <ele>286</ele>
        <time>2014-07-20T08:22:37Z</time>
      </trkpt>
      <trkpt lat="44.52243" lon="1.71984">
        <ele>286</ele>
        <time>2014-07-20T08:22:38Z</time>
      </trkpt>
      <trkpt lat="44.52244" lon="1.71986">
        <ele>286</ele>
        <time>2014-07-20T08:22:39Z</time>
      </trkpt>
      <trkpt lat="44.52245" lon="1.71988">
        <ele>286</ele>
        <time>2014-07-20T08:22:40Z</time>
      </trkpt>
      <trkpt lat="44.52247" lon="1.71989">
        <ele>286</ele>
        <time>2014-07-20T08:22:41Z</time>
      </trkpt>
      <trkpt lat="44.52248" lon="1.71991">
        <ele>287</ele>
        <time>2014-07-20T08:22:42Z</time>
      </trkpt>
      <trkpt lat="44.5225" lon="1.71993">
        <ele>286</ele>
        <time>2014-07-20T08:22:43Z</time>
      </trkpt>
      <trkpt lat="44.52251" lon="1.71994">
        <ele>287</ele>
        <time>2014-07-20T08:22:44Z</time>
      </trkpt>
      <trkpt lat="44.52253" lon="1.71995">
        <ele>287</ele>
        <time>2014-07-20T08:22:45Z</time>
      </trkpt>
      <trkpt lat="44.52255" lon="1.71997">
        <ele>287</ele>
        <time>2014-07-20T08:22:46Z</time>
      </trkpt>
      <trkpt lat="44.52257" lon="1.71998">
        <ele>287</ele>
        <time>2014-07-20T08:22:47Z</time>
      </trkpt>
      <trkpt lat="44.52259" lon="1.71999">
        <ele>287</ele>
        <time>2014-07-20T08:22:48Z</time>
      </trkpt>
      <trkpt lat="44.5226" lon="1.72">
        <ele>287</ele>
        <time>2014-07-20T08:22:49Z</time>
      </trkpt>
      <trkpt lat="44.52262" lon="1.72002">
        <ele>287</ele>
        <time>2014-07-20T08:22:50Z</time>
      </trkpt>
      <trkpt lat="44.52264" lon="1.72004">
        <ele>287</ele>
        <time>2014-07-20T08:22:52Z</time>
      </trkpt>
      <trkpt lat="44.52267" lon="1.72005">
        <ele>287</ele>
        <time>2014-07-20T08:22:53Z</time>
      </trkpt>
      <trkpt lat="44.52286" lon="1.72013">
        <ele>288</ele>
        <time>2014-07-20T08:23:07Z</time>
      </trkpt>
      <trkpt lat="44.52289" lon="1.72015">
        <ele>288</ele>
        <time>2014-07-20T08:23:11Z</time>
      </trkpt>
      <trkpt lat="44.52291" lon="1.72015">
        <ele>288</ele>
        <time>2014-07-20T08:23:12Z</time>
      </trkpt>
      <trkpt lat="44.52292" lon="1.72016">
        <ele>288</ele>
        <time>2014-07-20T08:23:13Z</time>
      </trkpt>
      <trkpt lat="44.52294" lon="1.72017">
        <ele>288</ele>
        <time>2014-07-20T08:23:14Z</time>
      </trkpt>
      <trkpt lat="44.52296" lon="1.72019">
        <ele>288</ele>
        <time>2014-07-20T08:23:15Z</time>
      </trkpt>
      <trkpt lat="44.52298" lon="1.7202">
        <ele>289</ele>
        <time>2014-07-20T08:23:16Z</time>
      </trkpt>
      <trkpt lat="44.523" lon="1.72021">
        <ele>288</ele>
        <time>2014-07-20T08:23:17Z</time>
      </trkpt>
      <trkpt lat="44.52319" lon="1.7203">
        <ele>289</ele>
        <time>2014-07-20T08:23:26Z</time>
      </trkpt>
      <trkpt lat="44.52325" lon="1.72034">
        <ele>289</ele>
        <time>2014-07-20T08:23:29Z</time>
      </trkpt>
      <trkpt lat="44.52359" lon="1.72048">
        <ele>290</ele>
        <time>2014-07-20T08:23:44Z</time>
      </trkpt>
      <trkpt lat="44.52387" lon="1.72056">
        <ele>289</ele>
        <time>2014-07-20T08:23:55Z</time>
      </trkpt>
      <trkpt lat="44.52388" lon="1.72054">
        <ele>288</ele>
        <time>2014-07-20T08:23:56Z</time>
      </trkpt>
      <trkpt lat="44.52392" lon="1.72046">
        <ele>287</ele>
        <time>2014-07-20T08:23:59Z</time>
      </trkpt>
      <trkpt lat="44.52394" lon="1.72045">
        <ele>287</ele>
        <time>2014-07-20T08:24:00Z</time>
      </trkpt>
      <trkpt lat="44.52396" lon="1.72045">
        <ele>287</ele>
        <time>2014-07-20T08:24:01Z</time>
      </trkpt>
      <trkpt lat="44.52399" lon="1.72046">
        <ele>287</ele>
        <time>2014-07-20T08:24:02Z</time>
      </trkpt>
      <trkpt lat="44.52401" lon="1.72048">
        <ele>287</ele>
        <time>2014-07-20T08:24:03Z</time>
      </trkpt>
      <trkpt lat="44.52403" lon="1.7205">
        <ele>287</ele>
        <time>2014-07-20T08:24:04Z</time>
      </trkpt>
      <trkpt lat="44.52406" lon="1.72052">
        <ele>287</ele>
        <time>2014-07-20T08:24:05Z</time>
      </trkpt>
      <trkpt lat="44.52409" lon="1.72054">
        <ele>287</ele>
        <time>2014-07-20T08:24:06Z</time>
      </trkpt>
      <trkpt lat="44.52412" lon="1.72056">
        <ele>287</ele>
        <time>2014-07-20T08:24:07Z</time>
      </trkpt>
      <trkpt lat="44.52442" lon="1.72075">
        <ele>287</ele>
        <time>2014-07-20T08:24:18Z</time>
      </trkpt>
      <trkpt lat="44.52472" lon="1.72101">
        <ele>287</ele>
        <time>2014-07-20T08:24:31Z</time>
      </trkpt>
      <trkpt lat="44.52489" lon="1.72118">
        <ele>287</ele>
        <time>2014-07-20T08:24:38Z</time>
      </trkpt>
      <trkpt lat="44.5249" lon="1.72121">
        <ele>287</ele>
        <time>2014-07-20T08:24:39Z</time>
      </trkpt>
      <trkpt lat="44.5249" lon="1.72124">
        <ele>288</ele>
        <time>2014-07-20T08:24:40Z</time>
      </trkpt>
      <trkpt lat="44.5249" lon="1.72127">
        <ele>288</ele>
        <time>2014-07-20T08:24:41Z</time>
      </trkpt>
      <trkpt lat="44.5249" lon="1.7213">
        <ele>288</ele>
        <time>2014-07-20T08:24:42Z</time>
      </trkpt>
      <trkpt lat="44.5249" lon="1.72132">
        <ele>289</ele>
        <time>2014-07-20T08:24:43Z</time>
      </trkpt>
      <trkpt lat="44.5249" lon="1.72135">
        <ele>289</ele>
        <time>2014-07-20T08:24:44Z</time>
      </trkpt>
      <trkpt lat="44.5249" lon="1.72137">
        <ele>289</ele>
        <time>2014-07-20T08:24:45Z</time>
      </trkpt>
      <trkpt lat="44.52489" lon="1.7214">
        <ele>289</ele>
        <time>2014-07-20T08:24:46Z</time>
      </trkpt>
      <trkpt lat="44.52489" lon="1.72143">
        <ele>290</ele>
        <time>2014-07-20T08:24:47Z</time>
      </trkpt>
      <trkpt lat="44.52488" lon="1.72146">
        <ele>290</ele>
        <time>2014-07-20T08:24:48Z</time>
      </trkpt>
      <trkpt lat="44.52488" lon="1.72149">
        <ele>290</ele>
        <time>2014-07-20T08:24:49Z</time>
      </trkpt>
      <trkpt lat="44.52483" lon="1.72174">
        <ele>294</ele>
        <time>2014-07-20T08:25:01Z</time>
      </trkpt>
      <trkpt lat="44.52476" lon="1.72205">
        <ele>296</ele>
        <time>2014-07-20T08:25:15Z</time>
      </trkpt>
      <trkpt lat="44.5247" lon="1.72233">
        <ele>297</ele>
        <time>2014-07-20T08:25:28Z</time>
      </trkpt>
      <trkpt lat="44.52467" lon="1.72254">
        <ele>298</ele>
        <time>2014-07-20T08:25:38Z</time>
      </trkpt>
      <trkpt lat="44.52467" lon="1.72256">
        <ele>298</ele>
        <time>2014-07-20T08:25:39Z</time>
      </trkpt>
      <trkpt lat="44.52466" lon="1.72259">
        <ele>298</ele>
        <time>2014-07-20T08:25:40Z</time>
      </trkpt>
      <trkpt lat="44.52462" lon="1.72268">
        <ele>298</ele>
        <time>2014-07-20T08:25:55Z</time>
      </trkpt>
      <trkpt lat="44.52464" lon="1.72268">
        <ele>298</ele>
        <time>2014-07-20T08:26:16Z</time>
      </trkpt>
      <trkpt lat="44.52464" lon="1.72277">
        <ele>298</ele>
        <time>2014-07-20T08:26:27Z</time>
      </trkpt>
      <trkpt lat="44.52464" lon="1.72279">
        <ele>298</ele>
        <time>2014-07-20T08:26:28Z</time>
      </trkpt>
      <trkpt lat="44.52465" lon="1.7228">
        <ele>297</ele>
        <time>2014-07-20T08:26:29Z</time>
      </trkpt>
      <trkpt lat="44.52466" lon="1.72282">
        <ele>297</ele>
        <time>2014-07-20T08:26:30Z</time>
      </trkpt>
      <trkpt lat="44.52466" lon="1.72284">
        <ele>297</ele>
        <time>2014-07-20T08:26:31Z</time>
      </trkpt>
      <trkpt lat="44.52468" lon="1.72286">
        <ele>297</ele>
        <time>2014-07-20T08:26:32Z</time>
      </trkpt>
      <trkpt lat="44.52469" lon="1.72287">
        <ele>297</ele>
        <time>2014-07-20T08:26:33Z</time>
      </trkpt>
      <trkpt lat="44.5247" lon="1.72289">
        <ele>297</ele>
        <time>2014-07-20T08:26:34Z</time>
      </trkpt>
      <trkpt lat="44.52471" lon="1.72291">
        <ele>297</ele>
        <time>2014-07-20T08:26:35Z</time>
      </trkpt>
      <trkpt lat="44.52473" lon="1.72292">
        <ele>297</ele>
        <time>2014-07-20T08:26:36Z</time>
      </trkpt>
      <trkpt lat="44.52475" lon="1.72294">
        <ele>297</ele>
        <time>2014-07-20T08:26:37Z</time>
      </trkpt>
      <trkpt lat="44.52478" lon="1.72296">
        <ele>297</ele>
        <time>2014-07-20T08:26:38Z</time>
      </trkpt>
      <trkpt lat="44.5248" lon="1.72299">
        <ele>297</ele>
        <time>2014-07-20T08:26:39Z</time>
      </trkpt>
      <trkpt lat="44.52482" lon="1.72301">
        <ele>297</ele>
        <time>2014-07-20T08:26:40Z</time>
      </trkpt>
      <trkpt lat="44.52484" lon="1.72303">
        <ele>298</ele>
        <time>2014-07-20T08:26:41Z</time>
      </trkpt>
      <trkpt lat="44.52486" lon="1.72306">
        <ele>297</ele>
        <time>2014-07-20T08:26:42Z</time>
      </trkpt>
      <trkpt lat="44.52488" lon="1.72308">
        <ele>297</ele>
        <time>2014-07-20T08:26:43Z</time>
      </trkpt>
      <trkpt lat="44.5249" lon="1.72311">
        <ele>297</ele>
        <time>2014-07-20T08:26:44Z</time>
      </trkpt>
      <trkpt lat="44.52491" lon="1.72314">
        <ele>297</ele>
        <time>2014-07-20T08:26:45Z</time>
      </trkpt>
      <trkpt lat="44.52492" lon="1.72316">
        <ele>297</ele>
        <time>2014-07-20T08:26:46Z</time>
      </trkpt>
      <trkpt lat="44.52511" lon="1.72348">
        <ele>296</ele>
        <time>2014-07-20T08:26:58Z</time>
      </trkpt>
      <trkpt lat="44.52512" lon="1.72351">
        <ele>296</ele>
        <time>2014-07-20T08:26:59Z</time>
      </trkpt>
      <trkpt lat="44.52513" lon="1.72353">
        <ele>296</ele>
        <time>2014-07-20T08:27:00Z</time>
      </trkpt>
      <trkpt lat="44.52515" lon="1.72355">
        <ele>296</ele>
        <time>2014-07-20T08:27:01Z</time>
      </trkpt>
      <trkpt lat="44.52519" lon="1.72356">
        <ele>296</ele>
        <time>2014-07-20T08:27:02Z</time>
      </trkpt>
      <trkpt lat="44.52522" lon="1.72357">
        <ele>297</ele>
        <time>2014-07-20T08:27:03Z</time>
      </trkpt>
      <trkpt lat="44.52542" lon="1.7236">
        <ele>296</ele>
        <time>2014-07-20T08:27:14Z</time>
      </trkpt>
      <trkpt lat="44.52543" lon="1.72361">
        <ele>298</ele>
        <time>2014-07-20T08:27:23Z</time>
      </trkpt>
      <trkpt lat="44.52543" lon="1.72361">
        <ele>296</ele>
        <time>2014-07-20T08:27:25Z</time>
      </trkpt>
      <trkpt lat="44.52546" lon="1.7236">
        <ele>296</ele>
        <time>2014-07-20T08:27:28Z</time>
      </trkpt>
      <trkpt lat="44.52551" lon="1.72357">
        <ele>296</ele>
        <time>2014-07-20T08:27:40Z</time>
      </trkpt>
      <trkpt lat="44.52551" lon="1.72358">
        <ele>296</ele>
        <time>2014-07-20T08:27:58Z</time>
      </trkpt>
      <trkpt lat="44.52553" lon="1.72358">
        <ele>297</ele>
        <time>2014-07-20T08:27:59Z</time>
      </trkpt>
      <trkpt lat="44.52555" lon="1.72359">
        <ele>296</ele>
        <time>2014-07-20T08:28:00Z</time>
      </trkpt>
      <trkpt lat="44.52557" lon="1.72359">
        <ele>297</ele>
        <time>2014-07-20T08:28:01Z</time>
      </trkpt>
      <trkpt lat="44.52559" lon="1.72359">
        <ele>296</ele>
        <time>2014-07-20T08:28:02Z</time>
      </trkpt>
      <trkpt lat="44.52561" lon="1.7236">
        <ele>297</ele>
        <time>2014-07-20T08:28:03Z</time>
      </trkpt>
      <trkpt lat="44.52563" lon="1.72361">
        <ele>297</ele>
        <time>2014-07-20T08:28:04Z</time>
      </trkpt>
      <trkpt lat="44.52565" lon="1.72361">
        <ele>297</ele>
        <time>2014-07-20T08:28:05Z</time>
      </trkpt>
      <trkpt lat="44.52566" lon="1.72359">
        <ele>297</ele>
        <time>2014-07-20T08:28:06Z</time>
      </trkpt>
      <trkpt lat="44.52568" lon="1.72356">
        <ele>297</ele>
        <time>2014-07-20T08:28:07Z</time>
      </trkpt>
      <trkpt lat="44.52569" lon="1.72353">
        <ele>298</ele>
        <time>2014-07-20T08:28:08Z</time>
      </trkpt>
      <trkpt lat="44.5257" lon="1.72349">
        <ele>298</ele>
        <time>2014-07-20T08:28:09Z</time>
      </trkpt>
      <trkpt lat="44.52575" lon="1.72338">
        <ele>298</ele>
        <time>2014-07-20T08:28:13Z</time>
      </trkpt>
      <trkpt lat="44.52578" lon="1.72338">
        <ele>298</ele>
        <time>2014-07-20T08:28:14Z</time>
      </trkpt>
      <trkpt lat="44.52612" lon="1.72335">
        <ele>299</ele>
        <time>2014-07-20T08:28:28Z</time>
      </trkpt>
      <trkpt lat="44.52641" lon="1.72332">
        <ele>299</ele>
        <time>2014-07-20T08:28:40Z</time>
      </trkpt>
      <trkpt lat="44.5267" lon="1.72331">
        <ele>300</ele>
        <time>2014-07-20T08:28:52Z</time>
      </trkpt>
      <trkpt lat="44.527" lon="1.7233">
        <ele>299</ele>
        <time>2014-07-20T08:29:04Z</time>
      </trkpt>
      <trkpt lat="44.52733" lon="1.72331">
        <ele>298</ele>
        <time>2014-07-20T08:29:17Z</time>
      </trkpt>
      <trkpt lat="44.52776" lon="1.72342">
        <ele>296</ele>
        <time>2014-07-20T08:29:29Z</time>
      </trkpt>
      <trkpt lat="44.52809" lon="1.72349">
        <ele>295</ele>
        <time>2014-07-20T08:29:36Z</time>
      </trkpt>
      <trkpt lat="44.52835" lon="1.7235">
        <ele>294</ele>
        <time>2014-07-20T08:29:41Z</time>
      </trkpt>
      <trkpt lat="44.52844" lon="1.72349">
        <ele>294</ele>
        <time>2014-07-20T08:29:43Z</time>
      </trkpt>
      <trkpt lat="44.52853" lon="1.72344">
        <ele>294</ele>
        <time>2014-07-20T08:29:45Z</time>
      </trkpt>
      <trkpt lat="44.52882" lon="1.7233">
        <ele>293</ele>
        <time>2014-07-20T08:29:51Z</time>
      </trkpt>
      <trkpt lat="44.5292" lon="1.72313">
        <ele>292</ele>
        <time>2014-07-20T08:30:00Z</time>
      </trkpt>
      <trkpt lat="44.52965" lon="1.72288">
        <ele>291</ele>
        <time>2014-07-20T08:30:12Z</time>
      </trkpt>
      <trkpt lat="44.52995" lon="1.72296">
        <ele>292</ele>
        <time>2014-07-20T08:30:24Z</time>
      </trkpt>
      <trkpt lat="44.53001" lon="1.72298">
        <ele>293</ele>
        <time>2014-07-20T08:30:28Z</time>
      </trkpt>
      <trkpt lat="44.53003" lon="1.72296">
        <ele>292</ele>
        <time>2014-07-20T08:30:29Z</time>
      </trkpt>
      <trkpt lat="44.53004" lon="1.72293">
        <ele>293</ele>
        <time>2014-07-20T08:30:30Z</time>
      </trkpt>
      <trkpt lat="44.53006" lon="1.72291">
        <ele>293</ele>
        <time>2014-07-20T08:30:31Z</time>
      </trkpt>
      <trkpt lat="44.53008" lon="1.7229">
        <ele>293</ele>
        <time>2014-07-20T08:30:32Z</time>
      </trkpt>
      <trkpt lat="44.5301" lon="1.72288">
        <ele>293</ele>
        <time>2014-07-20T08:30:33Z</time>
      </trkpt>
      <trkpt lat="44.53012" lon="1.72285">
        <ele>293</ele>
        <time>2014-07-20T08:30:34Z</time>
      </trkpt>
      <trkpt lat="44.53044" lon="1.72257">
        <ele>292</ele>
        <time>2014-07-20T08:30:46Z</time>
      </trkpt>
      <trkpt lat="44.53096" lon="1.7224">
        <ele>291</ele>
        <time>2014-07-20T08:31:00Z</time>
      </trkpt>
      <trkpt lat="44.53163" lon="1.72239">
        <ele>291</ele>
        <time>2014-07-20T08:31:15Z</time>
      </trkpt>
      <trkpt lat="44.53171" lon="1.72241">
        <ele>291</ele>
        <time>2014-07-20T08:31:17Z</time>
      </trkpt>
      <trkpt lat="44.53202" lon="1.72247">
        <ele>291</ele>
        <time>2014-07-20T08:31:24Z</time>
      </trkpt>
      <trkpt lat="44.53269" lon="1.72263">
        <ele>293</ele>
        <time>2014-07-20T08:31:39Z</time>
      </trkpt>
      <trkpt lat="44.53286" lon="1.72267">
        <ele>292</ele>
        <time>2014-07-20T08:31:43Z</time>
      </trkpt>
      <trkpt lat="44.53342" lon="1.72286">
        <ele>295</ele>
        <time>2014-07-20T08:31:57Z</time>
      </trkpt>
      <trkpt lat="44.53386" lon="1.72301">
        <ele>296</ele>
        <time>2014-07-20T08:32:12Z</time>
      </trkpt>
      <trkpt lat="44.53439" lon="1.72308">
        <ele>298</ele>
        <time>2014-07-20T08:32:27Z</time>
      </trkpt>
      <trkpt lat="44.53446" lon="1.72311">
        <ele>298</ele>
        <time>2014-07-20T08:32:30Z</time>
      </trkpt>
      <trkpt lat="44.53448" lon="1.72314">
        <ele>299</ele>
        <time>2014-07-20T08:32:31Z</time>
      </trkpt>
      <trkpt lat="44.53448" lon="1.72317">
        <ele>299</ele>
        <time>2014-07-20T08:32:32Z</time>
      </trkpt>
      <trkpt lat="44.53448" lon="1.7232">
        <ele>299</ele>
        <time>2014-07-20T08:32:33Z</time>
      </trkpt>
      <trkpt lat="44.53448" lon="1.72323">
        <ele>299</ele>
        <time>2014-07-20T08:32:34Z</time>
      </trkpt>
      <trkpt lat="44.53447" lon="1.72327">
        <ele>299</ele>
        <time>2014-07-20T08:32:35Z</time>
      </trkpt>
      <trkpt lat="44.53446" lon="1.7233">
        <ele>299</ele>
        <time>2014-07-20T08:32:36Z</time>
      </trkpt>
      <trkpt lat="44.53445" lon="1.72334">
        <ele>299</ele>
        <time>2014-07-20T08:32:37Z</time>
      </trkpt>
      <trkpt lat="44.53445" lon="1.72338">
        <ele>299</ele>
        <time>2014-07-20T08:32:38Z</time>
      </trkpt>
      <trkpt lat="44.53459" lon="1.72376">
        <ele>300</ele>
        <time>2014-07-20T08:32:49Z</time>
      </trkpt>
      <trkpt lat="44.53472" lon="1.72417">
        <ele>301</ele>
        <time>2014-07-20T08:33:01Z</time>
      </trkpt>
      <trkpt lat="44.53469" lon="1.7246">
        <ele>299</ele>
        <time>2014-07-20T08:33:09Z</time>
      </trkpt>
      <trkpt lat="44.53465" lon="1.72507">
        <ele>298</ele>
        <time>2014-07-20T08:33:16Z</time>
      </trkpt>
      <trkpt lat="44.53466" lon="1.72515">
        <ele>298</ele>
        <time>2014-07-20T08:33:17Z</time>
      </trkpt>
      <trkpt lat="44.53464" lon="1.72605">
        <ele>298</ele>
        <time>2014-07-20T08:33:32Z</time>
      </trkpt>
      <trkpt lat="44.53463" lon="1.72636">
        <ele>297</ele>
        <time>2014-07-20T08:33:37Z</time>
      </trkpt>
      <trkpt lat="44.53463" lon="1.72642">
        <ele>296</ele>
        <time>2014-07-20T08:33:38Z</time>
      </trkpt>
      <trkpt lat="44.53465" lon="1.72648">
        <ele>296</ele>
        <time>2014-07-20T08:33:39Z</time>
      </trkpt>
      <trkpt lat="44.53467" lon="1.72653">
        <ele>296</ele>
        <time>2014-07-20T08:33:40Z</time>
      </trkpt>
      <trkpt lat="44.5347" lon="1.72658">
        <ele>295</ele>
        <time>2014-07-20T08:33:41Z</time>
      </trkpt>
      <trkpt lat="44.53473" lon="1.72663">
        <ele>296</ele>
        <time>2014-07-20T08:33:42Z</time>
      </trkpt>
      <trkpt lat="44.53477" lon="1.72667">
        <ele>296</ele>
        <time>2014-07-20T08:33:43Z</time>
      </trkpt>
      <trkpt lat="44.53481" lon="1.7267">
        <ele>295</ele>
        <time>2014-07-20T08:33:44Z</time>
      </trkpt>
      <trkpt lat="44.53485" lon="1.72673">
        <ele>295</ele>
        <time>2014-07-20T08:33:45Z</time>
      </trkpt>
      <trkpt lat="44.53489" lon="1.72676">
        <ele>295</ele>
        <time>2014-07-20T08:33:46Z</time>
      </trkpt>
      <trkpt lat="44.53534" lon="1.72704">
        <ele>292</ele>
        <time>2014-07-20T08:33:57Z</time>
      </trkpt>
      <trkpt lat="44.53542" lon="1.72712">
        <ele>291</ele>
        <time>2014-07-20T08:33:59Z</time>
      </trkpt>
      <trkpt lat="44.53563" lon="1.7274">
        <ele>289</ele>
        <time>2014-07-20T08:34:04Z</time>
      </trkpt>
      <trkpt lat="44.53569" lon="1.72751">
        <ele>287</ele>
        <time>2014-07-20T08:34:06Z</time>
      </trkpt>
      <trkpt lat="44.53571" lon="1.72757">
        <ele>286</ele>
        <time>2014-07-20T08:34:07Z</time>
      </trkpt>
      <trkpt lat="44.53572" lon="1.72763">
        <ele>285</ele>
        <time>2014-07-20T08:34:08Z</time>
      </trkpt>
      <trkpt lat="44.53572" lon="1.7277">
        <ele>284</ele>
        <time>2014-07-20T08:34:09Z</time>
      </trkpt>
      <trkpt lat="44.5357" lon="1.72776">
        <ele>283</ele>
        <time>2014-07-20T08:34:10Z</time>
      </trkpt>
      <trkpt lat="44.53568" lon="1.72783">
        <ele>283</ele>
        <time>2014-07-20T08:34:11Z</time>
      </trkpt>
      <trkpt lat="44.53564" lon="1.72789">
        <ele>282</ele>
        <time>2014-07-20T08:34:12Z</time>
      </trkpt>
      <trkpt lat="44.53561" lon="1.72795">
        <ele>281</ele>
        <time>2014-07-20T08:34:13Z</time>
      </trkpt>
      <trkpt lat="44.53556" lon="1.72799">
        <ele>281</ele>
        <time>2014-07-20T08:34:14Z</time>
      </trkpt>
      <trkpt lat="44.53552" lon="1.72804">
        <ele>280</ele>
        <time>2014-07-20T08:34:15Z</time>
      </trkpt>
      <trkpt lat="44.53547" lon="1.72808">
        <ele>280</ele>
        <time>2014-07-20T08:34:16Z</time>
      </trkpt>
      <trkpt lat="44.53525" lon="1.72832">
        <ele>278</ele>
        <time>2014-07-20T08:34:22Z</time>
      </trkpt>
      <trkpt lat="44.53511" lon="1.72852">
        <ele>275</ele>
        <time>2014-07-20T08:34:26Z</time>
      </trkpt>
      <trkpt lat="44.53508" lon="1.72857">
        <ele>274</ele>
        <time>2014-07-20T08:34:27Z</time>
      </trkpt>
      <trkpt lat="44.53505" lon="1.72861">
        <ele>274</ele>
        <time>2014-07-20T08:34:28Z</time>
      </trkpt>
      <trkpt lat="44.53505" lon="1.72866">
        <ele>273</ele>
        <time>2014-07-20T08:34:29Z</time>
      </trkpt>
      <trkpt lat="44.53507" lon="1.72871">
        <ele>272</ele>
        <time>2014-07-20T08:34:30Z</time>
      </trkpt>
      <trkpt lat="44.5351" lon="1.72875">
        <ele>272</ele>
        <time>2014-07-20T08:34:31Z</time>
      </trkpt>
      <trkpt lat="44.53513" lon="1.72876">
        <ele>271</ele>
        <time>2014-07-20T08:34:32Z</time>
      </trkpt>
      <trkpt lat="44.53518" lon="1.72876">
        <ele>271</ele>
        <time>2014-07-20T08:34:33Z</time>
      </trkpt>
      <trkpt lat="44.53523" lon="1.72876">
        <ele>270</ele>
        <time>2014-07-20T08:34:34Z</time>
      </trkpt>
      <trkpt lat="44.53546" lon="1.72875">
        <ele>270</ele>
        <time>2014-07-20T08:34:39Z</time>
      </trkpt>
      <trkpt lat="44.53564" lon="1.72878">
        <ele>270</ele>
        <time>2014-07-20T08:34:43Z</time>
      </trkpt>
      <trkpt lat="44.53568" lon="1.72879">
        <ele>270</ele>
        <time>2014-07-20T08:34:44Z</time>
      </trkpt>
      <trkpt lat="44.53571" lon="1.72881">
        <ele>270</ele>
        <time>2014-07-20T08:34:45Z</time>
      </trkpt>
      <trkpt lat="44.53573" lon="1.72884">
        <ele>269</ele>
        <time>2014-07-20T08:34:46Z</time>
      </trkpt>
      <trkpt lat="44.53576" lon="1.72888">
        <ele>269</ele>
        <time>2014-07-20T08:34:47Z</time>
      </trkpt>
      <trkpt lat="44.5358" lon="1.72892">
        <ele>269</ele>
        <time>2014-07-20T08:34:48Z</time>
      </trkpt>
      <trkpt lat="44.53584" lon="1.72898">
        <ele>268</ele>
        <time>2014-07-20T08:34:49Z</time>
      </trkpt>
      <trkpt lat="44.53598" lon="1.72924">
        <ele>264</ele>
        <time>2014-07-20T08:34:53Z</time>
      </trkpt>
      <trkpt lat="44.53613" lon="1.72952">
        <ele>261</ele>
        <time>2014-07-20T08:34:57Z</time>
      </trkpt>
      <trkpt lat="44.53629" lon="1.72982">
        <ele>256</ele>
        <time>2014-07-20T08:35:01Z</time>
      </trkpt>
      <trkpt lat="44.53643" lon="1.73006">
        <ele>252</ele>
        <time>2014-07-20T08:35:04Z</time>
      </trkpt>
      <trkpt lat="44.53658" lon="1.73028">
        <ele>249</ele>
        <time>2014-07-20T08:35:07Z</time>
      </trkpt>
      <trkpt lat="44.53672" lon="1.73049">
        <ele>247</ele>
        <time>2014-07-20T08:35:10Z</time>
      </trkpt>
      <trkpt lat="44.53684" lon="1.7307">
        <ele>245</ele>
        <time>2014-07-20T08:35:13Z</time>
      </trkpt>
      <trkpt lat="44.53696" lon="1.73099">
        <ele>242</ele>
        <time>2014-07-20T08:35:17Z</time>
      </trkpt>
      <trkpt lat="44.53709" lon="1.73135">
        <ele>239</ele>
        <time>2014-07-20T08:35:22Z</time>
      </trkpt>
      <trkpt lat="44.5372" lon="1.73155">
        <ele>237</ele>
        <time>2014-07-20T08:35:25Z</time>
      </trkpt>
      <trkpt lat="44.53725" lon="1.7316">
        <ele>236</ele>
        <time>2014-07-20T08:35:26Z</time>
      </trkpt>
      <trkpt lat="44.53738" lon="1.73166">
        <ele>235</ele>
        <time>2014-07-20T08:35:28Z</time>
      </trkpt>
      <trkpt lat="44.53744" lon="1.73167">
        <ele>235</ele>
        <time>2014-07-20T08:35:29Z</time>
      </trkpt>
      <trkpt lat="44.53751" lon="1.73167">
        <ele>235</ele>
        <time>2014-07-20T08:35:30Z</time>
      </trkpt>
      <trkpt lat="44.53757" lon="1.73166">
        <ele>235</ele>
        <time>2014-07-20T08:35:31Z</time>
      </trkpt>
      <trkpt lat="44.53763" lon="1.73162">
        <ele>235</ele>
        <time>2014-07-20T08:35:32Z</time>
      </trkpt>
      <trkpt lat="44.53769" lon="1.73159">
        <ele>235</ele>
        <time>2014-07-20T08:35:33Z</time>
      </trkpt>
      <trkpt lat="44.53807" lon="1.73131">
        <ele>235</ele>
        <time>2014-07-20T08:35:41Z</time>
      </trkpt>
      <trkpt lat="44.5381" lon="1.73128">
        <ele>235</ele>
        <time>2014-07-20T08:35:42Z</time>
      </trkpt>
      <trkpt lat="44.53814" lon="1.73123">
        <ele>235</ele>
        <time>2014-07-20T08:35:43Z</time>
      </trkpt>
      <trkpt lat="44.5384" lon="1.73094">
        <ele>233</ele>
        <time>2014-07-20T08:35:49Z</time>
      </trkpt>
      <trkpt lat="44.53851" lon="1.73083">
        <ele>232</ele>
        <time>2014-07-20T08:35:51Z</time>
      </trkpt>
      <trkpt lat="44.53858" lon="1.7308">
        <ele>232</ele>
        <time>2014-07-20T08:35:52Z</time>
      </trkpt>
      <trkpt lat="44.53864" lon="1.7308">
        <ele>231</ele>
        <time>2014-07-20T08:35:53Z</time>
      </trkpt>
      <trkpt lat="44.5387" lon="1.73081">
        <ele>232</ele>
        <time>2014-07-20T08:35:54Z</time>
      </trkpt>
      <trkpt lat="44.53876" lon="1.73085">
        <ele>232</ele>
        <time>2014-07-20T08:35:55Z</time>
      </trkpt>
      <trkpt lat="44.5388" lon="1.73089">
        <ele>232</ele>
        <time>2014-07-20T08:35:56Z</time>
      </trkpt>
      <trkpt lat="44.53883" lon="1.73093">
        <ele>232</ele>
        <time>2014-07-20T08:35:57Z</time>
      </trkpt>
      <trkpt lat="44.53925" lon="1.73144">
        <ele>235</ele>
        <time>2014-07-20T08:36:13Z</time>
      </trkpt>
      <trkpt lat="44.53943" lon="1.73158">
        <ele>235</ele>
        <time>2014-07-20T08:36:18Z</time>
      </trkpt>
      <trkpt lat="44.53947" lon="1.7316">
        <ele>235</ele>
        <time>2014-07-20T08:36:19Z</time>
      </trkpt>
      <trkpt lat="44.53956" lon="1.73163">
        <ele>234</ele>
        <time>2014-07-20T08:36:21Z</time>
      </trkpt>
      <trkpt lat="44.53961" lon="1.73163">
        <ele>235</ele>
        <time>2014-07-20T08:36:22Z</time>
      </trkpt>
      <trkpt lat="44.54027" lon="1.73167">
        <ele>235</ele>
        <time>2014-07-20T08:36:38Z</time>
      </trkpt>
      <trkpt lat="44.54052" lon="1.73167">
        <ele>235</ele>
        <time>2014-07-20T08:36:44Z</time>
      </trkpt>
      <trkpt lat="44.54057" lon="1.7317">
        <ele>234</ele>
        <time>2014-07-20T08:36:45Z</time>
      </trkpt>
      <trkpt lat="44.54061" lon="1.73174">
        <ele>233</ele>
        <time>2014-07-20T08:36:46Z</time>
      </trkpt>
      <trkpt lat="44.54064" lon="1.73178">
        <ele>233</ele>
        <time>2014-07-20T08:36:47Z</time>
      </trkpt>
      <trkpt lat="44.54064" lon="1.73183">
        <ele>233</ele>
        <time>2014-07-20T08:36:48Z</time>
      </trkpt>
      <trkpt lat="44.54063" lon="1.73189">
        <ele>234</ele>
        <time>2014-07-20T08:36:49Z</time>
      </trkpt>
      <trkpt lat="44.54063" lon="1.73194">
        <ele>234</ele>
        <time>2014-07-20T08:36:50Z</time>
      </trkpt>
      <trkpt lat="44.54062" lon="1.73199">
        <ele>234</ele>
        <time>2014-07-20T08:36:51Z</time>
      </trkpt>
      <trkpt lat="44.54063" lon="1.73204">
        <ele>235</ele>
        <time>2014-07-20T08:36:52Z</time>
      </trkpt>
      <trkpt lat="44.54063" lon="1.73209">
        <ele>234</ele>
        <time>2014-07-20T08:36:53Z</time>
      </trkpt>
      <trkpt lat="44.54073" lon="1.73254">
        <ele>234</ele>
        <time>2014-07-20T08:37:02Z</time>
      </trkpt>
      <trkpt lat="44.54079" lon="1.73264">
        <ele>234</ele>
        <time>2014-07-20T08:37:04Z</time>
      </trkpt>
      <trkpt lat="44.54082" lon="1.73268">
        <ele>233</ele>
        <time>2014-07-20T08:37:05Z</time>
      </trkpt>
      <trkpt lat="44.54128" lon="1.73332">
        <ele>230</ele>
        <time>2014-07-20T08:37:18Z</time>
      </trkpt>
      <trkpt lat="44.5413" lon="1.73337">
        <ele>229</ele>
        <time>2014-07-20T08:37:19Z</time>
      </trkpt>
      <trkpt lat="44.54132" lon="1.73342">
        <ele>229</ele>
        <time>2014-07-20T08:37:20Z</time>
      </trkpt>
      <trkpt lat="44.54132" lon="1.73347">
        <ele>228</ele>
        <time>2014-07-20T08:37:21Z</time>
      </trkpt>
      <trkpt lat="44.54132" lon="1.73352">
        <ele>228</ele>
        <time>2014-07-20T08:37:22Z</time>
      </trkpt>
      <trkpt lat="44.54133" lon="1.73357">
        <ele>229</ele>
        <time>2014-07-20T08:37:23Z</time>
      </trkpt>
      <trkpt lat="44.54132" lon="1.73361">
        <ele>229</ele>
        <time>2014-07-20T08:37:24Z</time>
      </trkpt>
      <trkpt lat="44.54129" lon="1.73363">
        <ele>229</ele>
        <time>2014-07-20T08:37:25Z</time>
      </trkpt>
      <trkpt lat="44.54126" lon="1.73363">
        <ele>229</ele>
        <time>2014-07-20T08:37:26Z</time>
      </trkpt>
      <trkpt lat="44.54123" lon="1.73362">
        <ele>230</ele>
        <time>2014-07-20T08:37:27Z</time>
      </trkpt>
      <trkpt lat="44.54085" lon="1.7336">
        <ele>232</ele>
        <time>2014-07-20T08:37:42Z</time>
      </trkpt>
      <trkpt lat="44.54039" lon="1.73359">
        <ele>235</ele>
        <time>2014-07-20T08:37:59Z</time>
      </trkpt>
      <trkpt lat="44.54017" lon="1.73364">
        <ele>236</ele>
        <time>2014-07-20T08:38:11Z</time>
      </trkpt>
      <trkpt lat="44.54016" lon="1.73365">
        <ele>236</ele>
        <time>2014-07-20T08:38:12Z</time>
      </trkpt>
      <trkpt lat="44.54015" lon="1.73367">
        <ele>237</ele>
        <time>2014-07-20T08:38:24Z</time>
      </trkpt>
      <trkpt lat="44.54014" lon="1.73367">
        <ele>236</ele>
        <time>2014-07-20T08:38:46Z</time>
      </trkpt>
      <trkpt lat="44.54013" lon="1.73366">
        <ele>237</ele>
        <time>2014-07-20T08:39:13Z</time>
      </trkpt>
      <trkpt lat="44.54012" lon="1.73379">
        <ele>239</ele>
        <time>2014-07-20T08:39:28Z</time>
      </trkpt>
      <trkpt lat="44.54007" lon="1.734">
        <ele>241</ele>
        <time>2014-07-20T08:39:46Z</time>
      </trkpt>
      <trkpt lat="44.54006" lon="1.73415">
        <ele>243</ele>
        <time>2014-07-20T08:39:57Z</time>
      </trkpt>
      <trkpt lat="44.54004" lon="1.73432">
        <ele>246</ele>
        <time>2014-07-20T08:40:12Z</time>
      </trkpt>
      <trkpt lat="44.54002" lon="1.73448">
        <ele>247</ele>
        <time>2014-07-20T08:40:25Z</time>
      </trkpt>
      <trkpt lat="44.53999" lon="1.73463">
        <ele>249</ele>
        <time>2014-07-20T08:40:41Z</time>
      </trkpt>
      <trkpt lat="44.53997" lon="1.73469">
        <ele>250</ele>
        <time>2014-07-20T08:40:51Z</time>
      </trkpt>
      <trkpt lat="44.53995" lon="1.73482">
        <ele>252</ele>
        <time>2014-07-20T08:41:05Z</time>
      </trkpt>
      <trkpt lat="44.53993" lon="1.73496">
        <ele>253</ele>
        <time>2014-07-20T08:41:18Z</time>
      </trkpt>
      <trkpt lat="44.53993" lon="1.73513">
        <ele>255</ele>
        <time>2014-07-20T08:41:32Z</time>
      </trkpt>
      <trkpt lat="44.53992" lon="1.73528">
        <ele>258</ele>
        <time>2014-07-20T08:41:47Z</time>
      </trkpt>
      <trkpt lat="44.53994" lon="1.73541">
        <ele>260</ele>
        <time>2014-07-20T08:41:59Z</time>
      </trkpt>
      <trkpt lat="44.54001" lon="1.73555">
        <ele>261</ele>
        <time>2014-07-20T08:42:14Z</time>
      </trkpt>
      <trkpt lat="44.54006" lon="1.73563">
        <ele>261</ele>
        <time>2014-07-20T08:42:34Z</time>
      </trkpt>
      <trkpt lat="44.54011" lon="1.73571">
        <ele>262</ele>
        <time>2014-07-20T08:42:47Z</time>
      </trkpt>
      <trkpt lat="44.54012" lon="1.73573">
        <ele>263</ele>
        <time>2014-07-20T08:42:48Z</time>
      </trkpt>
      <trkpt lat="44.54012" lon="1.73574">
        <ele>262</ele>
        <time>2014-07-20T08:42:49Z</time>
      </trkpt>
      <trkpt lat="44.54014" lon="1.7358">
        <ele>263</ele>
        <time>2014-07-20T08:42:52Z</time>
      </trkpt>
      <trkpt lat="44.54016" lon="1.73582">
        <ele>263</ele>
        <time>2014-07-20T08:42:53Z</time>
      </trkpt>
      <trkpt lat="44.54017" lon="1.73584">
        <ele>263</ele>
        <time>2014-07-20T08:42:54Z</time>
      </trkpt>
      <trkpt lat="44.54018" lon="1.73586">
        <ele>263</ele>
        <time>2014-07-20T08:42:55Z</time>
      </trkpt>
      <trkpt lat="44.54018" lon="1.73588">
        <ele>264</ele>
        <time>2014-07-20T08:42:56Z</time>
      </trkpt>
      <trkpt lat="44.54019" lon="1.7359">
        <ele>263</ele>
        <time>2014-07-20T08:42:57Z</time>
      </trkpt>
      <trkpt lat="44.5402" lon="1.73592">
        <ele>264</ele>
        <time>2014-07-20T08:42:58Z</time>
      </trkpt>
      <trkpt lat="44.54022" lon="1.73594">
        <ele>264</ele>
        <time>2014-07-20T08:42:59Z</time>
      </trkpt>
      <trkpt lat="44.54023" lon="1.73596">
        <ele>264</ele>
        <time>2014-07-20T08:43:00Z</time>
      </trkpt>
      <trkpt lat="44.54039" lon="1.73626">
        <ele>265</ele>
        <time>2014-07-20T08:43:15Z</time>
      </trkpt>
      <trkpt lat="44.54041" lon="1.73651">
        <ele>267</ele>
        <time>2014-07-20T08:43:26Z</time>
      </trkpt>
      <trkpt lat="44.54044" lon="1.73684">
        <ele>270</ele>
        <time>2014-07-20T08:43:39Z</time>
      </trkpt>
      <trkpt lat="44.54043" lon="1.7372">
        <ele>271</ele>
        <time>2014-07-20T08:43:53Z</time>
      </trkpt>
      <trkpt lat="44.54043" lon="1.73732">
        <ele>271</ele>
        <time>2014-07-20T08:43:58Z</time>
      </trkpt>
      <trkpt lat="44.5404" lon="1.73768">
        <ele>272</ele>
        <time>2014-07-20T08:44:11Z</time>
      </trkpt>
      <trkpt lat="44.54037" lon="1.73788">
        <ele>273</ele>
        <time>2014-07-20T08:44:18Z</time>
      </trkpt>
      <trkpt lat="44.54074" lon="1.73846">
        <ele>269</ele>
        <time>2014-07-20T08:48:36Z</time>
      </trkpt>
      <trkpt lat="44.54106" lon="1.73849">
        <ele>267</ele>
        <time>2014-07-20T08:48:49Z</time>
      </trkpt>
      <trkpt lat="44.54111" lon="1.7385">
        <ele>266</ele>
        <time>2014-07-20T08:49:03Z</time>
      </trkpt>
      <trkpt lat="44.54115" lon="1.73848">
        <ele>266</ele>
        <time>2014-07-20T08:49:20Z</time>
      </trkpt>
      <trkpt lat="44.54124" lon="1.73852">
        <ele>267</ele>
        <time>2014-07-20T08:49:35Z</time>
      </trkpt>
      <trkpt lat="44.54131" lon="1.73853">
        <ele>267</ele>
        <time>2014-07-20T08:49:47Z</time>
      </trkpt>
      <trkpt lat="44.54132" lon="1.73854">
        <ele>267</ele>
        <time>2014-07-20T08:49:49Z</time>
      </trkpt>
      <trkpt lat="44.54133" lon="1.73855">
        <ele>267</ele>
        <time>2014-07-20T08:49:50Z</time>
      </trkpt>
      <trkpt lat="44.54135" lon="1.73855">
        <ele>267</ele>
        <time>2014-07-20T08:49:51Z</time>
      </trkpt>
      <trkpt lat="44.54137" lon="1.73856">
        <ele>267</ele>
        <time>2014-07-20T08:49:52Z</time>
      </trkpt>
      <trkpt lat="44.54138" lon="1.73857">
        <ele>267</ele>
        <time>2014-07-20T08:49:53Z</time>
      </trkpt>
      <trkpt lat="44.5414" lon="1.73858">
        <ele>267</ele>
        <time>2014-07-20T08:49:54Z</time>
      </trkpt>
      <trkpt lat="44.54141" lon="1.73857">
        <ele>268</ele>
        <time>2014-07-20T08:49:55Z</time>
      </trkpt>
      <trkpt lat="44.54145" lon="1.73853">
        <ele>268</ele>
        <time>2014-07-20T08:49:59Z</time>
      </trkpt>
      <trkpt lat="44.54146" lon="1.73851">
        <ele>268</ele>
        <time>2014-07-20T08:50:00Z</time>
      </trkpt>
      <trkpt lat="44.54146" lon="1.73849">
        <ele>268</ele>
        <time>2014-07-20T08:50:01Z</time>
      </trkpt>
      <trkpt lat="44.54145" lon="1.73847">
        <ele>268</ele>
        <time>2014-07-20T08:50:02Z</time>
      </trkpt>
      <trkpt lat="44.54145" lon="1.73845">
        <ele>269</ele>
        <time>2014-07-20T08:50:03Z</time>
      </trkpt>
      <trkpt lat="44.54145" lon="1.73843">
        <ele>269</ele>
        <time>2014-07-20T08:50:04Z</time>
      </trkpt>
      <trkpt lat="44.54146" lon="1.7384">
        <ele>269</ele>
        <time>2014-07-20T08:50:05Z</time>
      </trkpt>
      <trkpt lat="44.54146" lon="1.73838">
        <ele>269</ele>
        <time>2014-07-20T08:50:06Z</time>
      </trkpt>
      <trkpt lat="44.54146" lon="1.73836">
        <ele>269</ele>
        <time>2014-07-20T08:50:07Z</time>
      </trkpt>
      <trkpt lat="44.54146" lon="1.73834">
        <ele>269</ele>
        <time>2014-07-20T08:50:08Z</time>
      </trkpt>
      <trkpt lat="44.54146" lon="1.73831">
        <ele>269</ele>
        <time>2014-07-20T08:50:09Z</time>
      </trkpt>
      <trkpt lat="44.54146" lon="1.73829">
        <ele>269</ele>
        <time>2014-07-20T08:50:10Z</time>
      </trkpt>
      <trkpt lat="44.54147" lon="1.73826">
        <ele>269</ele>
        <time>2014-07-20T08:50:11Z</time>
      </trkpt>
      <trkpt lat="44.54147" lon="1.73824">
        <ele>269</ele>
        <time>2014-07-20T08:50:12Z</time>
      </trkpt>
      <trkpt lat="44.54148" lon="1.73821">
        <ele>269</ele>
        <time>2014-07-20T08:50:13Z</time>
      </trkpt>
      <trkpt lat="44.54148" lon="1.73817">
        <ele>270</ele>
        <time>2014-07-20T08:50:14Z</time>
      </trkpt>
      <trkpt lat="44.54159" lon="1.73764">
        <ele>271</ele>
        <time>2014-07-20T08:50:29Z</time>
      </trkpt>
      <trkpt lat="44.54171" lon="1.73742">
        <ele>270</ele>
        <time>2014-07-20T08:50:39Z</time>
      </trkpt>
      <trkpt lat="44.54172" lon="1.73741">
        <ele>270</ele>
        <time>2014-07-20T08:50:40Z</time>
      </trkpt>
      <trkpt lat="44.54174" lon="1.73741">
        <ele>270</ele>
        <time>2014-07-20T08:50:41Z</time>
      </trkpt>
      <trkpt lat="44.54175" lon="1.7374">
        <ele>270</ele>
        <time>2014-07-20T08:50:42Z</time>
      </trkpt>
      <trkpt lat="44.54177" lon="1.73738">
        <ele>270</ele>
        <time>2014-07-20T08:50:43Z</time>
      </trkpt>
      <trkpt lat="44.54178" lon="1.73735">
        <ele>270</ele>
        <time>2014-07-20T08:50:44Z</time>
      </trkpt>
      <trkpt lat="44.54181" lon="1.73734">
        <ele>270</ele>
        <time>2014-07-20T08:50:45Z</time>
      </trkpt>
      <trkpt lat="44.54183" lon="1.73732">
        <ele>270</ele>
        <time>2014-07-20T08:50:46Z</time>
      </trkpt>
      <trkpt lat="44.54185" lon="1.7373">
        <ele>270</ele>
        <time>2014-07-20T08:50:47Z</time>
      </trkpt>
      <trkpt lat="44.54188" lon="1.73728">
        <ele>270</ele>
        <time>2014-07-20T08:50:48Z</time>
      </trkpt>
      <trkpt lat="44.54233" lon="1.73709">
        <ele>271</ele>
        <time>2014-07-20T08:51:03Z</time>
      </trkpt>
      <trkpt lat="44.54273" lon="1.73702">
        <ele>272</ele>
        <time>2014-07-20T08:51:16Z</time>
      </trkpt>
      <trkpt lat="44.54307" lon="1.7369">
        <ele>274</ele>
        <time>2014-07-20T08:51:28Z</time>
      </trkpt>
      <trkpt lat="44.5435" lon="1.73646">
        <ele>273</ele>
        <time>2014-07-20T08:51:44Z</time>
      </trkpt>
      <trkpt lat="44.54354" lon="1.73644">
        <ele>272</ele>
        <time>2014-07-20T08:51:45Z</time>
      </trkpt>
      <trkpt lat="44.54358" lon="1.73642">
        <ele>272</ele>
        <time>2014-07-20T08:51:46Z</time>
      </trkpt>
      <trkpt lat="44.54361" lon="1.73643">
        <ele>272</ele>
        <time>2014-07-20T08:51:47Z</time>
      </trkpt>
      <trkpt lat="44.54365" lon="1.73645">
        <ele>272</ele>
        <time>2014-07-20T08:51:48Z</time>
      </trkpt>
      <trkpt lat="44.54367" lon="1.73648">
        <ele>272</ele>
        <time>2014-07-20T08:51:49Z</time>
      </trkpt>
      <trkpt lat="44.54369" lon="1.7365">
        <ele>272</ele>
        <time>2014-07-20T08:51:50Z</time>
      </trkpt>
      <trkpt lat="44.54374" lon="1.73659">
        <ele>274</ele>
        <time>2014-07-20T08:51:53Z</time>
      </trkpt>
      <trkpt lat="44.54374" lon="1.73682">
        <ele>277</ele>
        <time>2014-07-20T08:52:01Z</time>
      </trkpt>
      <trkpt lat="44.54374" lon="1.73716">
        <ele>280</ele>
        <time>2014-07-20T08:52:12Z</time>
      </trkpt>
      <trkpt lat="44.54373" lon="1.7375">
        <ele>282</ele>
        <time>2014-07-20T08:52:23Z</time>
      </trkpt>
      <trkpt lat="44.54379" lon="1.73803">
        <ele>285</ele>
        <time>2014-07-20T08:52:38Z</time>
      </trkpt>
      <trkpt lat="44.54393" lon="1.73824">
        <ele>287</ele>
        <time>2014-07-20T08:52:49Z</time>
      </trkpt>
      <trkpt lat="44.54422" lon="1.73818">
        <ele>289</ele>
        <time>2014-07-20T08:53:02Z</time>
      </trkpt>
      <trkpt lat="44.54424" lon="1.73817">
        <ele>289</ele>
        <time>2014-07-20T08:53:03Z</time>
      </trkpt>
      <trkpt lat="44.54426" lon="1.73817">
        <ele>289</ele>
        <time>2014-07-20T08:53:04Z</time>
      </trkpt>
      <trkpt lat="44.54428" lon="1.73816">
        <ele>289</ele>
        <time>2014-07-20T08:53:05Z</time>
      </trkpt>
      <trkpt lat="44.5443" lon="1.73816">
        <ele>289</ele>
        <time>2014-07-20T08:53:06Z</time>
      </trkpt>
      <trkpt lat="44.54432" lon="1.73816">
        <ele>289</ele>
        <time>2014-07-20T08:53:07Z</time>
      </trkpt>
      <trkpt lat="44.54434" lon="1.73817">
        <ele>289</ele>
        <time>2014-07-20T08:53:08Z</time>
      </trkpt>
      <trkpt lat="44.54436" lon="1.73818">
        <ele>289</ele>
        <time>2014-07-20T08:53:09Z</time>
      </trkpt>
      <trkpt lat="44.54438" lon="1.7382">
        <ele>289</ele>
        <time>2014-07-20T08:53:10Z</time>
      </trkpt>
      <trkpt lat="44.5444" lon="1.73822">
        <ele>289</ele>
        <time>2014-07-20T08:53:11Z</time>
      </trkpt>
      <trkpt lat="44.54442" lon="1.73824">
        <ele>289</ele>
        <time>2014-07-20T08:53:12Z</time>
      </trkpt>
      <trkpt lat="44.54443" lon="1.73826">
        <ele>289</ele>
        <time>2014-07-20T08:53:13Z</time>
      </trkpt>
      <trkpt lat="44.54445" lon="1.73828">
        <ele>290</ele>
        <time>2014-07-20T08:53:14Z</time>
      </trkpt>
      <trkpt lat="44.54464" lon="1.73869">
        <ele>291</ele>
        <time>2014-07-20T08:53:30Z</time>
      </trkpt>
      <trkpt lat="44.54488" lon="1.7388">
        <ele>291</ele>
        <time>2014-07-20T08:53:41Z</time>
      </trkpt>
      <trkpt lat="44.54514" lon="1.73885">
        <ele>293</ele>
        <time>2014-07-20T08:53:55Z</time>
      </trkpt>
      <trkpt lat="44.54542" lon="1.7389">
        <ele>295</ele>
        <time>2014-07-20T08:54:09Z</time>
      </trkpt>
      <trkpt lat="44.54574" lon="1.73901">
        <ele>296</ele>
        <time>2014-07-20T08:54:24Z</time>
      </trkpt>
      <trkpt lat="44.54599" lon="1.73924">
        <ele>297</ele>
        <time>2014-07-20T08:54:39Z</time>
      </trkpt>
      <trkpt lat="44.54631" lon="1.7396">
        <ele>297</ele>
        <time>2014-07-20T08:54:54Z</time>
      </trkpt>
      <trkpt lat="44.54665" lon="1.7398">
        <ele>298</ele>
        <time>2014-07-20T08:55:08Z</time>
      </trkpt>
      <trkpt lat="44.54687" lon="1.74006">
        <ele>298</ele>
        <time>2014-07-20T08:55:20Z</time>
      </trkpt>
      <trkpt lat="44.54717" lon="1.74059">
        <ele>295</ele>
        <time>2014-07-20T08:55:34Z</time>
      </trkpt>
      <trkpt lat="44.54719" lon="1.74065">
        <ele>294</ele>
        <time>2014-07-20T08:55:35Z</time>
      </trkpt>
      <trkpt lat="44.54733" lon="1.741">
        <ele>291</ele>
        <time>2014-07-20T08:55:41Z</time>
      </trkpt>
      <trkpt lat="44.54733" lon="1.74107">
        <ele>291</ele>
        <time>2014-07-20T08:55:42Z</time>
      </trkpt>
      <trkpt lat="44.54733" lon="1.74114">
        <ele>291</ele>
        <time>2014-07-20T08:55:43Z</time>
      </trkpt>
      <trkpt lat="44.54732" lon="1.74121">
        <ele>291</ele>
        <time>2014-07-20T08:55:44Z</time>
      </trkpt>
      <trkpt lat="44.5473" lon="1.74128">
        <ele>290</ele>
        <time>2014-07-20T08:55:45Z</time>
      </trkpt>
      <trkpt lat="44.54727" lon="1.74134">
        <ele>291</ele>
        <time>2014-07-20T08:55:46Z</time>
      </trkpt>
      <trkpt lat="44.54725" lon="1.7414">
        <ele>291</ele>
        <time>2014-07-20T08:55:47Z</time>
      </trkpt>
      <trkpt lat="44.54722" lon="1.74145">
        <ele>290</ele>
        <time>2014-07-20T08:55:48Z</time>
      </trkpt>
      <trkpt lat="44.54718" lon="1.7415">
        <ele>289</ele>
        <time>2014-07-20T08:55:49Z</time>
      </trkpt>
      <trkpt lat="44.54714" lon="1.74153">
        <ele>289</ele>
        <time>2014-07-20T08:55:50Z</time>
      </trkpt>
      <trkpt lat="44.54696" lon="1.74171">
        <ele>289</ele>
        <time>2014-07-20T08:55:56Z</time>
      </trkpt>
      <trkpt lat="44.54696" lon="1.74174">
        <ele>290</ele>
        <time>2014-07-20T08:55:57Z</time>
      </trkpt>
      <trkpt lat="44.54697" lon="1.74178">
        <ele>289</ele>
        <time>2014-07-20T08:55:58Z</time>
      </trkpt>
      <trkpt lat="44.54698" lon="1.74182">
        <ele>289</ele>
        <time>2014-07-20T08:55:59Z</time>
      </trkpt>
      <trkpt lat="44.547" lon="1.74186">
        <ele>289</ele>
        <time>2014-07-20T08:56:00Z</time>
      </trkpt>
      <trkpt lat="44.54712" lon="1.74219">
        <ele>286</ele>
        <time>2014-07-20T08:56:07Z</time>
      </trkpt>
      <trkpt lat="44.54725" lon="1.74249">
        <ele>282</ele>
        <time>2014-07-20T08:56:14Z</time>
      </trkpt>
      <trkpt lat="44.54727" lon="1.74254">
        <ele>282</ele>
        <time>2014-07-20T08:56:15Z</time>
      </trkpt>
      <trkpt lat="44.54737" lon="1.74284">
        <ele>279</ele>
        <time>2014-07-20T08:56:19Z</time>
      </trkpt>
      <trkpt lat="44.54747" lon="1.74305">
        <ele>276</ele>
        <time>2014-07-20T08:56:22Z</time>
      </trkpt>
      <trkpt lat="44.5476" lon="1.74335">
        <ele>271</ele>
        <time>2014-07-20T08:56:26Z</time>
      </trkpt>
      <trkpt lat="44.54762" lon="1.74343">
        <ele>269</ele>
        <time>2014-07-20T08:56:27Z</time>
      </trkpt>
      <trkpt lat="44.54765" lon="1.7435">
        <ele>269</ele>
        <time>2014-07-20T08:56:28Z</time>
      </trkpt>
      <trkpt lat="44.54768" lon="1.74355">
        <ele>268</ele>
        <time>2014-07-20T08:56:29Z</time>
      </trkpt>
      <trkpt lat="44.54771" lon="1.74358">
        <ele>267</ele>
        <time>2014-07-20T08:56:30Z</time>
      </trkpt>
      <trkpt lat="44.54776" lon="1.74359">
        <ele>267</ele>
        <time>2014-07-20T08:56:31Z</time>
      </trkpt>
      <trkpt lat="44.54781" lon="1.7436">
        <ele>266</ele>
        <time>2014-07-20T08:56:32Z</time>
      </trkpt>
      <trkpt lat="44.54805" lon="1.74364">
        <ele>263</ele>
        <time>2014-07-20T08:56:36Z</time>
      </trkpt>
      <trkpt lat="44.54816" lon="1.74369">
        <ele>261</ele>
        <time>2014-07-20T08:56:39Z</time>
      </trkpt>
      <trkpt lat="44.54817" lon="1.74372">
        <ele>260</ele>
        <time>2014-07-20T08:56:40Z</time>
      </trkpt>
      <trkpt lat="44.54817" lon="1.74377">
        <ele>260</ele>
        <time>2014-07-20T08:56:41Z</time>
      </trkpt>
      <trkpt lat="44.54815" lon="1.74384">
        <ele>260</ele>
        <time>2014-07-20T08:56:42Z</time>
      </trkpt>
      <trkpt lat="44.54813" lon="1.7439">
        <ele>259</ele>
        <time>2014-07-20T08:56:43Z</time>
      </trkpt>
      <trkpt lat="44.54804" lon="1.74423">
        <ele>257</ele>
        <time>2014-07-20T08:56:47Z</time>
      </trkpt>
      <trkpt lat="44.54802" lon="1.74431">
        <ele>256</ele>
        <time>2014-07-20T08:56:48Z</time>
      </trkpt>
      <trkpt lat="44.54802" lon="1.74438">
        <ele>255</ele>
        <time>2014-07-20T08:56:49Z</time>
      </trkpt>
      <trkpt lat="44.54804" lon="1.74443">
        <ele>254</ele>
        <time>2014-07-20T08:56:50Z</time>
      </trkpt>
      <trkpt lat="44.54808" lon="1.74447">
        <ele>253</ele>
        <time>2014-07-20T08:56:51Z</time>
      </trkpt>
      <trkpt lat="44.54814" lon="1.74451">
        <ele>252</ele>
        <time>2014-07-20T08:56:52Z</time>
      </trkpt>
      <trkpt lat="44.54834" lon="1.74464">
        <ele>250</ele>
        <time>2014-07-20T08:56:55Z</time>
      </trkpt>
      <trkpt lat="44.54841" lon="1.7447">
        <ele>249</ele>
        <time>2014-07-20T08:56:56Z</time>
      </trkpt>
      <trkpt lat="44.54848" lon="1.74477">
        <ele>247</ele>
        <time>2014-07-20T08:56:57Z</time>
      </trkpt>
      <trkpt lat="44.54872" lon="1.74506">
        <ele>242</ele>
        <time>2014-07-20T08:57:00Z</time>
      </trkpt>
      <trkpt lat="44.54884" lon="1.74522">
        <ele>239</ele>
        <time>2014-07-20T08:57:02Z</time>
      </trkpt>
      <trkpt lat="44.54893" lon="1.74534">
        <ele>235</ele>
        <time>2014-07-20T08:57:05Z</time>
      </trkpt>
      <trkpt lat="44.54893" lon="1.74534">
        <ele>235</ele>
        <time>2014-07-20T08:57:06Z</time>
      </trkpt>
      <trkpt lat="44.54896" lon="1.74537">
        <ele>235</ele>
        <time>2014-07-20T08:57:19Z</time>
      </trkpt>
      <trkpt lat="44.54898" lon="1.74538">
        <ele>234</ele>
        <time>2014-07-20T08:57:50Z</time>
      </trkpt>
      <trkpt lat="44.54898" lon="1.74538">
        <ele>234</ele>
        <time>2014-07-20T08:58:29Z</time>
      </trkpt>
      <trkpt lat="44.54898" lon="1.74537">
        <ele>235</ele>
        <time>2014-07-20T08:59:04Z</time>
      </trkpt>
      <trkpt lat="44.54902" lon="1.74537">
        <ele>235</ele>
        <time>2014-07-20T08:59:49Z</time>
      </trkpt>
      <trkpt lat="44.54902" lon="1.74534">
        <ele>234</ele>
        <time>2014-07-20T09:00:21Z</time>
      </trkpt>
      <trkpt lat="44.54902" lon="1.74534">
        <ele>234</ele>
        <time>2014-07-20T09:01:00Z</time>
      </trkpt>
      <trkpt lat="44.54902" lon="1.74535">
        <ele>234</ele>
        <time>2014-07-20T09:01:41Z</time>
      </trkpt>
      <trkpt lat="44.549" lon="1.74537">
        <ele>234</ele>
        <time>2014-07-20T09:02:22Z</time>
      </trkpt>
      <trkpt lat="44.549" lon="1.74538">
        <ele>234</ele>
        <time>2014-07-20T09:02:45Z</time>
      </trkpt>
      <trkpt lat="44.54901" lon="1.7454">
        <ele>234</ele>
        <time>2014-07-20T09:02:46Z</time>
      </trkpt>
      <trkpt lat="44.54902" lon="1.74542">
        <ele>233</ele>
        <time>2014-07-20T09:02:47Z</time>
      </trkpt>
      <trkpt lat="44.54909" lon="1.74555">
        <ele>231</ele>
        <time>2014-07-20T09:02:51Z</time>
      </trkpt>
      <trkpt lat="44.54913" lon="1.74556">
        <ele>230</ele>
        <time>2014-07-20T09:02:53Z</time>
      </trkpt>
      <trkpt lat="44.54914" lon="1.74555">
        <ele>230</ele>
        <time>2014-07-20T09:02:54Z</time>
      </trkpt>
      <trkpt lat="44.54917" lon="1.74554">
        <ele>230</ele>
        <time>2014-07-20T09:02:55Z</time>
      </trkpt>
      <trkpt lat="44.5492" lon="1.74551">
        <ele>229</ele>
        <time>2014-07-20T09:02:56Z</time>
      </trkpt>
      <trkpt lat="44.54924" lon="1.74548">
        <ele>229</ele>
        <time>2014-07-20T09:02:57Z</time>
      </trkpt>
      <trkpt lat="44.54944" lon="1.74531">
        <ele>226</ele>
        <time>2014-07-20T09:03:01Z</time>
      </trkpt>
      <trkpt lat="44.54958" lon="1.74517">
        <ele>224</ele>
        <time>2014-07-20T09:03:03Z</time>
      </trkpt>
      <trkpt lat="44.54965" lon="1.74509">
        <ele>223</ele>
        <time>2014-07-20T09:03:04Z</time>
      </trkpt>
      <trkpt lat="44.54979" lon="1.74495">
        <ele>220</ele>
        <time>2014-07-20T09:03:07Z</time>
      </trkpt>
      <trkpt lat="44.54982" lon="1.74497">
        <ele>220</ele>
        <time>2014-07-20T09:03:08Z</time>
      </trkpt>
      <trkpt lat="44.54983" lon="1.745">
        <ele>219</ele>
        <time>2014-07-20T09:03:09Z</time>
      </trkpt>
      <trkpt lat="44.54982" lon="1.74505">
        <ele>218</ele>
        <time>2014-07-20T09:03:10Z</time>
      </trkpt>
      <trkpt lat="44.54981" lon="1.74511">
        <ele>218</ele>
        <time>2014-07-20T09:03:11Z</time>
      </trkpt>
      <trkpt lat="44.54979" lon="1.74518">
        <ele>216</ele>
        <time>2014-07-20T09:03:12Z</time>
      </trkpt>
      <trkpt lat="44.54973" lon="1.74558">
        <ele>214</ele>
        <time>2014-07-20T09:03:16Z</time>
      </trkpt>
      <trkpt lat="44.54973" lon="1.74572">
        <ele>212</ele>
        <time>2014-07-20T09:03:17Z</time>
      </trkpt>
      <trkpt lat="44.54973" lon="1.74614">
        <ele>207</ele>
        <time>2014-07-20T09:03:20Z</time>
      </trkpt>
      <trkpt lat="44.54973" lon="1.74639">
        <ele>203</ele>
        <time>2014-07-20T09:03:22Z</time>
      </trkpt>
      <trkpt lat="44.54972" lon="1.74648">
        <ele>201</ele>
        <time>2014-07-20T09:03:23Z</time>
      </trkpt>
      <trkpt lat="44.5497" lon="1.74656">
        <ele>200</ele>
        <time>2014-07-20T09:03:24Z</time>
      </trkpt>
      <trkpt lat="44.54966" lon="1.74663">
        <ele>199</ele>
        <time>2014-07-20T09:03:25Z</time>
      </trkpt>
      <trkpt lat="44.54962" lon="1.7467">
        <ele>199</ele>
        <time>2014-07-20T09:03:26Z</time>
      </trkpt>
      <trkpt lat="44.54951" lon="1.74685">
        <ele>196</ele>
        <time>2014-07-20T09:03:28Z</time>
      </trkpt>
      <trkpt lat="44.54934" lon="1.74703">
        <ele>192</ele>
        <time>2014-07-20T09:03:31Z</time>
      </trkpt>
      <trkpt lat="44.54931" lon="1.74707">
        <ele>191</ele>
        <time>2014-07-20T09:03:32Z</time>
      </trkpt>
      <trkpt lat="44.54929" lon="1.74712">
        <ele>190</ele>
        <time>2014-07-20T09:03:33Z</time>
      </trkpt>
      <trkpt lat="44.5493" lon="1.74714">
        <ele>190</ele>
        <time>2014-07-20T09:03:34Z</time>
      </trkpt>
      <trkpt lat="44.54932" lon="1.74715">
        <ele>190</ele>
        <time>2014-07-20T09:03:35Z</time>
      </trkpt>
      <trkpt lat="44.54933" lon="1.74715">
        <ele>189</ele>
        <time>2014-07-20T09:03:36Z</time>
      </trkpt>
      <trkpt lat="44.54936" lon="1.74715">
        <ele>189</ele>
        <time>2014-07-20T09:03:37Z</time>
      </trkpt>
      <trkpt lat="44.54939" lon="1.74716">
        <ele>188</ele>
        <time>2014-07-20T09:03:38Z</time>
      </trkpt>
      <trkpt lat="44.54946" lon="1.74714">
        <ele>188</ele>
        <time>2014-07-20T09:03:39Z</time>
      </trkpt>
      <trkpt lat="44.54952" lon="1.74713">
        <ele>187</ele>
        <time>2014-07-20T09:03:40Z</time>
      </trkpt>
      <trkpt lat="44.54973" lon="1.74713">
        <ele>184</ele>
        <time>2014-07-20T09:03:44Z</time>
      </trkpt>
      <trkpt lat="44.54983" lon="1.7471">
        <ele>182</ele>
        <time>2014-07-20T09:03:46Z</time>
      </trkpt>
      <trkpt lat="44.54987" lon="1.7471">
        <ele>181</ele>
        <time>2014-07-20T09:03:47Z</time>
      </trkpt>
      <trkpt lat="44.5499" lon="1.74711">
        <ele>179</ele>
        <time>2014-07-20T09:03:48Z</time>
      </trkpt>
      <trkpt lat="44.54991" lon="1.74713">
        <ele>179</ele>
        <time>2014-07-20T09:03:49Z</time>
      </trkpt>
      <trkpt lat="44.54991" lon="1.74716">
        <ele>179</ele>
        <time>2014-07-20T09:03:50Z</time>
      </trkpt>
      <trkpt lat="44.54991" lon="1.74718">
        <ele>179</ele>
        <time>2014-07-20T09:03:51Z</time>
      </trkpt>
      <trkpt lat="44.5499" lon="1.7472">
        <ele>178</ele>
        <time>2014-07-20T09:03:52Z</time>
      </trkpt>
      <trkpt lat="44.54989" lon="1.74722">
        <ele>178</ele>
        <time>2014-07-20T09:03:53Z</time>
      </trkpt>
      <trkpt lat="44.54978" lon="1.74735">
        <ele>177</ele>
        <time>2014-07-20T09:04:03Z</time>
      </trkpt>
      <trkpt lat="44.54975" lon="1.74739">
        <ele>176</ele>
        <time>2014-07-20T09:04:04Z</time>
      </trkpt>
      <trkpt lat="44.54971" lon="1.74744">
        <ele>175</ele>
        <time>2014-07-20T09:04:05Z</time>
      </trkpt>
      <trkpt lat="44.54969" lon="1.74749">
        <ele>175</ele>
        <time>2014-07-20T09:04:06Z</time>
      </trkpt>
      <trkpt lat="44.54968" lon="1.74755">
        <ele>174</ele>
        <time>2014-07-20T09:04:07Z</time>
      </trkpt>
      <trkpt lat="44.54967" lon="1.74762">
        <ele>174</ele>
        <time>2014-07-20T09:04:08Z</time>
      </trkpt>
      <trkpt lat="44.54966" lon="1.74768">
        <ele>173</ele>
        <time>2014-07-20T09:04:09Z</time>
      </trkpt>
      <trkpt lat="44.54966" lon="1.74774">
        <ele>173</ele>
        <time>2014-07-20T09:04:10Z</time>
      </trkpt>
      <trkpt lat="44.54983" lon="1.748">
        <ele>175</ele>
        <time>2014-07-20T09:25:10Z</time>
      </trkpt>
      <trkpt lat="44.55035" lon="1.74799">
        <ele>176</ele>
        <time>2014-07-20T09:25:25Z</time>
      </trkpt>
      <trkpt lat="44.55075" lon="1.74778">
        <ele>176</ele>
        <time>2014-07-20T09:25:38Z</time>
      </trkpt>
      <trkpt lat="44.55078" lon="1.74779">
        <ele>176</ele>
        <time>2014-07-20T09:25:39Z</time>
      </trkpt>
      <trkpt lat="44.55087" lon="1.74789">
        <ele>178</ele>
        <time>2014-07-20T09:25:48Z</time>
      </trkpt>
      <trkpt lat="44.55088" lon="1.74789">
        <ele>178</ele>
        <time>2014-07-20T09:25:49Z</time>
      </trkpt>
      <trkpt lat="44.55094" lon="1.74792">
        <ele>180</ele>
        <time>2014-07-20T09:25:55Z</time>
      </trkpt>
      <trkpt lat="44.55095" lon="1.74792">
        <ele>180</ele>
        <time>2014-07-20T09:25:57Z</time>
      </trkpt>
      <trkpt lat="44.55106" lon="1.74794">
        <ele>183</ele>
        <time>2014-07-20T09:26:10Z</time>
      </trkpt>
      <trkpt lat="44.55114" lon="1.74794">
        <ele>185</ele>
        <time>2014-07-20T09:26:22Z</time>
      </trkpt>
      <trkpt lat="44.55125" lon="1.74801">
        <ele>188</ele>
        <time>2014-07-20T09:26:36Z</time>
      </trkpt>
      <trkpt lat="44.55127" lon="1.74804">
        <ele>188</ele>
        <time>2014-07-20T09:26:40Z</time>
      </trkpt>
      <trkpt lat="44.55135" lon="1.74809">
        <ele>190</ele>
        <time>2014-07-20T09:26:53Z</time>
      </trkpt>
      <trkpt lat="44.55138" lon="1.74812">
        <ele>191</ele>
        <time>2014-07-20T09:27:06Z</time>
      </trkpt>
      <trkpt lat="44.55141" lon="1.74813">
        <ele>191</ele>
        <time>2014-07-20T09:27:22Z</time>
      </trkpt>
      <trkpt lat="44.55141" lon="1.74813">
        <ele>192</ele>
        <time>2014-07-20T09:27:41Z</time>
      </trkpt>
      <trkpt lat="44.55147" lon="1.74818">
        <ele>194</ele>
        <time>2014-07-20T09:27:59Z</time>
      </trkpt>
      <trkpt lat="44.55153" lon="1.74818">
        <ele>197</ele>
        <time>2014-07-20T09:28:16Z</time>
      </trkpt>
      <trkpt lat="44.55144" lon="1.74815">
        <ele>197</ele>
        <time>2014-07-20T09:28:57Z</time>
      </trkpt>
      <trkpt lat="44.55146" lon="1.74815">
        <ele>197</ele>
        <time>2014-07-20T09:29:30Z</time>
      </trkpt>
      <trkpt lat="44.55149" lon="1.74824">
        <ele>197</ele>
        <time>2014-07-20T09:29:46Z</time>
      </trkpt>
      <trkpt lat="44.55146" lon="1.74831">
        <ele>199</ele>
        <time>2014-07-20T09:29:57Z</time>
      </trkpt>
      <trkpt lat="44.55142" lon="1.74837">
        <ele>201</ele>
        <time>2014-07-20T09:30:09Z</time>
      </trkpt>
      <trkpt lat="44.55137" lon="1.7484">
        <ele>202</ele>
        <time>2014-07-20T09:30:20Z</time>
      </trkpt>
      <trkpt lat="44.5513" lon="1.74841">
        <ele>204</ele>
        <time>2014-07-20T09:30:37Z</time>
      </trkpt>
      <trkpt lat="44.55127" lon="1.74842">
        <ele>205</ele>
        <time>2014-07-20T09:30:41Z</time>
      </trkpt>
      <trkpt lat="44.5512" lon="1.74844">
        <ele>206</ele>
        <time>2014-07-20T09:30:51Z</time>
      </trkpt>
      <trkpt lat="44.55115" lon="1.74849">
        <ele>208</ele>
        <time>2014-07-20T09:31:08Z</time>
      </trkpt>
      <trkpt lat="44.55108" lon="1.74855">
        <ele>211</ele>
        <time>2014-07-20T09:31:22Z</time>
      </trkpt>
      <trkpt lat="44.55099" lon="1.74861">
        <ele>214</ele>
        <time>2014-07-20T09:31:34Z</time>
      </trkpt>
      <trkpt lat="44.55096" lon="1.74865">
        <ele>215</ele>
        <time>2014-07-20T09:31:51Z</time>
      </trkpt>
      <trkpt lat="44.55088" lon="1.74867">
        <ele>217</ele>
        <time>2014-07-20T09:32:09Z</time>
      </trkpt>
      <trkpt lat="44.55079" lon="1.74876">
        <ele>220</ele>
        <time>2014-07-20T09:32:22Z</time>
      </trkpt>
      <trkpt lat="44.55078" lon="1.74879">
        <ele>221</ele>
        <time>2014-07-20T09:32:35Z</time>
      </trkpt>
      <trkpt lat="44.55082" lon="1.7488">
        <ele>222</ele>
        <time>2014-07-20T09:32:49Z</time>
      </trkpt>
      <trkpt lat="44.55081" lon="1.74878">
        <ele>225</ele>
        <time>2014-07-20T09:32:58Z</time>
      </trkpt>
      <trkpt lat="44.55081" lon="1.74878">
        <ele>221</ele>
        <time>2014-07-20T09:33:00Z</time>
      </trkpt>
      <trkpt lat="44.55081" lon="1.74878">
        <ele>224</ele>
        <time>2014-07-20T09:33:01Z</time>
      </trkpt>
      <trkpt lat="44.55084" lon="1.74879">
        <ele>223</ele>
        <time>2014-07-20T09:33:19Z</time>
      </trkpt>
      <trkpt lat="44.55085" lon="1.74877">
        <ele>220</ele>
        <time>2014-07-20T09:34:49Z</time>
      </trkpt>
      <trkpt lat="44.5509" lon="1.7489">
        <ele>220</ele>
        <time>2014-07-20T09:34:50Z</time>
      </trkpt>
      <trkpt lat="44.55089" lon="1.74887">
        <ele>220</ele>
        <time>2014-07-20T09:35:14Z</time>
      </trkpt>
      <trkpt lat="44.55086" lon="1.74885">
        <ele>220</ele>
        <time>2014-07-20T09:35:43Z</time>
      </trkpt>
      <trkpt lat="44.55088" lon="1.74884">
        <ele>225</ele>
        <time>2014-07-20T09:36:05Z</time>
      </trkpt>
      <trkpt lat="44.55088" lon="1.74883">
        <ele>221</ele>
        <time>2014-07-20T09:36:06Z</time>
      </trkpt>
      <trkpt lat="44.5509" lon="1.74885">
        <ele>221</ele>
        <time>2014-07-20T09:36:26Z</time>
      </trkpt>
      <trkpt lat="44.55087" lon="1.74883">
        <ele>220</ele>
        <time>2014-07-20T09:36:39Z</time>
      </trkpt>
      <trkpt lat="44.55087" lon="1.74882">
        <ele>224</ele>
        <time>2014-07-20T09:36:47Z</time>
      </trkpt>
      <trkpt lat="44.55087" lon="1.74882">
        <ele>220</ele>
        <time>2014-07-20T09:36:49Z</time>
      </trkpt>
      <trkpt lat="44.55087" lon="1.74883">
        <ele>220</ele>
        <time>2014-07-20T09:36:50Z</time>
      </trkpt>
      <trkpt lat="44.5509" lon="1.74884">
        <ele>222</ele>
        <time>2014-07-20T09:37:11Z</time>
      </trkpt>
      <trkpt lat="44.55097" lon="1.7489">
        <ele>224</ele>
        <time>2014-07-20T09:37:25Z</time>
      </trkpt>
      <trkpt lat="44.551" lon="1.74894">
        <ele>226</ele>
        <time>2014-07-20T09:37:37Z</time>
      </trkpt>
      <trkpt lat="44.55106" lon="1.74901">
        <ele>228</ele>
        <time>2014-07-20T09:37:53Z</time>
      </trkpt>
      <trkpt lat="44.55113" lon="1.74908">
        <ele>230</ele>
        <time>2014-07-20T09:38:07Z</time>
      </trkpt>
      <trkpt lat="44.55119" lon="1.74912">
        <ele>232</ele>
        <time>2014-07-20T09:38:20Z</time>
      </trkpt>
      <trkpt lat="44.55114" lon="1.74918">
        <ele>234</ele>
        <time>2014-07-20T09:38:33Z</time>
      </trkpt>
      <trkpt lat="44.55103" lon="1.74924">
        <ele>236</ele>
        <time>2014-07-20T09:38:50Z</time>
      </trkpt>
      <trkpt lat="44.55093" lon="1.7493">
        <ele>238</ele>
        <time>2014-07-20T09:39:04Z</time>
      </trkpt>
      <trkpt lat="44.55086" lon="1.74938">
        <ele>240</ele>
        <time>2014-07-20T09:39:19Z</time>
      </trkpt>
      <trkpt lat="44.55079" lon="1.74949">
        <ele>242</ele>
        <time>2014-07-20T09:39:34Z</time>
      </trkpt>
      <trkpt lat="44.55073" lon="1.74963">
        <ele>244</ele>
        <time>2014-07-20T09:39:50Z</time>
      </trkpt>
      <trkpt lat="44.55074" lon="1.74975">
        <ele>246</ele>
        <time>2014-07-20T09:40:03Z</time>
      </trkpt>
      <trkpt lat="44.55075" lon="1.74977">
        <ele>246</ele>
        <time>2014-07-20T09:40:05Z</time>
      </trkpt>
      <trkpt lat="44.55075" lon="1.7499">
        <ele>249</ele>
        <time>2014-07-20T09:40:20Z</time>
      </trkpt>
      <trkpt lat="44.55072" lon="1.75005">
        <ele>250</ele>
        <time>2014-07-20T09:40:33Z</time>
      </trkpt>
      <trkpt lat="44.5507" lon="1.75023">
        <ele>251</ele>
        <time>2014-07-20T09:40:47Z</time>
      </trkpt>
      <trkpt lat="44.55073" lon="1.75044">
        <ele>253</ele>
        <time>2014-07-20T09:41:02Z</time>
      </trkpt>
      <trkpt lat="44.55077" lon="1.75064">
        <ele>254</ele>
        <time>2014-07-20T09:41:17Z</time>
      </trkpt>
      <trkpt lat="44.55076" lon="1.75071">
        <ele>255</ele>
        <time>2014-07-20T09:41:21Z</time>
      </trkpt>
      <trkpt lat="44.55072" lon="1.75077">
        <ele>255</ele>
        <time>2014-07-20T09:41:26Z</time>
      </trkpt>
      <trkpt lat="44.55071" lon="1.75086">
        <ele>256</ele>
        <time>2014-07-20T09:41:32Z</time>
      </trkpt>
      <trkpt lat="44.55068" lon="1.75098">
        <ele>257</ele>
        <time>2014-07-20T09:41:40Z</time>
      </trkpt>
      <trkpt lat="44.55062" lon="1.75101">
        <ele>257</ele>
        <time>2014-07-20T09:41:55Z</time>
      </trkpt>
      <trkpt lat="44.55058" lon="1.75102">
        <ele>256</ele>
        <time>2014-07-20T09:42:15Z</time>
      </trkpt>
      <trkpt lat="44.55036" lon="1.75096">
        <ele>255</ele>
        <time>2014-07-20T09:42:23Z</time>
      </trkpt>
      <trkpt lat="44.54994" lon="1.75084">
        <ele>253</ele>
        <time>2014-07-20T09:42:33Z</time>
      </trkpt>
      <trkpt lat="44.5498" lon="1.75086">
        <ele>252</ele>
        <time>2014-07-20T09:42:36Z</time>
      </trkpt>
      <trkpt lat="44.54965" lon="1.75091">
        <ele>250</ele>
        <time>2014-07-20T09:42:39Z</time>
      </trkpt>
      <trkpt lat="44.54955" lon="1.75094">
        <ele>250</ele>
        <time>2014-07-20T09:42:41Z</time>
      </trkpt>
      <trkpt lat="44.5495" lon="1.75095">
        <ele>249</ele>
        <time>2014-07-20T09:42:42Z</time>
      </trkpt>
      <trkpt lat="44.54946" lon="1.75096">
        <ele>248</ele>
        <time>2014-07-20T09:42:43Z</time>
      </trkpt>
      <trkpt lat="44.54942" lon="1.75098">
        <ele>248</ele>
        <time>2014-07-20T09:42:44Z</time>
      </trkpt>
      <trkpt lat="44.5494" lon="1.751">
        <ele>247</ele>
        <time>2014-07-20T09:42:45Z</time>
      </trkpt>
      <trkpt lat="44.54937" lon="1.75103">
        <ele>247</ele>
        <time>2014-07-20T09:42:46Z</time>
      </trkpt>
      <trkpt lat="44.54935" lon="1.75105">
        <ele>246</ele>
        <time>2014-07-20T09:42:47Z</time>
      </trkpt>
      <trkpt lat="44.54933" lon="1.75108">
        <ele>247</ele>
        <time>2014-07-20T09:42:48Z</time>
      </trkpt>
      <trkpt lat="44.54931" lon="1.75112">
        <ele>247</ele>
        <time>2014-07-20T09:42:49Z</time>
      </trkpt>
      <trkpt lat="44.54927" lon="1.75116">
        <ele>247</ele>
        <time>2014-07-20T09:42:50Z</time>
      </trkpt>
      <trkpt lat="44.54924" lon="1.7512">
        <ele>247</ele>
        <time>2014-07-20T09:42:51Z</time>
      </trkpt>
      <trkpt lat="44.5492" lon="1.75125">
        <ele>247</ele>
        <time>2014-07-20T09:42:52Z</time>
      </trkpt>
      <trkpt lat="44.54917" lon="1.7513">
        <ele>248</ele>
        <time>2014-07-20T09:42:53Z</time>
      </trkpt>
      <trkpt lat="44.54914" lon="1.75135">
        <ele>247</ele>
        <time>2014-07-20T09:42:54Z</time>
      </trkpt>
      <trkpt lat="44.54911" lon="1.75138">
        <ele>247</ele>
        <time>2014-07-20T09:42:55Z</time>
      </trkpt>
      <trkpt lat="44.54909" lon="1.75141">
        <ele>247</ele>
        <time>2014-07-20T09:42:56Z</time>
      </trkpt>
      <trkpt lat="44.54878" lon="1.75178">
        <ele>246</ele>
        <time>2014-07-20T09:43:09Z</time>
      </trkpt>
      <trkpt lat="44.54855" lon="1.75216">
        <ele>246</ele>
        <time>2014-07-20T09:43:21Z</time>
      </trkpt>
      <trkpt lat="44.5484" lon="1.75222">
        <ele>246</ele>
        <time>2014-07-20T09:43:25Z</time>
      </trkpt>
      <trkpt lat="44.54836" lon="1.75222">
        <ele>245</ele>
        <time>2014-07-20T09:43:26Z</time>
      </trkpt>
      <trkpt lat="44.54812" lon="1.75218">
        <ele>247</ele>
        <time>2014-07-20T09:43:33Z</time>
      </trkpt>
      <trkpt lat="44.54782" lon="1.7521">
        <ele>248</ele>
        <time>2014-07-20T09:43:45Z</time>
      </trkpt>
      <trkpt lat="44.54744" lon="1.75183">
        <ele>248</ele>
        <time>2014-07-20T09:43:59Z</time>
      </trkpt>
      <trkpt lat="44.54719" lon="1.75157">
        <ele>247</ele>
        <time>2014-07-20T09:44:09Z</time>
      </trkpt>
      <trkpt lat="44.54685" lon="1.75143">
        <ele>246</ele>
        <time>2014-07-20T09:44:20Z</time>
      </trkpt>
      <trkpt lat="44.54631" lon="1.75127">
        <ele>245</ele>
        <time>2014-07-20T09:44:36Z</time>
      </trkpt>
      <trkpt lat="44.54596" lon="1.75129">
        <ele>247</ele>
        <time>2014-07-20T09:44:47Z</time>
      </trkpt>
      <trkpt lat="44.54568" lon="1.75138">
        <ele>250</ele>
        <time>2014-07-20T09:44:59Z</time>
      </trkpt>
      <trkpt lat="44.54555" lon="1.75145">
        <ele>251</ele>
        <time>2014-07-20T09:45:06Z</time>
      </trkpt>
      <trkpt lat="44.54554" lon="1.75146">
        <ele>251</ele>
        <time>2014-07-20T09:45:07Z</time>
      </trkpt>
      <trkpt lat="44.54528" lon="1.75164">
        <ele>253</ele>
        <time>2014-07-20T09:45:23Z</time>
      </trkpt>
      <trkpt lat="44.54525" lon="1.75166">
        <ele>254</ele>
        <time>2014-07-20T09:45:25Z</time>
      </trkpt>
      <trkpt lat="44.54524" lon="1.75167">
        <ele>254</ele>
        <time>2014-07-20T09:45:26Z</time>
      </trkpt>
      <trkpt lat="44.54522" lon="1.75168">
        <ele>254</ele>
        <time>2014-07-20T09:45:27Z</time>
      </trkpt>
      <trkpt lat="44.545" lon="1.75184">
        <ele>256</ele>
        <time>2014-07-20T09:45:42Z</time>
      </trkpt>
      <trkpt lat="44.54477" lon="1.75201">
        <ele>258</ele>
        <time>2014-07-20T09:45:57Z</time>
      </trkpt>
      <trkpt lat="44.54457" lon="1.75218">
        <ele>260</ele>
        <time>2014-07-20T09:46:11Z</time>
      </trkpt>
      <trkpt lat="44.54433" lon="1.75237">
        <ele>262</ele>
        <time>2014-07-20T09:46:27Z</time>
      </trkpt>
      <trkpt lat="44.54412" lon="1.75256">
        <ele>264</ele>
        <time>2014-07-20T09:46:42Z</time>
      </trkpt>
      <trkpt lat="44.54393" lon="1.75266">
        <ele>265</ele>
        <time>2014-07-20T09:46:54Z</time>
      </trkpt>
      <trkpt lat="44.5437" lon="1.75283">
        <ele>266</ele>
        <time>2014-07-20T09:47:09Z</time>
      </trkpt>
      <trkpt lat="44.54346" lon="1.75293">
        <ele>268</ele>
        <time>2014-07-20T09:47:22Z</time>
      </trkpt>
      <trkpt lat="44.54327" lon="1.75297">
        <ele>268</ele>
        <time>2014-07-20T09:47:32Z</time>
      </trkpt>
      <trkpt lat="44.54319" lon="1.75293">
        <ele>269</ele>
        <time>2014-07-20T09:47:37Z</time>
      </trkpt>
      <trkpt lat="44.54318" lon="1.75291">
        <ele>269</ele>
        <time>2014-07-20T09:47:38Z</time>
      </trkpt>
      <trkpt lat="44.54316" lon="1.75289">
        <ele>269</ele>
        <time>2014-07-20T09:47:39Z</time>
      </trkpt>
      <trkpt lat="44.54314" lon="1.75287">
        <ele>269</ele>
        <time>2014-07-20T09:47:40Z</time>
      </trkpt>
      <trkpt lat="44.54312" lon="1.75285">
        <ele>269</ele>
        <time>2014-07-20T09:47:41Z</time>
      </trkpt>
      <trkpt lat="44.5431" lon="1.75284">
        <ele>270</ele>
        <time>2014-07-20T09:47:42Z</time>
      </trkpt>
      <trkpt lat="44.54308" lon="1.75283">
        <ele>269</ele>
        <time>2014-07-20T09:47:43Z</time>
      </trkpt>
      <trkpt lat="44.54288" lon="1.75266">
        <ele>271</ele>
        <time>2014-07-20T09:47:55Z</time>
      </trkpt>
      <trkpt lat="44.54287" lon="1.75265">
        <ele>271</ele>
        <time>2014-07-20T09:47:56Z</time>
      </trkpt>
      <trkpt lat="44.54285" lon="1.75263">
        <ele>270</ele>
        <time>2014-07-20T09:47:57Z</time>
      </trkpt>
      <trkpt lat="44.54284" lon="1.75261">
        <ele>271</ele>
        <time>2014-07-20T09:47:58Z</time>
      </trkpt>
      <trkpt lat="44.54282" lon="1.75259">
        <ele>271</ele>
        <time>2014-07-20T09:47:59Z</time>
      </trkpt>
      <trkpt lat="44.54277" lon="1.75256">
        <ele>272</ele>
        <time>2014-07-20T09:48:02Z</time>
      </trkpt>
      <trkpt lat="44.54275" lon="1.75255">
        <ele>270</ele>
        <time>2014-07-20T09:48:03Z</time>
      </trkpt>
      <trkpt lat="44.54273" lon="1.75254">
        <ele>271</ele>
        <time>2014-07-20T09:48:04Z</time>
      </trkpt>
      <trkpt lat="44.54271" lon="1.75253">
        <ele>271</ele>
        <time>2014-07-20T09:48:06Z</time>
      </trkpt>
      <trkpt lat="44.54257" lon="1.75246">
        <ele>272</ele>
        <time>2014-07-20T09:48:16Z</time>
      </trkpt>
      <trkpt lat="44.54234" lon="1.75226">
        <ele>273</ele>
        <time>2014-07-20T09:48:32Z</time>
      </trkpt>
      <trkpt lat="44.54211" lon="1.75203">
        <ele>273</ele>
        <time>2014-07-20T09:48:45Z</time>
      </trkpt>
      <trkpt lat="44.5418" lon="1.75174">
        <ele>272</ele>
        <time>2014-07-20T09:48:57Z</time>
      </trkpt>
      <trkpt lat="44.54144" lon="1.75144">
        <ele>269</ele>
        <time>2014-07-20T09:49:10Z</time>
      </trkpt>
      <trkpt lat="44.5414" lon="1.7514">
        <ele>269</ele>
        <time>2014-07-20T09:49:11Z</time>
      </trkpt>
      <trkpt lat="44.54136" lon="1.75137">
        <ele>269</ele>
        <time>2014-07-20T09:49:12Z</time>
      </trkpt>
      <trkpt lat="44.54127" lon="1.75129">
        <ele>268</ele>
        <time>2014-07-20T09:49:14Z</time>
      </trkpt>
      <trkpt lat="44.54115" lon="1.75124">
        <ele>268</ele>
        <time>2014-07-20T09:49:16Z</time>
      </trkpt>
      <trkpt lat="44.5411" lon="1.75124">
        <ele>267</ele>
        <time>2014-07-20T09:49:17Z</time>
      </trkpt>
      <trkpt lat="44.54105" lon="1.75125">
        <ele>267</ele>
        <time>2014-07-20T09:49:18Z</time>
      </trkpt>
      <trkpt lat="44.54062" lon="1.75133">
        <ele>266</ele>
        <time>2014-07-20T09:49:27Z</time>
      </trkpt>
      <trkpt lat="44.54057" lon="1.75134">
        <ele>266</ele>
        <time>2014-07-20T09:49:28Z</time>
      </trkpt>
      <trkpt lat="44.5404" lon="1.75136">
        <ele>263</ele>
        <time>2014-07-20T09:49:33Z</time>
      </trkpt>
      <trkpt lat="44.54041" lon="1.75135">
        <ele>263</ele>
        <time>2014-07-20T09:50:03Z</time>
      </trkpt>
      <trkpt lat="44.54021" lon="1.75139">
        <ele>261</ele>
        <time>2014-07-20T09:50:28Z</time>
      </trkpt>
      <trkpt lat="44.54015" lon="1.7514">
        <ele>261</ele>
        <time>2014-07-20T09:50:29Z</time>
      </trkpt>
      <trkpt lat="44.53999" lon="1.75143">
        <ele>258</ele>
        <time>2014-07-20T09:50:32Z</time>
      </trkpt>
      <trkpt lat="44.53994" lon="1.75143">
        <ele>256</ele>
        <time>2014-07-20T09:50:33Z</time>
      </trkpt>
      <trkpt lat="44.53989" lon="1.75139">
        <ele>255</ele>
        <time>2014-07-20T09:50:34Z</time>
      </trkpt>
      <trkpt lat="44.53985" lon="1.75134">
        <ele>254</ele>
        <time>2014-07-20T09:50:35Z</time>
      </trkpt>
      <trkpt lat="44.53979" lon="1.75128">
        <ele>254</ele>
        <time>2014-07-20T09:50:36Z</time>
      </trkpt>
      <trkpt lat="44.53974" lon="1.75122">
        <ele>252</ele>
        <time>2014-07-20T09:50:37Z</time>
      </trkpt>
      <trkpt lat="44.53943" lon="1.75088">
        <ele>249</ele>
        <time>2014-07-20T09:50:42Z</time>
      </trkpt>
      <trkpt lat="44.53923" lon="1.75067">
        <ele>245</ele>
        <time>2014-07-20T09:50:45Z</time>
      </trkpt>
      <trkpt lat="44.53918" lon="1.75061">
        <ele>243</ele>
        <time>2014-07-20T09:50:46Z</time>
      </trkpt>
      <trkpt lat="44.53912" lon="1.75058">
        <ele>242</ele>
        <time>2014-07-20T09:50:47Z</time>
      </trkpt>
      <trkpt lat="44.53891" lon="1.75054">
        <ele>238</ele>
        <time>2014-07-20T09:50:50Z</time>
      </trkpt>
      <trkpt lat="44.53887" lon="1.75055">
        <ele>237</ele>
        <time>2014-07-20T09:50:51Z</time>
      </trkpt>
      <trkpt lat="44.53886" lon="1.75059">
        <ele>235</ele>
        <time>2014-07-20T09:50:52Z</time>
      </trkpt>
      <trkpt lat="44.53884" lon="1.75065">
        <ele>235</ele>
        <time>2014-07-20T09:50:53Z</time>
      </trkpt>
      <trkpt lat="44.53882" lon="1.75072">
        <ele>234</ele>
        <time>2014-07-20T09:50:54Z</time>
      </trkpt>
      <trkpt lat="44.5388" lon="1.75078">
        <ele>234</ele>
        <time>2014-07-20T09:50:55Z</time>
      </trkpt>
      <trkpt lat="44.5388" lon="1.75083">
        <ele>232</ele>
        <time>2014-07-20T09:50:56Z</time>
      </trkpt>
      <trkpt lat="44.53879" lon="1.75087">
        <ele>232</ele>
        <time>2014-07-20T09:50:57Z</time>
      </trkpt>
      <trkpt lat="44.53879" lon="1.75088">
        <ele>232</ele>
        <time>2014-07-20T09:51:07Z</time>
      </trkpt>
      <trkpt lat="44.53877" lon="1.75088">
        <ele>231</ele>
        <time>2014-07-20T09:51:09Z</time>
      </trkpt>
      <trkpt lat="44.53875" lon="1.75086">
        <ele>231</ele>
        <time>2014-07-20T09:51:10Z</time>
      </trkpt>
      <trkpt lat="44.53873" lon="1.75083">
        <ele>230</ele>
        <time>2014-07-20T09:51:11Z</time>
      </trkpt>
      <trkpt lat="44.53869" lon="1.75081">
        <ele>229</ele>
        <time>2014-07-20T09:51:12Z</time>
      </trkpt>
      <trkpt lat="44.53864" lon="1.7508">
        <ele>229</ele>
        <time>2014-07-20T09:51:13Z</time>
      </trkpt>
      <trkpt lat="44.53859" lon="1.7508">
        <ele>228</ele>
        <time>2014-07-20T09:51:14Z</time>
      </trkpt>
      <trkpt lat="44.53852" lon="1.75081">
        <ele>228</ele>
        <time>2014-07-20T09:51:15Z</time>
      </trkpt>
      <trkpt lat="44.53837" lon="1.75081">
        <ele>227</ele>
        <time>2014-07-20T09:51:17Z</time>
      </trkpt>
      <trkpt lat="44.53828" lon="1.7508">
        <ele>226</ele>
        <time>2014-07-20T09:51:18Z</time>
      </trkpt>
      <trkpt lat="44.53813" lon="1.75078">
        <ele>222</ele>
        <time>2014-07-20T09:51:20Z</time>
      </trkpt>
      <trkpt lat="44.53806" lon="1.75081">
        <ele>220</ele>
        <time>2014-07-20T09:51:21Z</time>
      </trkpt>
      <trkpt lat="44.538" lon="1.75086">
        <ele>220</ele>
        <time>2014-07-20T09:51:22Z</time>
      </trkpt>
      <trkpt lat="44.53786" lon="1.75095">
        <ele>218</ele>
        <time>2014-07-20T09:51:24Z</time>
      </trkpt>
      <trkpt lat="44.53778" lon="1.75096">
        <ele>218</ele>
        <time>2014-07-20T09:51:25Z</time>
      </trkpt>
      <trkpt lat="44.53754" lon="1.75098">
        <ele>215</ele>
        <time>2014-07-20T09:51:28Z</time>
      </trkpt>
      <trkpt lat="44.53749" lon="1.75099">
        <ele>213</ele>
        <time>2014-07-20T09:51:29Z</time>
      </trkpt>
      <trkpt lat="44.53748" lon="1.75098">
        <ele>212</ele>
        <time>2014-07-20T09:51:36Z</time>
      </trkpt>
      <trkpt lat="44.53747" lon="1.75097">
        <ele>212</ele>
        <time>2014-07-20T09:51:37Z</time>
      </trkpt>
      <trkpt lat="44.53745" lon="1.75096">
        <ele>212</ele>
        <time>2014-07-20T09:51:50Z</time>
      </trkpt>
      <trkpt lat="44.53742" lon="1.75096">
        <ele>212</ele>
        <time>2014-07-20T09:52:00Z</time>
      </trkpt>
      <trkpt lat="44.53741" lon="1.75096">
        <ele>212</ele>
        <time>2014-07-20T09:52:01Z</time>
      </trkpt>
      <trkpt lat="44.53739" lon="1.75097">
        <ele>212</ele>
        <time>2014-07-20T09:52:02Z</time>
      </trkpt>
      <trkpt lat="44.53737" lon="1.75097">
        <ele>211</ele>
        <time>2014-07-20T09:52:03Z</time>
      </trkpt>
      <trkpt lat="44.53735" lon="1.75097">
        <ele>212</ele>
        <time>2014-07-20T09:52:04Z</time>
      </trkpt>
      <trkpt lat="44.53732" lon="1.75096">
        <ele>212</ele>
        <time>2014-07-20T09:52:05Z</time>
      </trkpt>
      <trkpt lat="44.53699" lon="1.75108">
        <ele>212</ele>
        <time>2014-07-20T09:52:16Z</time>
      </trkpt>
      <trkpt lat="44.53661" lon="1.75126">
        <ele>210</ele>
        <time>2014-07-20T09:52:28Z</time>
      </trkpt>
      <trkpt lat="44.53619" lon="1.75147">
        <ele>207</ele>
        <time>2014-07-20T09:52:40Z</time>
      </trkpt>
      <trkpt lat="44.53606" lon="1.75152">
        <ele>207</ele>
        <time>2014-07-20T09:52:45Z</time>
      </trkpt>
      <trkpt lat="44.53604" lon="1.75152">
        <ele>207</ele>
        <time>2014-07-20T09:52:46Z</time>
      </trkpt>
      <trkpt lat="44.53598" lon="1.75152">
        <ele>208</ele>
        <time>2014-07-20T09:52:57Z</time>
      </trkpt>
      <trkpt lat="44.53593" lon="1.75149">
        <ele>208</ele>
        <time>2014-07-20T09:53:11Z</time>
      </trkpt>
      <trkpt lat="44.5359" lon="1.75147">
        <ele>208</ele>
        <time>2014-07-20T09:53:26Z</time>
      </trkpt>
      <trkpt lat="44.53589" lon="1.75146">
        <ele>208</ele>
        <time>2014-07-20T09:53:56Z</time>
      </trkpt>
      <trkpt lat="44.53582" lon="1.75145">
        <ele>208</ele>
        <time>2014-07-20T09:54:05Z</time>
      </trkpt>
      <trkpt lat="44.5358" lon="1.75146">
        <ele>208</ele>
        <time>2014-07-20T09:54:06Z</time>
      </trkpt>
      <trkpt lat="44.53578" lon="1.75147">
        <ele>208</ele>
        <time>2014-07-20T09:54:07Z</time>
      </trkpt>
      <trkpt lat="44.53576" lon="1.75148">
        <ele>208</ele>
        <time>2014-07-20T09:54:08Z</time>
      </trkpt>
      <trkpt lat="44.53573" lon="1.75149">
        <ele>207</ele>
        <time>2014-07-20T09:54:09Z</time>
      </trkpt>
      <trkpt lat="44.53571" lon="1.7515">
        <ele>207</ele>
        <time>2014-07-20T09:54:10Z</time>
      </trkpt>
      <trkpt lat="44.53568" lon="1.75152">
        <ele>208</ele>
        <time>2014-07-20T09:54:11Z</time>
      </trkpt>
      <trkpt lat="44.53564" lon="1.75154">
        <ele>207</ele>
        <time>2014-07-20T09:54:12Z</time>
      </trkpt>
      <trkpt lat="44.53556" lon="1.75158">
        <ele>208</ele>
        <time>2014-07-20T09:54:14Z</time>
      </trkpt>
      <trkpt lat="44.53552" lon="1.75161">
        <ele>207</ele>
        <time>2014-07-20T09:54:15Z</time>
      </trkpt>
      <trkpt lat="44.53548" lon="1.75163">
        <ele>208</ele>
        <time>2014-07-20T09:54:16Z</time>
      </trkpt>
      <trkpt lat="44.53518" lon="1.75186">
        <ele>209</ele>
        <time>2014-07-20T09:54:28Z</time>
      </trkpt>
      <trkpt lat="44.53505" lon="1.75196">
        <ele>210</ele>
        <time>2014-07-20T09:54:34Z</time>
      </trkpt>
      <trkpt lat="44.53503" lon="1.75197">
        <ele>210</ele>
        <time>2014-07-20T09:54:35Z</time>
      </trkpt>
      <trkpt lat="44.53501" lon="1.75197">
        <ele>210</ele>
        <time>2014-07-20T09:54:36Z</time>
      </trkpt>
      <trkpt lat="44.53499" lon="1.75199">
        <ele>210</ele>
        <time>2014-07-20T09:54:37Z</time>
      </trkpt>
      <trkpt lat="44.53498" lon="1.75201">
        <ele>210</ele>
        <time>2014-07-20T09:54:38Z</time>
      </trkpt>
      <trkpt lat="44.53497" lon="1.75203">
        <ele>210</ele>
        <time>2014-07-20T09:54:39Z</time>
      </trkpt>
      <trkpt lat="44.53496" lon="1.75206">
        <ele>210</ele>
        <time>2014-07-20T09:54:40Z</time>
      </trkpt>
      <trkpt lat="44.53495" lon="1.75208">
        <ele>210</ele>
        <time>2014-07-20T09:54:41Z</time>
      </trkpt>
      <trkpt lat="44.53494" lon="1.75211">
        <ele>210</ele>
        <time>2014-07-20T09:54:42Z</time>
      </trkpt>
      <trkpt lat="44.53494" lon="1.75214">
        <ele>210</ele>
        <time>2014-07-20T09:54:43Z</time>
      </trkpt>
      <trkpt lat="44.53494" lon="1.75217">
        <ele>209</ele>
        <time>2014-07-20T09:54:44Z</time>
      </trkpt>
      <trkpt lat="44.53493" lon="1.7522">
        <ele>210</ele>
        <time>2014-07-20T09:54:45Z</time>
      </trkpt>
      <trkpt lat="44.53492" lon="1.75224">
        <ele>209</ele>
        <time>2014-07-20T09:54:46Z</time>
      </trkpt>
      <trkpt lat="44.53491" lon="1.75229">
        <ele>209</ele>
        <time>2014-07-20T09:54:47Z</time>
      </trkpt>
      <trkpt lat="44.5349" lon="1.75233">
        <ele>210</ele>
        <time>2014-07-20T09:54:48Z</time>
      </trkpt>
      <trkpt lat="44.53489" lon="1.75236">
        <ele>209</ele>
        <time>2014-07-20T09:54:49Z</time>
      </trkpt>
      <trkpt lat="44.53487" lon="1.7524">
        <ele>209</ele>
        <time>2014-07-20T09:54:50Z</time>
      </trkpt>
      <trkpt lat="44.53476" lon="1.75266">
        <ele>207</ele>
        <time>2014-07-20T09:54:57Z</time>
      </trkpt>
      <trkpt lat="44.53475" lon="1.75272">
        <ele>206</ele>
        <time>2014-07-20T09:54:58Z</time>
      </trkpt>
      <trkpt lat="44.53474" lon="1.75279">
        <ele>206</ele>
        <time>2014-07-20T09:54:59Z</time>
      </trkpt>
      <trkpt lat="44.53476" lon="1.75287">
        <ele>205</ele>
        <time>2014-07-20T09:55:00Z</time>
      </trkpt>
      <trkpt lat="44.5348" lon="1.75294">
        <ele>205</ele>
        <time>2014-07-20T09:55:01Z</time>
      </trkpt>
      <trkpt lat="44.53484" lon="1.753">
        <ele>203</ele>
        <time>2014-07-20T09:55:02Z</time>
      </trkpt>
      <trkpt lat="44.53487" lon="1.75306">
        <ele>203</ele>
        <time>2014-07-20T09:55:03Z</time>
      </trkpt>
      <trkpt lat="44.5349" lon="1.75316">
        <ele>202</ele>
        <time>2014-07-20T09:55:05Z</time>
      </trkpt>
      <trkpt lat="44.53489" lon="1.75321">
        <ele>201</ele>
        <time>2014-07-20T09:55:06Z</time>
      </trkpt>
      <trkpt lat="44.53485" lon="1.75325">
        <ele>200</ele>
        <time>2014-07-20T09:55:07Z</time>
      </trkpt>
      <trkpt lat="44.5348" lon="1.75329">
        <ele>200</ele>
        <time>2014-07-20T09:55:08Z</time>
      </trkpt>
      <trkpt lat="44.53474" lon="1.75332">
        <ele>200</ele>
        <time>2014-07-20T09:55:09Z</time>
      </trkpt>
      <trkpt lat="44.5346" lon="1.75337">
        <ele>198</ele>
        <time>2014-07-20T09:55:11Z</time>
      </trkpt>
      <trkpt lat="44.53453" lon="1.75338">
        <ele>197</ele>
        <time>2014-07-20T09:55:12Z</time>
      </trkpt>
      <trkpt lat="44.53446" lon="1.75337">
        <ele>197</ele>
        <time>2014-07-20T09:55:13Z</time>
      </trkpt>
      <trkpt lat="44.53439" lon="1.75334">
        <ele>196</ele>
        <time>2014-07-20T09:55:14Z</time>
      </trkpt>
      <trkpt lat="44.53433" lon="1.75328">
        <ele>194</ele>
        <time>2014-07-20T09:55:15Z</time>
      </trkpt>
      <trkpt lat="44.53427" lon="1.75321">
        <ele>193</ele>
        <time>2014-07-20T09:55:16Z</time>
      </trkpt>
      <trkpt lat="44.53423" lon="1.75313">
        <ele>193</ele>
        <time>2014-07-20T09:55:17Z</time>
      </trkpt>
      <trkpt lat="44.53421" lon="1.75304">
        <ele>192</ele>
        <time>2014-07-20T09:55:18Z</time>
      </trkpt>
      <trkpt lat="44.53419" lon="1.75296">
        <ele>191</ele>
        <time>2014-07-20T09:55:19Z</time>
      </trkpt>
      <trkpt lat="44.53418" lon="1.75291">
        <ele>190</ele>
        <time>2014-07-20T09:55:20Z</time>
      </trkpt>
      <trkpt lat="44.53416" lon="1.7529">
        <ele>190</ele>
        <time>2014-07-20T09:55:21Z</time>
      </trkpt>
      <trkpt lat="44.53414" lon="1.75291">
        <ele>190</ele>
        <time>2014-07-20T09:55:22Z</time>
      </trkpt>
      <trkpt lat="44.53409" lon="1.75299">
        <ele>189</ele>
        <time>2014-07-20T09:55:25Z</time>
      </trkpt>
      <trkpt lat="44.53409" lon="1.75304">
        <ele>189</ele>
        <time>2014-07-20T09:55:26Z</time>
      </trkpt>
      <trkpt lat="44.53409" lon="1.75312">
        <ele>188</ele>
        <time>2014-07-20T09:55:27Z</time>
      </trkpt>
      <trkpt lat="44.53416" lon="1.75351">
        <ele>186</ele>
        <time>2014-07-20T09:55:31Z</time>
      </trkpt>
      <trkpt lat="44.53427" lon="1.75403">
        <ele>182</ele>
        <time>2014-07-20T09:55:35Z</time>
      </trkpt>
      <trkpt lat="44.5343" lon="1.75416">
        <ele>181</ele>
        <time>2014-07-20T09:55:36Z</time>
      </trkpt>
      <trkpt lat="44.53436" lon="1.7544">
        <ele>178</ele>
        <time>2014-07-20T09:55:38Z</time>
      </trkpt>
      <trkpt lat="44.53444" lon="1.75462">
        <ele>176</ele>
        <time>2014-07-20T09:55:40Z</time>
      </trkpt>
      <trkpt lat="44.53451" lon="1.75478">
        <ele>172</ele>
        <time>2014-07-20T09:55:42Z</time>
      </trkpt>
      <trkpt lat="44.53453" lon="1.75485">
        <ele>171</ele>
        <time>2014-07-20T09:55:43Z</time>
      </trkpt>
      <trkpt lat="44.53452" lon="1.75489">
        <ele>169</ele>
        <time>2014-07-20T09:55:44Z</time>
      </trkpt>
      <trkpt lat="44.5345" lon="1.75489">
        <ele>168</ele>
        <time>2014-07-20T09:55:45Z</time>
      </trkpt>
      <trkpt lat="44.53446" lon="1.75488">
        <ele>168</ele>
        <time>2014-07-20T09:55:46Z</time>
      </trkpt>
      <trkpt lat="44.53442" lon="1.75485">
        <ele>168</ele>
        <time>2014-07-20T09:55:47Z</time>
      </trkpt>
      <trkpt lat="44.53437" lon="1.75482">
        <ele>167</ele>
        <time>2014-07-20T09:55:48Z</time>
      </trkpt>
      <trkpt lat="44.53427" lon="1.75475">
        <ele>166</ele>
        <time>2014-07-20T09:55:50Z</time>
      </trkpt>
      <trkpt lat="44.53421" lon="1.75471">
        <ele>165</ele>
        <time>2014-07-20T09:55:51Z</time>
      </trkpt>
      <trkpt lat="44.53416" lon="1.75465">
        <ele>165</ele>
        <time>2014-07-20T09:55:52Z</time>
      </trkpt>
      <trkpt lat="44.53412" lon="1.75459">
        <ele>165</ele>
        <time>2014-07-20T09:55:53Z</time>
      </trkpt>
      <trkpt lat="44.534" lon="1.7544">
        <ele>162</ele>
        <time>2014-07-20T09:55:57Z</time>
      </trkpt>
      <trkpt lat="44.53399" lon="1.75439">
        <ele>161</ele>
        <time>2014-07-20T09:55:58Z</time>
      </trkpt>
      <trkpt lat="44.53391" lon="1.7542">
        <ele>162</ele>
        <time>2014-07-20T09:56:13Z</time>
      </trkpt>
      <trkpt lat="44.53373" lon="1.75342">
        <ele>162</ele>
        <time>2014-07-20T09:56:26Z</time>
      </trkpt>
      <trkpt lat="44.5336" lon="1.75307">
        <ele>161</ele>
        <time>2014-07-20T09:56:34Z</time>
      </trkpt>
      <trkpt lat="44.53355" lon="1.75306">
        <ele>162</ele>
        <time>2014-07-20T09:56:35Z</time>
      </trkpt>
      <trkpt lat="44.53351" lon="1.75306">
        <ele>161</ele>
        <time>2014-07-20T09:56:36Z</time>
      </trkpt>
      <trkpt lat="44.53302" lon="1.75312">
        <ele>159</ele>
        <time>2014-07-20T09:56:48Z</time>
      </trkpt>
      <trkpt lat="44.533" lon="1.75312">
        <ele>159</ele>
        <time>2014-07-20T09:56:58Z</time>
      </trkpt>
      <trkpt lat="44.5328" lon="1.75316">
        <ele>159</ele>
        <time>2014-07-20T09:57:07Z</time>
      </trkpt>
      <trkpt lat="44.53232" lon="1.75319">
        <ele>160</ele>
        <time>2014-07-20T09:57:21Z</time>
      </trkpt>
      <trkpt lat="44.53222" lon="1.75319">
        <ele>158</ele>
        <time>2014-07-20T09:57:32Z</time>
      </trkpt>
      <trkpt lat="44.53222" lon="1.75319">
        <ele>161</ele>
        <time>2014-07-20T09:57:33Z</time>
      </trkpt>
      <trkpt lat="44.5321" lon="1.75323">
        <ele>160</ele>
        <time>2014-07-20T09:57:50Z</time>
      </trkpt>
      <trkpt lat="44.53205" lon="1.75325">
        <ele>160</ele>
        <time>2014-07-20T09:57:53Z</time>
      </trkpt>
      <trkpt lat="44.53182" lon="1.75343">
        <ele>160</ele>
        <time>2014-07-20T09:58:04Z</time>
      </trkpt>
      <trkpt lat="44.5318" lon="1.75344">
        <ele>161</ele>
        <time>2014-07-20T09:58:05Z</time>
      </trkpt>
      <trkpt lat="44.53177" lon="1.75346">
        <ele>161</ele>
        <time>2014-07-20T09:58:06Z</time>
      </trkpt>
      <trkpt lat="44.53145" lon="1.75374">
        <ele>162</ele>
        <time>2014-07-20T09:58:21Z</time>
      </trkpt>
      <trkpt lat="44.53123" lon="1.75399">
        <ele>159</ele>
        <time>2014-07-20T09:58:34Z</time>
      </trkpt>
      <trkpt lat="44.53122" lon="1.75401">
        <ele>168</ele>
        <time>2014-07-20T09:58:35Z</time>
      </trkpt>
      <trkpt lat="44.53121" lon="1.75403">
        <ele>165</ele>
        <time>2014-07-20T09:58:36Z</time>
      </trkpt>
      <trkpt lat="44.53113" lon="1.7541">
        <ele>165</ele>
        <time>2014-07-20T09:58:41Z</time>
      </trkpt>
      <trkpt lat="44.53112" lon="1.75409">
        <ele>165</ele>
        <time>2014-07-20T09:58:42Z</time>
      </trkpt>
      <trkpt lat="44.53111" lon="1.75408">
        <ele>166</ele>
        <time>2014-07-20T09:58:43Z</time>
      </trkpt>
      <trkpt lat="44.53109" lon="1.75406">
        <ele>166</ele>
        <time>2014-07-20T09:58:44Z</time>
      </trkpt>
      <trkpt lat="44.53108" lon="1.75405">
        <ele>166</ele>
        <time>2014-07-20T09:58:45Z</time>
      </trkpt>
      <trkpt lat="44.53106" lon="1.75403">
        <ele>166</ele>
        <time>2014-07-20T09:58:46Z</time>
      </trkpt>
      <trkpt lat="44.53105" lon="1.754">
        <ele>166</ele>
        <time>2014-07-20T09:58:47Z</time>
      </trkpt>
      <trkpt lat="44.53104" lon="1.75398">
        <ele>166</ele>
        <time>2014-07-20T09:58:48Z</time>
      </trkpt>
      <trkpt lat="44.53102" lon="1.75395">
        <ele>167</ele>
        <time>2014-07-20T09:58:49Z</time>
      </trkpt>
      <trkpt lat="44.53101" lon="1.75393">
        <ele>166</ele>
        <time>2014-07-20T09:58:50Z</time>
      </trkpt>
      <trkpt lat="44.53099" lon="1.7539">
        <ele>167</ele>
        <time>2014-07-20T09:58:51Z</time>
      </trkpt>
      <trkpt lat="44.53097" lon="1.75388">
        <ele>167</ele>
        <time>2014-07-20T09:58:52Z</time>
      </trkpt>
      <trkpt lat="44.53081" lon="1.75381">
        <ele>167</ele>
        <time>2014-07-20T09:59:00Z</time>
      </trkpt>
      <trkpt lat="44.53066" lon="1.75352">
        <ele>166</ele>
        <time>2014-07-20T09:59:13Z</time>
      </trkpt>
      <trkpt lat="44.53055" lon="1.75324">
        <ele>166</ele>
        <time>2014-07-20T09:59:24Z</time>
      </trkpt>
      <trkpt lat="44.53054" lon="1.75323">
        <ele>166</ele>
        <time>2014-07-20T09:59:25Z</time>
      </trkpt>
      <trkpt lat="44.53054" lon="1.75326">
        <ele>166</ele>
        <time>2014-07-20T09:59:40Z</time>
      </trkpt>
      <trkpt lat="44.53058" lon="1.75325">
        <ele>166</ele>
        <time>2014-07-20T10:00:07Z</time>
      </trkpt>
      <trkpt lat="44.53054" lon="1.75326">
        <ele>167</ele>
        <time>2014-07-20T10:00:36Z</time>
      </trkpt>
      <trkpt lat="44.53055" lon="1.75325">
        <ele>166</ele>
        <time>2014-07-20T10:01:07Z</time>
      </trkpt>
      <trkpt lat="44.53054" lon="1.75327">
        <ele>166</ele>
        <time>2014-07-20T10:01:33Z</time>
      </trkpt>
      <trkpt lat="44.53054" lon="1.75328">
        <ele>167</ele>
        <time>2014-07-20T10:02:07Z</time>
      </trkpt>
      <trkpt lat="44.53054" lon="1.75326">
        <ele>166</ele>
        <time>2014-07-20T10:02:34Z</time>
      </trkpt>
      <trkpt lat="44.53057" lon="1.75323">
        <ele>166</ele>
        <time>2014-07-20T10:03:03Z</time>
      </trkpt>
      <trkpt lat="44.53057" lon="1.75325">
        <ele>167</ele>
        <time>2014-07-20T10:03:24Z</time>
      </trkpt>
      <trkpt lat="44.53054" lon="1.75322">
        <ele>166</ele>
        <time>2014-07-20T10:04:00Z</time>
      </trkpt>
      <trkpt lat="44.53051" lon="1.75323">
        <ele>167</ele>
        <time>2014-07-20T10:04:31Z</time>
      </trkpt>
      <trkpt lat="44.5305" lon="1.75328">
        <ele>167</ele>
        <time>2014-07-20T10:04:46Z</time>
      </trkpt>
      <trkpt lat="44.53047" lon="1.7533">
        <ele>167</ele>
        <time>2014-07-20T10:04:57Z</time>
      </trkpt>
      <trkpt lat="44.53046" lon="1.75329">
        <ele>168</ele>
        <time>2014-07-20T10:04:58Z</time>
      </trkpt>
      <trkpt lat="44.53028" lon="1.75341">
        <ele>169</ele>
        <time>2014-07-20T10:05:12Z</time>
      </trkpt>
      <trkpt lat="44.52992" lon="1.75361">
        <ele>171</ele>
        <time>2014-07-20T10:05:31Z</time>
      </trkpt>
      <trkpt lat="44.52954" lon="1.75366">
        <ele>172</ele>
        <time>2014-07-20T10:05:48Z</time>
      </trkpt>
      <trkpt lat="44.52931" lon="1.75339">
        <ele>176</ele>
        <time>2014-07-20T10:06:02Z</time>
      </trkpt>
      <trkpt lat="44.52911" lon="1.75293">
        <ele>174</ele>
        <time>2014-07-20T10:06:14Z</time>
      </trkpt>
      <trkpt lat="44.52908" lon="1.75284">
        <ele>174</ele>
        <time>2014-07-20T10:06:16Z</time>
      </trkpt>
      <trkpt lat="44.52895" lon="1.7526">
        <ele>173</ele>
        <time>2014-07-20T10:06:21Z</time>
      </trkpt>
      <trkpt lat="44.52893" lon="1.75254">
        <ele>172</ele>
        <time>2014-07-20T10:06:22Z</time>
      </trkpt>
      <trkpt lat="44.52891" lon="1.75249">
        <ele>172</ele>
        <time>2014-07-20T10:06:23Z</time>
      </trkpt>
      <trkpt lat="44.5289" lon="1.75244">
        <ele>171</ele>
        <time>2014-07-20T10:06:24Z</time>
      </trkpt>
      <trkpt lat="44.52888" lon="1.75239">
        <ele>171</ele>
        <time>2014-07-20T10:06:25Z</time>
      </trkpt>
      <trkpt lat="44.52887" lon="1.75235">
        <ele>171</ele>
        <time>2014-07-20T10:06:26Z</time>
      </trkpt>
      <trkpt lat="44.52877" lon="1.75203">
        <ele>170</ele>
        <time>2014-07-20T10:06:32Z</time>
      </trkpt>
      <trkpt lat="44.52875" lon="1.75197">
        <ele>170</ele>
        <time>2014-07-20T10:06:33Z</time>
      </trkpt>
      <trkpt lat="44.52845" lon="1.7513">
        <ele>169</ele>
        <time>2014-07-20T10:06:45Z</time>
      </trkpt>
      <trkpt lat="44.52801" lon="1.75048">
        <ele>167</ele>
        <time>2014-07-20T10:07:02Z</time>
      </trkpt>
      <trkpt lat="44.52766" lon="1.75001">
        <ele>166</ele>
        <time>2014-07-20T10:07:13Z</time>
      </trkpt>
      <trkpt lat="44.52762" lon="1.74998">
        <ele>166</ele>
        <time>2014-07-20T10:07:14Z</time>
      </trkpt>
      <trkpt lat="44.52759" lon="1.74994">
        <ele>166</ele>
        <time>2014-07-20T10:07:15Z</time>
      </trkpt>
      <trkpt lat="44.52717" lon="1.74951">
        <ele>167</ele>
        <time>2014-07-20T10:07:29Z</time>
      </trkpt>
      <trkpt lat="44.52675" lon="1.74907">
        <ele>165</ele>
        <time>2014-07-20T10:07:43Z</time>
      </trkpt>
      <trkpt lat="44.52627" lon="1.74855">
        <ele>163</ele>
        <time>2014-07-20T10:07:56Z</time>
      </trkpt>
      <trkpt lat="44.52569" lon="1.74792">
        <ele>163</ele>
        <time>2014-07-20T10:08:11Z</time>
      </trkpt>
      <trkpt lat="44.52556" lon="1.7477">
        <ele>164</ele>
        <time>2014-07-20T10:08:18Z</time>
      </trkpt>
      <trkpt lat="44.52557" lon="1.74766">
        <ele>165</ele>
        <time>2014-07-20T10:08:19Z</time>
      </trkpt>
      <trkpt lat="44.52559" lon="1.74763">
        <ele>165</ele>
        <time>2014-07-20T10:08:20Z</time>
      </trkpt>
      <trkpt lat="44.52561" lon="1.74759">
        <ele>165</ele>
        <time>2014-07-20T10:08:21Z</time>
      </trkpt>
      <trkpt lat="44.52563" lon="1.74756">
        <ele>166</ele>
        <time>2014-07-20T10:08:22Z</time>
      </trkpt>
      <trkpt lat="44.52564" lon="1.74753">
        <ele>166</ele>
        <time>2014-07-20T10:08:23Z</time>
      </trkpt>
      <trkpt lat="44.5259" lon="1.7472">
        <ele>165</ele>
        <time>2014-07-20T10:08:33Z</time>
      </trkpt>
      <trkpt lat="44.52595" lon="1.74712">
        <ele>166</ele>
        <time>2014-07-20T10:08:35Z</time>
      </trkpt>
      <trkpt lat="44.52598" lon="1.74707">
        <ele>165</ele>
        <time>2014-07-20T10:08:36Z</time>
      </trkpt>
      <trkpt lat="44.52645" lon="1.74624">
        <ele>164</ele>
        <time>2014-07-20T10:08:50Z</time>
      </trkpt>
      <trkpt lat="44.52651" lon="1.74611">
        <ele>163</ele>
        <time>2014-07-20T10:08:52Z</time>
      </trkpt>
      <trkpt lat="44.52672" lon="1.74536">
        <ele>161</ele>
        <time>2014-07-20T10:09:02Z</time>
      </trkpt>
      <trkpt lat="44.52678" lon="1.74515">
        <ele>161</ele>
        <time>2014-07-20T10:09:05Z</time>
      </trkpt>
      <trkpt lat="44.52679" lon="1.74508">
        <ele>160</ele>
        <time>2014-07-20T10:09:06Z</time>
      </trkpt>
      <trkpt lat="44.52679" lon="1.74503">
        <ele>159</ele>
        <time>2014-07-20T10:09:07Z</time>
      </trkpt>
      <trkpt lat="44.52681" lon="1.74485">
        <ele>158</ele>
        <time>2014-07-20T10:09:14Z</time>
      </trkpt>
      <trkpt lat="44.5268" lon="1.74483">
        <ele>158</ele>
        <time>2014-07-20T10:09:15Z</time>
      </trkpt>
      <trkpt lat="44.52679" lon="1.74481">
        <ele>158</ele>
        <time>2014-07-20T10:09:16Z</time>
      </trkpt>
      <trkpt lat="44.52678" lon="1.7448">
        <ele>158</ele>
        <time>2014-07-20T10:09:17Z</time>
      </trkpt>
      <trkpt lat="44.52676" lon="1.74479">
        <ele>158</ele>
        <time>2014-07-20T10:09:18Z</time>
      </trkpt>
      <trkpt lat="44.52675" lon="1.74478">
        <ele>158</ele>
        <time>2014-07-20T10:09:19Z</time>
      </trkpt>
      <trkpt lat="44.52673" lon="1.74476">
        <ele>159</ele>
        <time>2014-07-20T10:09:20Z</time>
      </trkpt>
      <trkpt lat="44.52671" lon="1.74472">
        <ele>159</ele>
        <time>2014-07-20T10:09:21Z</time>
      </trkpt>
      <trkpt lat="44.5267" lon="1.74469">
        <ele>159</ele>
        <time>2014-07-20T10:09:22Z</time>
      </trkpt>
      <trkpt lat="44.52668" lon="1.74466">
        <ele>159</ele>
        <time>2014-07-20T10:09:23Z</time>
      </trkpt>
      <trkpt lat="44.52666" lon="1.74463">
        <ele>159</ele>
        <time>2014-07-20T10:09:24Z</time>
      </trkpt>
      <trkpt lat="44.52663" lon="1.7446">
        <ele>159</ele>
        <time>2014-07-20T10:09:25Z</time>
      </trkpt>
      <trkpt lat="44.52661" lon="1.74458">
        <ele>159</ele>
        <time>2014-07-20T10:09:26Z</time>
      </trkpt>
      <trkpt lat="44.52643" lon="1.74428">
        <ele>161</ele>
        <time>2014-07-20T10:09:37Z</time>
      </trkpt>
      <trkpt lat="44.52628" lon="1.74402">
        <ele>161</ele>
        <time>2014-07-20T10:09:45Z</time>
      </trkpt>
      <trkpt lat="44.52626" lon="1.74397">
        <ele>161</ele>
        <time>2014-07-20T10:09:46Z</time>
      </trkpt>
      <trkpt lat="44.52625" lon="1.74391">
        <ele>160</ele>
        <time>2014-07-20T10:09:47Z</time>
      </trkpt>
      <trkpt lat="44.52625" lon="1.74386">
        <ele>160</ele>
        <time>2014-07-20T10:09:48Z</time>
      </trkpt>
      <trkpt lat="44.52625" lon="1.74381">
        <ele>160</ele>
        <time>2014-07-20T10:09:49Z</time>
      </trkpt>
      <trkpt lat="44.52624" lon="1.74376">
        <ele>160</ele>
        <time>2014-07-20T10:09:50Z</time>
      </trkpt>
      <trkpt lat="44.52621" lon="1.74354">
        <ele>159</ele>
        <time>2014-07-20T10:09:54Z</time>
      </trkpt>
      <trkpt lat="44.5262" lon="1.74348">
        <ele>159</ele>
        <time>2014-07-20T10:09:55Z</time>
      </trkpt>
      <trkpt lat="44.52618" lon="1.74342">
        <ele>159</ele>
        <time>2014-07-20T10:09:56Z</time>
      </trkpt>
      <trkpt lat="44.52616" lon="1.74335">
        <ele>158</ele>
        <time>2014-07-20T10:09:57Z</time>
      </trkpt>
      <trkpt lat="44.52613" lon="1.74329">
        <ele>158</ele>
        <time>2014-07-20T10:09:58Z</time>
      </trkpt>
      <trkpt lat="44.5261" lon="1.74323">
        <ele>158</ele>
        <time>2014-07-20T10:09:59Z</time>
      </trkpt>
      <trkpt lat="44.52608" lon="1.74317">
        <ele>157</ele>
        <time>2014-07-20T10:10:00Z</time>
      </trkpt>
      <trkpt lat="44.52593" lon="1.74276">
        <ele>156</ele>
        <time>2014-07-20T10:10:08Z</time>
      </trkpt>
      <trkpt lat="44.52592" lon="1.7427">
        <ele>156</ele>
        <time>2014-07-20T10:10:09Z</time>
      </trkpt>
      <trkpt lat="44.5259" lon="1.74264">
        <ele>156</ele>
        <time>2014-07-20T10:10:10Z</time>
      </trkpt>
      <trkpt lat="44.52589" lon="1.74258">
        <ele>156</ele>
        <time>2014-07-20T10:10:11Z</time>
      </trkpt>
      <trkpt lat="44.52588" lon="1.74252">
        <ele>156</ele>
        <time>2014-07-20T10:10:12Z</time>
      </trkpt>
      <trkpt lat="44.52586" lon="1.74246">
        <ele>157</ele>
        <time>2014-07-20T10:10:13Z</time>
      </trkpt>
      <trkpt lat="44.52586" lon="1.7424">
        <ele>156</ele>
        <time>2014-07-20T10:10:14Z</time>
      </trkpt>
      <trkpt lat="44.52585" lon="1.74235">
        <ele>156</ele>
        <time>2014-07-20T10:10:15Z</time>
      </trkpt>
      <trkpt lat="44.52582" lon="1.74221">
        <ele>156</ele>
        <time>2014-07-20T10:10:19Z</time>
      </trkpt>
      <trkpt lat="44.52583" lon="1.74217">
        <ele>157</ele>
        <time>2014-07-20T10:10:20Z</time>
      </trkpt>
      <trkpt lat="44.52583" lon="1.74214">
        <ele>157</ele>
        <time>2014-07-20T10:10:21Z</time>
      </trkpt>
      <trkpt lat="44.52584" lon="1.74207">
        <ele>158</ele>
        <time>2014-07-20T10:10:24Z</time>
      </trkpt>
      <trkpt lat="44.52584" lon="1.74199">
        <ele>158</ele>
        <time>2014-07-20T10:10:27Z</time>
      </trkpt>
      <trkpt lat="44.52585" lon="1.74171">
        <ele>157</ele>
        <time>2014-07-20T10:10:37Z</time>
      </trkpt>
      <trkpt lat="44.52585" lon="1.74169">
        <ele>157</ele>
        <time>2014-07-20T10:10:38Z</time>
      </trkpt>
      <trkpt lat="44.52585" lon="1.74162">
        <ele>157</ele>
        <time>2014-07-20T10:10:40Z</time>
      </trkpt>
      <trkpt lat="44.52585" lon="1.7416">
        <ele>157</ele>
        <time>2014-07-20T10:10:41Z</time>
      </trkpt>
      <trkpt lat="44.52585" lon="1.74156">
        <ele>157</ele>
        <time>2014-07-20T10:10:42Z</time>
      </trkpt>
      <trkpt lat="44.52583" lon="1.74138">
        <ele>157</ele>
        <time>2014-07-20T10:10:48Z</time>
      </trkpt>
      <trkpt lat="44.52583" lon="1.74135">
        <ele>157</ele>
        <time>2014-07-20T10:10:49Z</time>
      </trkpt>
      <trkpt lat="44.52584" lon="1.74132">
        <ele>157</ele>
        <time>2014-07-20T10:10:50Z</time>
      </trkpt>
      <trkpt lat="44.52584" lon="1.7413">
        <ele>157</ele>
        <time>2014-07-20T10:10:51Z</time>
      </trkpt>
      <trkpt lat="44.52584" lon="1.74127">
        <ele>157</ele>
        <time>2014-07-20T10:10:52Z</time>
      </trkpt>
      <trkpt lat="44.52584" lon="1.74124">
        <ele>157</ele>
        <time>2014-07-20T10:10:53Z</time>
      </trkpt>
      <trkpt lat="44.52584" lon="1.74121">
        <ele>157</ele>
        <time>2014-07-20T10:10:54Z</time>
      </trkpt>
      <trkpt lat="44.52583" lon="1.74117">
        <ele>157</ele>
        <time>2014-07-20T10:10:55Z</time>
      </trkpt>
      <trkpt lat="44.52583" lon="1.74114">
        <ele>157</ele>
        <time>2014-07-20T10:10:56Z</time>
      </trkpt>
      <trkpt lat="44.52582" lon="1.74095">
        <ele>156</ele>
        <time>2014-07-20T10:11:05Z</time>
      </trkpt>
      <trkpt lat="44.5258" lon="1.7409">
        <ele>156</ele>
        <time>2014-07-20T10:11:32Z</time>
      </trkpt>
      <trkpt lat="44.52582" lon="1.74081">
        <ele>156</ele>
        <time>2014-07-20T10:11:40Z</time>
      </trkpt>
      <trkpt lat="44.52582" lon="1.74078">
        <ele>156</ele>
        <time>2014-07-20T10:11:41Z</time>
      </trkpt>
      <trkpt lat="44.52577" lon="1.74045">
        <ele>155</ele>
        <time>2014-07-20T10:11:49Z</time>
      </trkpt>
      <trkpt lat="44.52577" lon="1.7404">
        <ele>155</ele>
        <time>2014-07-20T10:11:51Z</time>
      </trkpt>
      <trkpt lat="44.52576" lon="1.74038">
        <ele>155</ele>
        <time>2014-07-20T10:11:52Z</time>
      </trkpt>
      <trkpt lat="44.52574" lon="1.74027">
        <ele>156</ele>
        <time>2014-07-20T10:12:02Z</time>
      </trkpt>
      <trkpt lat="44.52574" lon="1.74022">
        <ele>155</ele>
        <time>2014-07-20T10:12:07Z</time>
      </trkpt>
      <trkpt lat="44.52574" lon="1.7402">
        <ele>155</ele>
        <time>2014-07-20T10:12:08Z</time>
      </trkpt>
      <trkpt lat="44.52574" lon="1.74">
        <ele>155</ele>
        <time>2014-07-20T10:12:18Z</time>
      </trkpt>
      <trkpt lat="44.52572" lon="1.7399">
        <ele>155</ele>
        <time>2014-07-20T10:12:20Z</time>
      </trkpt>
      <trkpt lat="44.52571" lon="1.73986">
        <ele>155</ele>
        <time>2014-07-20T10:12:21Z</time>
      </trkpt>
      <trkpt lat="44.52571" lon="1.73982">
        <ele>155</ele>
        <time>2014-07-20T10:12:22Z</time>
      </trkpt>
      <trkpt lat="44.52571" lon="1.73979">
        <ele>155</ele>
        <time>2014-07-20T10:12:23Z</time>
      </trkpt>
      <trkpt lat="44.52572" lon="1.73976">
        <ele>155</ele>
        <time>2014-07-20T10:12:24Z</time>
      </trkpt>
      <trkpt lat="44.52572" lon="1.73973">
        <ele>155</ele>
        <time>2014-07-20T10:12:25Z</time>
      </trkpt>
      <trkpt lat="44.52571" lon="1.73946">
        <ele>153</ele>
        <time>2014-07-20T10:12:35Z</time>
      </trkpt>
      <trkpt lat="44.52572" lon="1.73932">
        <ele>152</ele>
        <time>2014-07-20T10:12:40Z</time>
      </trkpt>
      <trkpt lat="44.52574" lon="1.73924">
        <ele>150</ele>
        <time>2014-07-20T10:12:43Z</time>
      </trkpt>
      <trkpt lat="44.52574" lon="1.7392">
        <ele>150</ele>
        <time>2014-07-20T10:12:44Z</time>
      </trkpt>
      <trkpt lat="44.52574" lon="1.73917">
        <ele>150</ele>
        <time>2014-07-20T10:12:45Z</time>
      </trkpt>
      <trkpt lat="44.52574" lon="1.73913">
        <ele>151</ele>
        <time>2014-07-20T10:12:46Z</time>
      </trkpt>
      <trkpt lat="44.52574" lon="1.73909">
        <ele>150</ele>
        <time>2014-07-20T10:12:47Z</time>
      </trkpt>
      <trkpt lat="44.52574" lon="1.73906">
        <ele>150</ele>
        <time>2014-07-20T10:12:48Z</time>
      </trkpt>
      <trkpt lat="44.52573" lon="1.73896">
        <ele>150</ele>
        <time>2014-07-20T10:12:51Z</time>
      </trkpt>
      <trkpt lat="44.52574" lon="1.73871">
        <ele>149</ele>
        <time>2014-07-20T10:13:03Z</time>
      </trkpt>
      <trkpt lat="44.52573" lon="1.73849">
        <ele>149</ele>
        <time>2014-07-20T10:13:11Z</time>
      </trkpt>
      <trkpt lat="44.52573" lon="1.73846">
        <ele>150</ele>
        <time>2014-07-20T10:13:12Z</time>
      </trkpt>
      <trkpt lat="44.52572" lon="1.73843">
        <ele>150</ele>
        <time>2014-07-20T10:13:13Z</time>
      </trkpt>
      <trkpt lat="44.52572" lon="1.73827">
        <ele>149</ele>
        <time>2014-07-20T10:13:27Z</time>
      </trkpt>
      <trkpt lat="44.52567" lon="1.7381">
        <ele>151</ele>
        <time>2014-07-20T10:13:37Z</time>
      </trkpt>
      <trkpt lat="44.52566" lon="1.73805">
        <ele>153</ele>
        <time>2014-07-20T10:13:39Z</time>
      </trkpt>
      <trkpt lat="44.52566" lon="1.73803">
        <ele>153</ele>
        <time>2014-07-20T10:13:40Z</time>
      </trkpt>
      <trkpt lat="44.5256" lon="1.73777">
        <ele>154</ele>
        <time>2014-07-20T10:13:52Z</time>
      </trkpt>
      <trkpt lat="44.52554" lon="1.73751">
        <ele>154</ele>
        <time>2014-07-20T10:14:01Z</time>
      </trkpt>
      <trkpt lat="44.52547" lon="1.73696">
        <ele>154</ele>
        <time>2014-07-20T10:14:13Z</time>
      </trkpt>
      <trkpt lat="44.52543" lon="1.73652">
        <ele>154</ele>
        <time>2014-07-20T10:14:22Z</time>
      </trkpt>
      <trkpt lat="44.52544" lon="1.73649">
        <ele>153</ele>
        <time>2014-07-20T10:14:23Z</time>
      </trkpt>
      <trkpt lat="44.52549" lon="1.73633">
        <ele>153</ele>
        <time>2014-07-20T10:14:27Z</time>
      </trkpt>
      <trkpt lat="44.5255" lon="1.73627">
        <ele>153</ele>
        <time>2014-07-20T10:14:28Z</time>
      </trkpt>
      <trkpt lat="44.52541" lon="1.73583">
        <ele>152</ele>
        <time>2014-07-20T10:14:37Z</time>
      </trkpt>
      <trkpt lat="44.52538" lon="1.73538">
        <ele>152</ele>
        <time>2014-07-20T10:14:46Z</time>
      </trkpt>
      <trkpt lat="44.52536" lon="1.73529">
        <ele>152</ele>
        <time>2014-07-20T10:14:48Z</time>
      </trkpt>
      <trkpt lat="44.52536" lon="1.73524">
        <ele>152</ele>
        <time>2014-07-20T10:14:49Z</time>
      </trkpt>
      <trkpt lat="44.52536" lon="1.73518">
        <ele>152</ele>
        <time>2014-07-20T10:14:50Z</time>
      </trkpt>
      <trkpt lat="44.52536" lon="1.73513">
        <ele>152</ele>
        <time>2014-07-20T10:14:51Z</time>
      </trkpt>
      <trkpt lat="44.52535" lon="1.73507">
        <ele>152</ele>
        <time>2014-07-20T10:14:52Z</time>
      </trkpt>
      <trkpt lat="44.52529" lon="1.73449">
        <ele>152</ele>
        <time>2014-07-20T10:15:03Z</time>
      </trkpt>
      <trkpt lat="44.52519" lon="1.73377">
        <ele>153</ele>
        <time>2014-07-20T10:15:17Z</time>
      </trkpt>
      <trkpt lat="44.52508" lon="1.733">
        <ele>153</ele>
        <time>2014-07-20T10:15:32Z</time>
      </trkpt>
      <trkpt lat="44.52498" lon="1.73252">
        <ele>153</ele>
        <time>2014-07-20T10:15:41Z</time>
      </trkpt>
      <trkpt lat="44.52497" lon="1.73246">
        <ele>153</ele>
        <time>2014-07-20T10:15:42Z</time>
      </trkpt>
      <trkpt lat="44.52494" lon="1.73233">
        <ele>153</ele>
        <time>2014-07-20T10:15:44Z</time>
      </trkpt>
      <trkpt lat="44.52493" lon="1.73227">
        <ele>152</ele>
        <time>2014-07-20T10:15:45Z</time>
      </trkpt>
      <trkpt lat="44.52487" lon="1.73167">
        <ele>152</ele>
        <time>2014-07-20T10:15:53Z</time>
      </trkpt>
      <trkpt lat="44.52482" lon="1.7314">
        <ele>151</ele>
        <time>2014-07-20T10:15:57Z</time>
      </trkpt>
      <trkpt lat="44.52478" lon="1.73127">
        <ele>151</ele>
        <time>2014-07-20T10:15:59Z</time>
      </trkpt>
      <trkpt lat="44.52476" lon="1.73122">
        <ele>151</ele>
        <time>2014-07-20T10:16:00Z</time>
      </trkpt>
      <trkpt lat="44.52469" lon="1.73075">
        <ele>151</ele>
        <time>2014-07-20T10:16:07Z</time>
      </trkpt>
      <trkpt lat="44.52466" lon="1.73057">
        <ele>150</ele>
        <time>2014-07-20T10:16:10Z</time>
      </trkpt>
      <trkpt lat="44.52465" lon="1.73051">
        <ele>151</ele>
        <time>2014-07-20T10:16:11Z</time>
      </trkpt>
      <trkpt lat="44.52464" lon="1.73046">
        <ele>150</ele>
        <time>2014-07-20T10:16:12Z</time>
      </trkpt>
      <trkpt lat="44.52462" lon="1.73035">
        <ele>151</ele>
        <time>2014-07-20T10:16:14Z</time>
      </trkpt>
      <trkpt lat="44.5245" lon="1.73001">
        <ele>151</ele>
        <time>2014-07-20T10:16:24Z</time>
      </trkpt>
      <trkpt lat="44.52447" lon="1.72997">
        <ele>151</ele>
        <time>2014-07-20T10:16:26Z</time>
      </trkpt>
      <trkpt lat="44.52446" lon="1.72997">
        <ele>151</ele>
        <time>2014-07-20T10:16:27Z</time>
      </trkpt>
      <trkpt lat="44.52412" lon="1.72994">
        <ele>153</ele>
        <time>2014-07-20T10:16:40Z</time>
      </trkpt>
      <trkpt lat="44.52376" lon="1.72996">
        <ele>154</ele>
        <time>2014-07-20T10:16:53Z</time>
      </trkpt>
      <trkpt lat="44.52341" lon="1.73026">
        <ele>156</ele>
        <time>2014-07-20T10:17:06Z</time>
      </trkpt>
      <trkpt lat="44.52317" lon="1.73052">
        <ele>158</ele>
        <time>2014-07-20T10:17:19Z</time>
      </trkpt>
      <trkpt lat="44.52279" lon="1.7306">
        <ele>157</ele>
        <time>2014-07-20T10:17:31Z</time>
      </trkpt>
      <trkpt lat="44.52211" lon="1.73062">
        <ele>154</ele>
        <time>2014-07-20T10:17:44Z</time>
      </trkpt>
      <trkpt lat="44.52156" lon="1.73074">
        <ele>152</ele>
        <time>2014-07-20T10:17:57Z</time>
      </trkpt>
      <trkpt lat="44.52133" lon="1.73078">
        <ele>152</ele>
        <time>2014-07-20T10:18:02Z</time>
      </trkpt>
      <trkpt lat="44.52092" lon="1.73089">
        <ele>151</ele>
        <time>2014-07-20T10:18:11Z</time>
      </trkpt>
      <trkpt lat="44.52053" lon="1.73096">
        <ele>152</ele>
        <time>2014-07-20T10:18:20Z</time>
      </trkpt>
      <trkpt lat="44.52032" lon="1.73095">
        <ele>152</ele>
        <time>2014-07-20T10:18:25Z</time>
      </trkpt>
      <trkpt lat="44.51969" lon="1.73091">
        <ele>151</ele>
        <time>2014-07-20T10:18:39Z</time>
      </trkpt>
      <trkpt lat="44.51906" lon="1.73085">
        <ele>151</ele>
        <time>2014-07-20T10:18:52Z</time>
      </trkpt>
      <trkpt lat="44.51854" lon="1.73069">
        <ele>150</ele>
        <time>2014-07-20T10:19:05Z</time>
      </trkpt>
      <trkpt lat="44.5185" lon="1.73068">
        <ele>149</ele>
        <time>2014-07-20T10:19:06Z</time>
      </trkpt>
      <trkpt lat="44.51845" lon="1.73067">
        <ele>149</ele>
        <time>2014-07-20T10:19:07Z</time>
      </trkpt>
      <trkpt lat="44.5184" lon="1.73068">
        <ele>150</ele>
        <time>2014-07-20T10:19:08Z</time>
      </trkpt>
      <trkpt lat="44.51836" lon="1.7307">
        <ele>150</ele>
        <time>2014-07-20T10:19:09Z</time>
      </trkpt>
      <trkpt lat="44.51833" lon="1.73072">
        <ele>150</ele>
        <time>2014-07-20T10:19:10Z</time>
      </trkpt>
      <trkpt lat="44.51828" lon="1.73072">
        <ele>149</ele>
        <time>2014-07-20T10:19:11Z</time>
      </trkpt>
      <trkpt lat="44.51825" lon="1.73072">
        <ele>149</ele>
        <time>2014-07-20T10:19:12Z</time>
      </trkpt>
      <trkpt lat="44.51765" lon="1.73072">
        <ele>150</ele>
        <time>2014-07-20T10:19:27Z</time>
      </trkpt>
      <trkpt lat="44.51709" lon="1.73072">
        <ele>150</ele>
        <time>2014-07-20T10:19:42Z</time>
      </trkpt>
      <trkpt lat="44.51651" lon="1.73063">
        <ele>151</ele>
        <time>2014-07-20T10:19:57Z</time>
      </trkpt>
      <trkpt lat="44.51616" lon="1.73039">
        <ele>154</ele>
        <time>2014-07-20T10:20:10Z</time>
      </trkpt>
      <trkpt lat="44.51584" lon="1.73001">
        <ele>156</ele>
        <time>2014-07-20T10:20:23Z</time>
      </trkpt>
      <trkpt lat="44.51562" lon="1.72943">
        <ele>154</ele>
        <time>2014-07-20T10:20:37Z</time>
      </trkpt>
      <trkpt lat="44.51561" lon="1.72939">
        <ele>156</ele>
        <time>2014-07-20T10:20:38Z</time>
      </trkpt>
      <trkpt lat="44.5156" lon="1.72935">
        <ele>161</ele>
        <time>2014-07-20T10:20:39Z</time>
      </trkpt>
      <trkpt lat="44.51559" lon="1.72931">
        <ele>158</ele>
        <time>2014-07-20T10:20:40Z</time>
      </trkpt>
      <trkpt lat="44.51535" lon="1.72893">
        <ele>159</ele>
        <time>2014-07-20T10:20:53Z</time>
      </trkpt>
      <trkpt lat="44.51526" lon="1.7288">
        <ele>160</ele>
        <time>2014-07-20T10:21:05Z</time>
      </trkpt>
      <trkpt lat="44.5153" lon="1.72876">
        <ele>160</ele>
        <time>2014-07-20T10:21:27Z</time>
      </trkpt>
      <trkpt lat="44.51527" lon="1.72878">
        <ele>160</ele>
        <time>2014-07-20T10:21:44Z</time>
      </trkpt>
      <trkpt lat="44.51532" lon="1.72878">
        <ele>160</ele>
        <time>2014-07-20T10:21:59Z</time>
      </trkpt>
      <trkpt lat="44.51531" lon="1.72877">
        <ele>160</ele>
        <time>2014-07-20T10:22:21Z</time>
      </trkpt>
      <trkpt lat="44.51531" lon="1.72879">
        <ele>160</ele>
        <time>2014-07-20T10:22:34Z</time>
      </trkpt>
      <trkpt lat="44.51531" lon="1.72878">
        <ele>163</ele>
        <time>2014-07-20T10:22:47Z</time>
      </trkpt>
      <trkpt lat="44.5153" lon="1.72877">
        <ele>161</ele>
        <time>2014-07-20T10:22:49Z</time>
      </trkpt>
      <trkpt lat="44.51533" lon="1.72874">
        <ele>157</ele>
        <time>2014-07-20T10:23:03Z</time>
      </trkpt>
      <trkpt lat="44.51533" lon="1.72874">
        <ele>163</ele>
        <time>2014-07-20T10:23:04Z</time>
      </trkpt>
      <trkpt lat="44.51537" lon="1.72873">
        <ele>160</ele>
        <time>2014-07-20T10:23:12Z</time>
      </trkpt>
      <trkpt lat="44.51541" lon="1.72874">
        <ele>161</ele>
        <time>2014-07-20T10:23:35Z</time>
      </trkpt>
      <trkpt lat="44.51539" lon="1.72873">
        <ele>161</ele>
        <time>2014-07-20T10:23:58Z</time>
      </trkpt>
      <trkpt lat="44.51541" lon="1.72871">
        <ele>161</ele>
        <time>2014-07-20T10:24:19Z</time>
      </trkpt>
      <trkpt lat="44.51547" lon="1.7287">
        <ele>161</ele>
        <time>2014-07-20T10:24:41Z</time>
      </trkpt>
      <trkpt lat="44.5155" lon="1.7287">
        <ele>161</ele>
        <time>2014-07-20T10:25:07Z</time>
      </trkpt>
      <trkpt lat="44.51547" lon="1.72868">
        <ele>161</ele>
        <time>2014-07-20T10:25:31Z</time>
      </trkpt>
      <trkpt lat="44.51547" lon="1.7287">
        <ele>159</ele>
        <time>2014-07-20T10:25:51Z</time>
      </trkpt>
      <trkpt lat="44.51547" lon="1.7287">
        <ele>163</ele>
        <time>2014-07-20T10:25:52Z</time>
      </trkpt>
      <trkpt lat="44.51547" lon="1.7287">
        <ele>161</ele>
        <time>2014-07-20T10:25:53Z</time>
      </trkpt>
      <trkpt lat="44.51546" lon="1.72871">
        <ele>162</ele>
        <time>2014-07-20T10:26:05Z</time>
      </trkpt>
      <trkpt lat="44.51548" lon="1.72869">
        <ele>162</ele>
        <time>2014-07-20T10:26:23Z</time>
      </trkpt>
      <trkpt lat="44.51554" lon="1.72868">
        <ele>162</ele>
        <time>2014-07-20T10:26:50Z</time>
      </trkpt>
      <trkpt lat="44.51558" lon="1.72866">
        <ele>162</ele>
        <time>2014-07-20T10:27:23Z</time>
      </trkpt>
      <trkpt lat="44.51556" lon="1.72867">
        <ele>162</ele>
        <time>2014-07-20T10:27:57Z</time>
      </trkpt>
      <trkpt lat="44.51551" lon="1.72869">
        <ele>163</ele>
        <time>2014-07-20T10:28:23Z</time>
      </trkpt>
      <trkpt lat="44.51551" lon="1.72871">
        <ele>163</ele>
        <time>2014-07-20T10:28:41Z</time>
      </trkpt>
      <trkpt lat="44.51551" lon="1.7287">
        <ele>163</ele>
        <time>2014-07-20T10:29:09Z</time>
      </trkpt>
      <trkpt lat="44.51542" lon="1.72871">
        <ele>163</ele>
        <time>2014-07-20T10:29:34Z</time>
      </trkpt>
      <trkpt lat="44.51532" lon="1.72862">
        <ele>164</ele>
        <time>2014-07-20T10:29:43Z</time>
      </trkpt>
      <trkpt lat="44.51531" lon="1.7286">
        <ele>164</ele>
        <time>2014-07-20T10:29:44Z</time>
      </trkpt>
      <trkpt lat="44.51515" lon="1.72841">
        <ele>165</ele>
        <time>2014-07-20T10:29:56Z</time>
      </trkpt>
      <trkpt lat="44.51494" lon="1.72803">
        <ele>167</ele>
        <time>2014-07-20T10:30:12Z</time>
      </trkpt>
      <trkpt lat="44.51475" lon="1.72767">
        <ele>171</ele>
        <time>2014-07-20T10:30:27Z</time>
      </trkpt>
      <trkpt lat="44.51463" lon="1.72729">
        <ele>173</ele>
        <time>2014-07-20T10:30:41Z</time>
      </trkpt>
      <trkpt lat="44.5145" lon="1.7269">
        <ele>175</ele>
        <time>2014-07-20T10:30:55Z</time>
      </trkpt>
      <trkpt lat="44.51442" lon="1.72665">
        <ele>176</ele>
        <time>2014-07-20T10:31:04Z</time>
      </trkpt>
      <trkpt lat="44.51441" lon="1.72662">
        <ele>177</ele>
        <time>2014-07-20T10:31:05Z</time>
      </trkpt>
      <trkpt lat="44.5144" lon="1.72659">
        <ele>177</ele>
        <time>2014-07-20T10:31:06Z</time>
      </trkpt>
      <trkpt lat="44.51441" lon="1.72615">
        <ele>178</ele>
        <time>2014-07-20T10:31:20Z</time>
      </trkpt>
      <trkpt lat="44.51431" lon="1.7257">
        <ele>181</ele>
        <time>2014-07-20T10:31:35Z</time>
      </trkpt>
      <trkpt lat="44.51418" lon="1.72528">
        <ele>182</ele>
        <time>2014-07-20T10:31:50Z</time>
      </trkpt>
      <trkpt lat="44.51395" lon="1.72509">
        <ele>185</ele>
        <time>2014-07-20T10:32:04Z</time>
      </trkpt>
      <trkpt lat="44.51361" lon="1.72502">
        <ele>188</ele>
        <time>2014-07-20T10:32:21Z</time>
      </trkpt>
      <trkpt lat="44.51317" lon="1.72493">
        <ele>191</ele>
        <time>2014-07-20T10:32:42Z</time>
      </trkpt>
      <trkpt lat="44.51288" lon="1.72486">
        <ele>193</ele>
        <time>2014-07-20T10:32:56Z</time>
      </trkpt>
      <trkpt lat="44.51259" lon="1.72481">
        <ele>195</ele>
        <time>2014-07-20T10:33:09Z</time>
      </trkpt>
      <trkpt lat="44.51237" lon="1.72482">
        <ele>196</ele>
        <time>2014-07-20T10:33:23Z</time>
      </trkpt>
      <trkpt lat="44.51211" lon="1.72504">
        <ele>199</ele>
        <time>2014-07-20T10:33:38Z</time>
      </trkpt>
      <trkpt lat="44.5119" lon="1.72493">
        <ele>200</ele>
        <time>2014-07-20T10:33:51Z</time>
      </trkpt>
      <trkpt lat="44.51161" lon="1.72467">
        <ele>202</ele>
        <time>2014-07-20T10:34:06Z</time>
      </trkpt>
      <trkpt lat="44.51142" lon="1.72442">
        <ele>203</ele>
        <time>2014-07-20T10:34:18Z</time>
      </trkpt>
      <trkpt lat="44.51154" lon="1.72411">
        <ele>205</ele>
        <time>2014-07-20T10:34:30Z</time>
      </trkpt>
      <trkpt lat="44.51178" lon="1.72396">
        <ele>208</ele>
        <time>2014-07-20T10:34:43Z</time>
      </trkpt>
      <trkpt lat="44.512" lon="1.72379">
        <ele>210</ele>
        <time>2014-07-20T10:34:57Z</time>
      </trkpt>
      <trkpt lat="44.51225" lon="1.72359">
        <ele>212</ele>
        <time>2014-07-20T10:35:10Z</time>
      </trkpt>
      <trkpt lat="44.51255" lon="1.72343">
        <ele>214</ele>
        <time>2014-07-20T10:35:22Z</time>
      </trkpt>
      <trkpt lat="44.51286" lon="1.72326">
        <ele>216</ele>
        <time>2014-07-20T10:35:35Z</time>
      </trkpt>
      <trkpt lat="44.51298" lon="1.72288">
        <ele>218</ele>
        <time>2014-07-20T10:35:49Z</time>
      </trkpt>
      <trkpt lat="44.51294" lon="1.72239">
        <ele>220</ele>
        <time>2014-07-20T10:36:05Z</time>
      </trkpt>
      <trkpt lat="44.51289" lon="1.72213">
        <ele>222</ele>
        <time>2014-07-20T10:36:15Z</time>
      </trkpt>
      <trkpt lat="44.51289" lon="1.72205">
        <ele>223</ele>
        <time>2014-07-20T10:36:18Z</time>
      </trkpt>
      <trkpt lat="44.51289" lon="1.72203">
        <ele>223</ele>
        <time>2014-07-20T10:36:19Z</time>
      </trkpt>
      <trkpt lat="44.51279" lon="1.72156">
        <ele>226</ele>
        <time>2014-07-20T10:36:36Z</time>
      </trkpt>
      <trkpt lat="44.51268" lon="1.72112">
        <ele>228</ele>
        <time>2014-07-20T10:36:52Z</time>
      </trkpt>
      <trkpt lat="44.5126" lon="1.72075">
        <ele>230</ele>
        <time>2014-07-20T10:37:05Z</time>
      </trkpt>
      <trkpt lat="44.51242" lon="1.72038">
        <ele>233</ele>
        <time>2014-07-20T10:37:21Z</time>
      </trkpt>
      <trkpt lat="44.51223" lon="1.72">
        <ele>235</ele>
        <time>2014-07-20T10:37:36Z</time>
      </trkpt>
      <trkpt lat="44.5122" lon="1.71962">
        <ele>237</ele>
        <time>2014-07-20T10:37:50Z</time>
      </trkpt>
      <trkpt lat="44.51237" lon="1.71937">
        <ele>239</ele>
        <time>2014-07-20T10:38:02Z</time>
      </trkpt>
      <trkpt lat="44.51255" lon="1.71913">
        <ele>240</ele>
        <time>2014-07-20T10:38:14Z</time>
      </trkpt>
      <trkpt lat="44.5128" lon="1.71885">
        <ele>242</ele>
        <time>2014-07-20T10:38:29Z</time>
      </trkpt>
      <trkpt lat="44.51303" lon="1.71861">
        <ele>244</ele>
        <time>2014-07-20T10:38:42Z</time>
      </trkpt>
      <trkpt lat="44.51321" lon="1.7184">
        <ele>245</ele>
        <time>2014-07-20T10:38:54Z</time>
      </trkpt>
      <trkpt lat="44.51323" lon="1.71839">
        <ele>246</ele>
        <time>2014-07-20T10:38:55Z</time>
      </trkpt>
      <trkpt lat="44.51324" lon="1.71837">
        <ele>246</ele>
        <time>2014-07-20T10:38:56Z</time>
      </trkpt>
      <trkpt lat="44.51326" lon="1.71836">
        <ele>246</ele>
        <time>2014-07-20T10:38:57Z</time>
      </trkpt>
      <trkpt lat="44.51328" lon="1.71834">
        <ele>246</ele>
        <time>2014-07-20T10:38:58Z</time>
      </trkpt>
      <trkpt lat="44.51329" lon="1.71832">
        <ele>246</ele>
        <time>2014-07-20T10:38:59Z</time>
      </trkpt>
      <trkpt lat="44.51331" lon="1.7183">
        <ele>246</ele>
        <time>2014-07-20T10:39:00Z</time>
      </trkpt>
      <trkpt lat="44.51352" lon="1.71805">
        <ele>248</ele>
        <time>2014-07-20T10:39:13Z</time>
      </trkpt>
      <trkpt lat="44.51385" lon="1.71788">
        <ele>250</ele>
        <time>2014-07-20T10:39:28Z</time>
      </trkpt>
      <trkpt lat="44.51404" lon="1.7178">
        <ele>251</ele>
        <time>2014-07-20T10:39:42Z</time>
      </trkpt>
      <trkpt lat="44.51404" lon="1.71781">
        <ele>250</ele>
        <time>2014-07-20T10:40:14Z</time>
      </trkpt>
      <trkpt lat="44.51403" lon="1.71783">
        <ele>250</ele>
        <time>2014-07-20T10:40:56Z</time>
      </trkpt>
      <trkpt lat="44.51405" lon="1.71783">
        <ele>250</ele>
        <time>2014-07-20T10:41:15Z</time>
      </trkpt>
      <trkpt lat="44.51406" lon="1.71779">
        <ele>249</ele>
        <time>2014-07-20T10:41:45Z</time>
      </trkpt>
      <trkpt lat="44.5141" lon="1.7178">
        <ele>250</ele>
        <time>2014-07-20T10:42:19Z</time>
      </trkpt>
      <trkpt lat="44.5141" lon="1.7178">
        <ele>251</ele>
        <time>2014-07-20T10:42:31Z</time>
      </trkpt>
      <trkpt lat="44.51413" lon="1.71776">
        <ele>251</ele>
        <time>2014-07-20T10:42:35Z</time>
      </trkpt>
      <trkpt lat="44.51422" lon="1.71768">
        <ele>251</ele>
        <time>2014-07-20T10:42:43Z</time>
      </trkpt>
      <trkpt lat="44.51422" lon="1.71766">
        <ele>251</ele>
        <time>2014-07-20T10:42:44Z</time>
      </trkpt>
      <trkpt lat="44.51422" lon="1.71764">
        <ele>252</ele>
        <time>2014-07-20T10:42:45Z</time>
      </trkpt>
      <trkpt lat="44.51422" lon="1.71762">
        <ele>252</ele>
        <time>2014-07-20T10:42:46Z</time>
      </trkpt>
      <trkpt lat="44.51422" lon="1.71759">
        <ele>252</ele>
        <time>2014-07-20T10:42:47Z</time>
      </trkpt>
      <trkpt lat="44.51421" lon="1.71756">
        <ele>252</ele>
        <time>2014-07-20T10:42:48Z</time>
      </trkpt>
      <trkpt lat="44.51421" lon="1.71754">
        <ele>252</ele>
        <time>2014-07-20T10:42:49Z</time>
      </trkpt>
      <trkpt lat="44.5142" lon="1.71752">
        <ele>252</ele>
        <time>2014-07-20T10:42:50Z</time>
      </trkpt>
      <trkpt lat="44.51419" lon="1.7175">
        <ele>252</ele>
        <time>2014-07-20T10:42:51Z</time>
      </trkpt>
      <trkpt lat="44.51396" lon="1.71742">
        <ele>254</ele>
        <time>2014-07-20T10:43:05Z</time>
      </trkpt>
      <trkpt lat="44.51365" lon="1.71762">
        <ele>256</ele>
        <time>2014-07-20T10:43:21Z</time>
      </trkpt>
      <trkpt lat="44.51331" lon="1.71778">
        <ele>259</ele>
        <time>2014-07-20T10:43:37Z</time>
      </trkpt>
      <trkpt lat="44.51296" lon="1.718">
        <ele>261</ele>
        <time>2014-07-20T10:43:54Z</time>
      </trkpt>
      <trkpt lat="44.51261" lon="1.71817">
        <ele>264</ele>
        <time>2014-07-20T10:44:10Z</time>
      </trkpt>
      <trkpt lat="44.51225" lon="1.71822">
        <ele>266</ele>
        <time>2014-07-20T10:44:26Z</time>
      </trkpt>
      <trkpt lat="44.51201" lon="1.71817">
        <ele>267</ele>
        <time>2014-07-20T10:44:38Z</time>
      </trkpt>
      <trkpt lat="44.51167" lon="1.71798">
        <ele>270</ele>
        <time>2014-07-20T10:44:56Z</time>
      </trkpt>
      <trkpt lat="44.51137" lon="1.71775">
        <ele>272</ele>
        <time>2014-07-20T10:45:11Z</time>
      </trkpt>
      <trkpt lat="44.51105" lon="1.71753">
        <ele>274</ele>
        <time>2014-07-20T10:45:27Z</time>
      </trkpt>
      <trkpt lat="44.51082" lon="1.7174">
        <ele>275</ele>
        <time>2014-07-20T10:45:41Z</time>
      </trkpt>
      <trkpt lat="44.5108" lon="1.7174">
        <ele>276</ele>
        <time>2014-07-20T10:45:51Z</time>
      </trkpt>
      <trkpt lat="44.51078" lon="1.71738">
        <ele>275</ele>
        <time>2014-07-20T10:46:26Z</time>
      </trkpt>
      <trkpt lat="44.51074" lon="1.71742">
        <ele>275</ele>
        <time>2014-07-20T10:47:02Z</time>
      </trkpt>
      <trkpt lat="44.51074" lon="1.71747">
        <ele>275</ele>
        <time>2014-07-20T10:47:39Z</time>
      </trkpt>
      <trkpt lat="44.5107" lon="1.71745">
        <ele>275</ele>
        <time>2014-07-20T10:48:07Z</time>
      </trkpt>
      <trkpt lat="44.51073" lon="1.71736">
        <ele>276</ele>
        <time>2014-07-20T10:48:31Z</time>
      </trkpt>
      <trkpt lat="44.51073" lon="1.7174">
        <ele>276</ele>
        <time>2014-07-20T10:48:51Z</time>
      </trkpt>
      <trkpt lat="44.51073" lon="1.71744">
        <ele>276</ele>
        <time>2014-07-20T10:49:05Z</time>
      </trkpt>
      <trkpt lat="44.51071" lon="1.71746">
        <ele>275</ele>
        <time>2014-07-20T10:49:07Z</time>
      </trkpt>
      <trkpt lat="44.5107" lon="1.71747">
        <ele>276</ele>
        <time>2014-07-20T10:49:08Z</time>
      </trkpt>
      <trkpt lat="44.51068" lon="1.71746">
        <ele>276</ele>
        <time>2014-07-20T10:49:09Z</time>
      </trkpt>
      <trkpt lat="44.51067" lon="1.71744">
        <ele>276</ele>
        <time>2014-07-20T10:49:10Z</time>
      </trkpt>
      <trkpt lat="44.51065" lon="1.71742">
        <ele>276</ele>
        <time>2014-07-20T10:49:11Z</time>
      </trkpt>
      <trkpt lat="44.51063" lon="1.7174">
        <ele>276</ele>
        <time>2014-07-20T10:49:12Z</time>
      </trkpt>
      <trkpt lat="44.51061" lon="1.71738">
        <ele>276</ele>
        <time>2014-07-20T10:49:13Z</time>
      </trkpt>
      <trkpt lat="44.51043" lon="1.71712">
        <ele>278</ele>
        <time>2014-07-20T10:49:26Z</time>
      </trkpt>
      <trkpt lat="44.51024" lon="1.71692">
        <ele>280</ele>
        <time>2014-07-20T10:49:41Z</time>
      </trkpt>
      <trkpt lat="44.51" lon="1.71671">
        <ele>283</ele>
        <time>2014-07-20T10:49:56Z</time>
      </trkpt>
      <trkpt lat="44.50967" lon="1.71652">
        <ele>283</ele>
        <time>2014-07-20T10:50:11Z</time>
      </trkpt>
      <trkpt lat="44.50934" lon="1.71623">
        <ele>285</ele>
        <time>2014-07-20T10:50:27Z</time>
      </trkpt>
      <trkpt lat="44.50908" lon="1.71595">
        <ele>287</ele>
        <time>2014-07-20T10:50:41Z</time>
      </trkpt>
      <trkpt lat="44.50879" lon="1.71584">
        <ele>290</ele>
        <time>2014-07-20T10:50:53Z</time>
      </trkpt>
      <trkpt lat="44.50845" lon="1.7157">
        <ele>290</ele>
        <time>2014-07-20T10:51:07Z</time>
      </trkpt>
      <trkpt lat="44.5079" lon="1.71541">
        <ele>290</ele>
        <time>2014-07-20T10:51:23Z</time>
      </trkpt>
      <trkpt lat="44.50786" lon="1.71538">
        <ele>290</ele>
        <time>2014-07-20T10:51:24Z</time>
      </trkpt>
      <trkpt lat="44.50777" lon="1.71527">
        <ele>290</ele>
        <time>2014-07-20T10:51:27Z</time>
      </trkpt>
      <trkpt lat="44.50767" lon="1.71515">
        <ele>290</ele>
        <time>2014-07-20T10:51:30Z</time>
      </trkpt>
      <trkpt lat="44.50765" lon="1.71511">
        <ele>289</ele>
        <time>2014-07-20T10:51:31Z</time>
      </trkpt>
      <trkpt lat="44.50762" lon="1.71506">
        <ele>289</ele>
        <time>2014-07-20T10:51:32Z</time>
      </trkpt>
      <trkpt lat="44.5072" lon="1.71434">
        <ele>291</ele>
        <time>2014-07-20T10:51:49Z</time>
      </trkpt>
      <trkpt lat="44.50702" lon="1.7139">
        <ele>295</ele>
        <time>2014-07-20T10:52:02Z</time>
      </trkpt>
      <trkpt lat="44.50688" lon="1.71351">
        <ele>298</ele>
        <time>2014-07-20T10:52:16Z</time>
      </trkpt>
      <trkpt lat="44.50671" lon="1.71311">
        <ele>301</ele>
        <time>2014-07-20T10:52:30Z</time>
      </trkpt>
      <trkpt lat="44.50648" lon="1.71278">
        <ele>303</ele>
        <time>2014-07-20T10:52:44Z</time>
      </trkpt>
      <trkpt lat="44.50622" lon="1.7122">
        <ele>301</ele>
        <time>2014-07-20T10:52:58Z</time>
      </trkpt>
      <trkpt lat="44.50607" lon="1.71187">
        <ele>298</ele>
        <time>2014-07-20T10:53:04Z</time>
      </trkpt>
      <trkpt lat="44.50597" lon="1.7116">
        <ele>297</ele>
        <time>2014-07-20T10:53:09Z</time>
      </trkpt>
      <trkpt lat="44.50593" lon="1.71145">
        <ele>296</ele>
        <time>2014-07-20T10:53:11Z</time>
      </trkpt>
      <trkpt lat="44.50584" lon="1.71102">
        <ele>293</ele>
        <time>2014-07-20T10:53:16Z</time>
      </trkpt>
      <trkpt lat="44.50562" lon="1.70998">
        <ele>292</ele>
        <time>2014-07-20T10:53:29Z</time>
      </trkpt>
      <trkpt lat="44.50535" lon="1.70909">
        <ele>292</ele>
        <time>2014-07-20T10:53:43Z</time>
      </trkpt>
      <trkpt lat="44.50532" lon="1.70897">
        <ele>291</ele>
        <time>2014-07-20T10:53:45Z</time>
      </trkpt>
      <trkpt lat="44.50531" lon="1.70891">
        <ele>291</ele>
        <time>2014-07-20T10:53:46Z</time>
      </trkpt>
      <trkpt lat="44.5053" lon="1.70885">
        <ele>291</ele>
        <time>2014-07-20T10:53:47Z</time>
      </trkpt>
      <trkpt lat="44.5053" lon="1.70872">
        <ele>291</ele>
        <time>2014-07-20T10:53:49Z</time>
      </trkpt>
      <trkpt lat="44.5053" lon="1.70865">
        <ele>291</ele>
        <time>2014-07-20T10:53:50Z</time>
      </trkpt>
      <trkpt lat="44.50544" lon="1.70802">
        <ele>289</ele>
        <time>2014-07-20T10:54:02Z</time>
      </trkpt>
      <trkpt lat="44.50574" lon="1.70736">
        <ele>288</ele>
        <time>2014-07-20T10:54:19Z</time>
      </trkpt>
      <trkpt lat="44.50599" lon="1.70691">
        <ele>287</ele>
        <time>2014-07-20T10:54:32Z</time>
      </trkpt>
      <trkpt lat="44.50585" lon="1.7069">
        <ele>285</ele>
        <time>2014-07-20T10:58:08Z</time>
      </trkpt>
      <trkpt lat="44.50587" lon="1.70687">
        <ele>285</ele>
        <time>2014-07-20T10:58:09Z</time>
      </trkpt>
      <trkpt lat="44.50592" lon="1.70656">
        <ele>283</ele>
        <time>2014-07-20T10:58:16Z</time>
      </trkpt>
      <trkpt lat="44.50592" lon="1.70649">
        <ele>282</ele>
        <time>2014-07-20T10:58:17Z</time>
      </trkpt>
      <trkpt lat="44.50592" lon="1.70642">
        <ele>282</ele>
        <time>2014-07-20T10:58:18Z</time>
      </trkpt>
      <trkpt lat="44.50586" lon="1.70602">
        <ele>280</ele>
        <time>2014-07-20T10:58:23Z</time>
      </trkpt>
      <trkpt lat="44.50582" lon="1.70584">
        <ele>278</ele>
        <time>2014-07-20T10:58:25Z</time>
      </trkpt>
      <trkpt lat="44.50578" lon="1.70576">
        <ele>277</ele>
        <time>2014-07-20T10:58:26Z</time>
      </trkpt>
      <trkpt lat="44.50572" lon="1.70568">
        <ele>276</ele>
        <time>2014-07-20T10:58:27Z</time>
      </trkpt>
      <trkpt lat="44.50565" lon="1.70561">
        <ele>276</ele>
        <time>2014-07-20T10:58:28Z</time>
      </trkpt>
      <trkpt lat="44.5051" lon="1.70502">
        <ele>276</ele>
        <time>2014-07-20T10:58:38Z</time>
      </trkpt>
      <trkpt lat="44.50474" lon="1.7048">
        <ele>278</ele>
        <time>2014-07-20T10:58:50Z</time>
      </trkpt>
      <trkpt lat="44.50459" lon="1.70445">
        <ele>278</ele>
        <time>2014-07-20T10:59:00Z</time>
      </trkpt>
      <trkpt lat="44.50454" lon="1.70405">
        <ele>278</ele>
        <time>2014-07-20T10:59:10Z</time>
      </trkpt>
      <trkpt lat="44.50447" lon="1.70365">
        <ele>279</ele>
        <time>2014-07-20T10:59:17Z</time>
      </trkpt>
      <trkpt lat="44.50446" lon="1.7036">
        <ele>278</ele>
        <time>2014-07-20T10:59:18Z</time>
      </trkpt>
      <trkpt lat="44.50443" lon="1.70343">
        <ele>278</ele>
        <time>2014-07-20T10:59:21Z</time>
      </trkpt>
      <trkpt lat="44.50442" lon="1.7033">
        <ele>278</ele>
        <time>2014-07-20T10:59:23Z</time>
      </trkpt>
      <trkpt lat="44.50439" lon="1.70257">
        <ele>276</ele>
        <time>2014-07-20T10:59:31Z</time>
      </trkpt>
      <trkpt lat="44.50438" lon="1.70168">
        <ele>273</ele>
        <time>2014-07-20T10:59:39Z</time>
      </trkpt>
      <trkpt lat="44.50437" lon="1.7012">
        <ele>269</ele>
        <time>2014-07-20T10:59:43Z</time>
      </trkpt>
      <trkpt lat="44.50437" lon="1.70096">
        <ele>269</ele>
        <time>2014-07-20T10:59:45Z</time>
      </trkpt>
      <trkpt lat="44.50425" lon="1.69968">
        <ele>265</ele>
        <time>2014-07-20T10:59:57Z</time>
      </trkpt>
      <trkpt lat="44.50424" lon="1.69897">
        <ele>265</ele>
        <time>2014-07-20T11:00:07Z</time>
      </trkpt>
      <trkpt lat="44.50424" lon="1.69894">
        <ele>264</ele>
        <time>2014-07-20T11:00:08Z</time>
      </trkpt>
      <trkpt lat="44.50422" lon="1.69893">
        <ele>264</ele>
        <time>2014-07-20T11:00:09Z</time>
      </trkpt>
      <trkpt lat="44.5042" lon="1.69892">
        <ele>264</ele>
        <time>2014-07-20T11:00:10Z</time>
      </trkpt>
      <trkpt lat="44.50418" lon="1.69892">
        <ele>264</ele>
        <time>2014-07-20T11:00:11Z</time>
      </trkpt>
      <trkpt lat="44.50417" lon="1.69893">
        <ele>264</ele>
        <time>2014-07-20T11:00:12Z</time>
      </trkpt>
      <trkpt lat="44.50415" lon="1.69893">
        <ele>264</ele>
        <time>2014-07-20T11:00:13Z</time>
      </trkpt>
      <trkpt lat="44.50379" lon="1.69891">
        <ele>263</ele>
        <time>2014-07-20T11:00:24Z</time>
      </trkpt>
      <trkpt lat="44.50335" lon="1.69857">
        <ele>264</ele>
        <time>2014-07-20T11:00:40Z</time>
      </trkpt>
      <trkpt lat="44.50302" lon="1.69802">
        <ele>265</ele>
        <time>2014-07-20T11:00:55Z</time>
      </trkpt>
      <trkpt lat="44.50274" lon="1.69743">
        <ele>267</ele>
        <time>2014-07-20T11:01:10Z</time>
      </trkpt>
      <trkpt lat="44.5026" lon="1.69653">
        <ele>268</ele>
        <time>2014-07-20T11:01:29Z</time>
      </trkpt>
      <trkpt lat="44.50248" lon="1.69571">
        <ele>269</ele>
        <time>2014-07-20T11:01:45Z</time>
      </trkpt>
      <trkpt lat="44.50234" lon="1.69511">
        <ele>269</ele>
        <time>2014-07-20T11:01:57Z</time>
      </trkpt>
      <trkpt lat="44.50207" lon="1.69432">
        <ele>270</ele>
        <time>2014-07-20T11:02:13Z</time>
      </trkpt>
      <trkpt lat="44.50198" lon="1.69355">
        <ele>272</ele>
        <time>2014-07-20T11:02:31Z</time>
      </trkpt>
      <trkpt lat="44.50183" lon="1.69317">
        <ele>270</ele>
        <time>2014-07-20T11:02:42Z</time>
      </trkpt>
      <trkpt lat="44.5016" lon="1.69289">
        <ele>270</ele>
        <time>2014-07-20T11:02:52Z</time>
      </trkpt>
      <trkpt lat="44.50136" lon="1.69237">
        <ele>270</ele>
        <time>2014-07-20T11:03:03Z</time>
      </trkpt>
      <trkpt lat="44.50109" lon="1.69167">
        <ele>268</ele>
        <time>2014-07-20T11:03:15Z</time>
      </trkpt>
      <trkpt lat="44.50107" lon="1.69161">
        <ele>269</ele>
        <time>2014-07-20T11:03:16Z</time>
      </trkpt>
      <trkpt lat="44.50106" lon="1.69155">
        <ele>268</ele>
        <time>2014-07-20T11:03:17Z</time>
      </trkpt>
      <trkpt lat="44.50106" lon="1.69142">
        <ele>268</ele>
        <time>2014-07-20T11:03:19Z</time>
      </trkpt>
      <trkpt lat="44.50107" lon="1.69113">
        <ele>266</ele>
        <time>2014-07-20T11:03:23Z</time>
      </trkpt>
      <trkpt lat="44.50104" lon="1.69043">
        <ele>264</ele>
        <time>2014-07-20T11:03:30Z</time>
      </trkpt>
      <trkpt lat="44.50096" lon="1.69002">
        <ele>263</ele>
        <time>2014-07-20T11:03:34Z</time>
      </trkpt>
      <trkpt lat="44.50092" lon="1.68993">
        <ele>262</ele>
        <time>2014-07-20T11:03:35Z</time>
      </trkpt>
      <trkpt lat="44.50087" lon="1.68985">
        <ele>261</ele>
        <time>2014-07-20T11:03:36Z</time>
      </trkpt>
      <trkpt lat="44.50078" lon="1.68971">
        <ele>261</ele>
        <time>2014-07-20T11:03:38Z</time>
      </trkpt>
      <trkpt lat="44.50063" lon="1.68953">
        <ele>259</ele>
        <time>2014-07-20T11:03:41Z</time>
      </trkpt>
      <trkpt lat="44.50015" lon="1.68896">
        <ele>256</ele>
        <time>2014-07-20T11:03:49Z</time>
      </trkpt>
      <trkpt lat="44.49974" lon="1.68843">
        <ele>253</ele>
        <time>2014-07-20T11:03:56Z</time>
      </trkpt>
      <trkpt lat="44.49971" lon="1.68836">
        <ele>252</ele>
        <time>2014-07-20T11:03:58Z</time>
      </trkpt>
      <trkpt lat="44.49972" lon="1.68826">
        <ele>252</ele>
        <time>2014-07-20T11:04:01Z</time>
      </trkpt>
      <trkpt lat="44.49974" lon="1.68824">
        <ele>252</ele>
        <time>2014-07-20T11:04:02Z</time>
      </trkpt>
      <trkpt lat="44.49985" lon="1.68799">
        <ele>252</ele>
        <time>2014-07-20T11:04:16Z</time>
      </trkpt>
      <trkpt lat="44.50012" lon="1.68772">
        <ele>252</ele>
        <time>2014-07-20T11:04:26Z</time>
      </trkpt>
      <trkpt lat="44.50016" lon="1.68769">
        <ele>253</ele>
        <time>2014-07-20T11:04:27Z</time>
      </trkpt>
      <trkpt lat="44.50019" lon="1.68765">
        <ele>253</ele>
        <time>2014-07-20T11:04:28Z</time>
      </trkpt>
      <trkpt lat="44.50047" lon="1.68733">
        <ele>255</ele>
        <time>2014-07-20T11:04:40Z</time>
      </trkpt>
      <trkpt lat="44.50057" lon="1.68703">
        <ele>257</ele>
        <time>2014-07-20T11:04:52Z</time>
      </trkpt>
      <trkpt lat="44.50063" lon="1.68692">
        <ele>258</ele>
        <time>2014-07-20T11:04:59Z</time>
      </trkpt>
      <trkpt lat="44.50064" lon="1.68691">
        <ele>258</ele>
        <time>2014-07-20T11:05:00Z</time>
      </trkpt>
      <trkpt lat="44.50065" lon="1.6869">
        <ele>259</ele>
        <time>2014-07-20T11:05:01Z</time>
      </trkpt>
      <trkpt lat="44.50067" lon="1.68689">
        <ele>258</ele>
        <time>2014-07-20T11:05:02Z</time>
      </trkpt>
      <trkpt lat="44.50068" lon="1.68688">
        <ele>259</ele>
        <time>2014-07-20T11:05:03Z</time>
      </trkpt>
      <trkpt lat="44.50069" lon="1.68688">
        <ele>259</ele>
        <time>2014-07-20T11:05:04Z</time>
      </trkpt>
      <trkpt lat="44.5007" lon="1.68687">
        <ele>259</ele>
        <time>2014-07-20T11:05:05Z</time>
      </trkpt>
      <trkpt lat="44.50072" lon="1.68687">
        <ele>259</ele>
        <time>2014-07-20T11:05:06Z</time>
      </trkpt>
      <trkpt lat="44.50073" lon="1.68686">
        <ele>259</ele>
        <time>2014-07-20T11:05:07Z</time>
      </trkpt>
      <trkpt lat="44.50074" lon="1.68686">
        <ele>260</ele>
        <time>2014-07-20T11:05:08Z</time>
      </trkpt>
      <trkpt lat="44.50075" lon="1.68685">
        <ele>260</ele>
        <time>2014-07-20T11:05:09Z</time>
      </trkpt>
      <trkpt lat="44.50076" lon="1.68684">
        <ele>260</ele>
        <time>2014-07-20T11:05:10Z</time>
      </trkpt>
      <trkpt lat="44.50077" lon="1.68684">
        <ele>260</ele>
        <time>2014-07-20T11:05:11Z</time>
      </trkpt>
      <trkpt lat="44.50088" lon="1.68677">
        <ele>262</ele>
        <time>2014-07-20T11:05:19Z</time>
      </trkpt>
      <trkpt lat="44.50089" lon="1.68677">
        <ele>262</ele>
        <time>2014-07-20T11:05:20Z</time>
      </trkpt>
      <trkpt lat="44.5009" lon="1.68676">
        <ele>262</ele>
        <time>2014-07-20T11:05:21Z</time>
      </trkpt>
      <trkpt lat="44.50093" lon="1.68673">
        <ele>263</ele>
        <time>2014-07-20T11:05:24Z</time>
      </trkpt>
      <trkpt lat="44.50094" lon="1.68672">
        <ele>263</ele>
        <time>2014-07-20T11:05:25Z</time>
      </trkpt>
      <trkpt lat="44.50107" lon="1.68649">
        <ele>265</ele>
        <time>2014-07-20T11:05:41Z</time>
      </trkpt>
      <trkpt lat="44.50109" lon="1.68644">
        <ele>265</ele>
        <time>2014-07-20T11:05:44Z</time>
      </trkpt>
      <trkpt lat="44.5011" lon="1.68642">
        <ele>266</ele>
        <time>2014-07-20T11:05:45Z</time>
      </trkpt>
      <trkpt lat="44.5011" lon="1.6864">
        <ele>266</ele>
        <time>2014-07-20T11:05:46Z</time>
      </trkpt>
      <trkpt lat="44.50124" lon="1.68614">
        <ele>268</ele>
        <time>2014-07-20T11:06:02Z</time>
      </trkpt>
      <trkpt lat="44.50124" lon="1.68612">
        <ele>268</ele>
        <time>2014-07-20T11:06:03Z</time>
      </trkpt>
      <trkpt lat="44.50125" lon="1.6861">
        <ele>268</ele>
        <time>2014-07-20T11:06:04Z</time>
      </trkpt>
      <trkpt lat="44.50126" lon="1.68608">
        <ele>268</ele>
        <time>2014-07-20T11:06:05Z</time>
      </trkpt>
      <trkpt lat="44.50126" lon="1.68606">
        <ele>269</ele>
        <time>2014-07-20T11:06:06Z</time>
      </trkpt>
      <trkpt lat="44.50127" lon="1.68605">
        <ele>268</ele>
        <time>2014-07-20T11:06:07Z</time>
      </trkpt>
      <trkpt lat="44.50128" lon="1.68603">
        <ele>269</ele>
        <time>2014-07-20T11:06:08Z</time>
      </trkpt>
      <trkpt lat="44.50129" lon="1.68602">
        <ele>268</ele>
        <time>2014-07-20T11:06:09Z</time>
      </trkpt>
      <trkpt lat="44.50129" lon="1.686">
        <ele>268</ele>
        <time>2014-07-20T11:06:10Z</time>
      </trkpt>
      <trkpt lat="44.5013" lon="1.68599">
        <ele>269</ele>
        <time>2014-07-20T11:06:11Z</time>
      </trkpt>
      <trkpt lat="44.50131" lon="1.68597">
        <ele>269</ele>
        <time>2014-07-20T11:06:12Z</time>
      </trkpt>
      <trkpt lat="44.50136" lon="1.68588">
        <ele>270</ele>
        <time>2014-07-20T11:06:19Z</time>
      </trkpt>
      <trkpt lat="44.50137" lon="1.68587">
        <ele>271</ele>
        <time>2014-07-20T11:06:20Z</time>
      </trkpt>
      <trkpt lat="44.50153" lon="1.68564">
        <ele>273</ele>
        <time>2014-07-20T11:06:36Z</time>
      </trkpt>
      <trkpt lat="44.50168" lon="1.68548">
        <ele>276</ele>
        <time>2014-07-20T11:06:51Z</time>
      </trkpt>
      <trkpt lat="44.50181" lon="1.68529">
        <ele>278</ele>
        <time>2014-07-20T11:07:06Z</time>
      </trkpt>
      <trkpt lat="44.50182" lon="1.68526">
        <ele>278</ele>
        <time>2014-07-20T11:07:08Z</time>
      </trkpt>
      <trkpt lat="44.50182" lon="1.68524">
        <ele>279</ele>
        <time>2014-07-20T11:07:09Z</time>
      </trkpt>
      <trkpt lat="44.50182" lon="1.68521">
        <ele>279</ele>
        <time>2014-07-20T11:07:19Z</time>
      </trkpt>
      <trkpt lat="44.50182" lon="1.68518">
        <ele>278</ele>
        <time>2014-07-20T11:07:42Z</time>
      </trkpt>
      <trkpt lat="44.50183" lon="1.68518">
        <ele>279</ele>
        <time>2014-07-20T11:08:01Z</time>
      </trkpt>
      <trkpt lat="44.5018" lon="1.68521">
        <ele>279</ele>
        <time>2014-07-20T11:08:15Z</time>
      </trkpt>
      <trkpt lat="44.5018" lon="1.68522">
        <ele>279</ele>
        <time>2014-07-20T11:08:34Z</time>
      </trkpt>
      <trkpt lat="44.50182" lon="1.6852">
        <ele>279</ele>
        <time>2014-07-20T11:09:02Z</time>
      </trkpt>
      <trkpt lat="44.50182" lon="1.6852">
        <ele>280</ele>
        <time>2014-07-20T11:09:27Z</time>
      </trkpt>
      <trkpt lat="44.50183" lon="1.68519">
        <ele>279</ele>
        <time>2014-07-20T11:09:49Z</time>
      </trkpt>
      <trkpt lat="44.50181" lon="1.68522">
        <ele>279</ele>
        <time>2014-07-20T11:10:20Z</time>
      </trkpt>
      <trkpt lat="44.50181" lon="1.68521">
        <ele>279</ele>
        <time>2014-07-20T11:10:44Z</time>
      </trkpt>
      <trkpt lat="44.50183" lon="1.68526">
        <ele>279</ele>
        <time>2014-07-20T11:11:12Z</time>
      </trkpt>
      <trkpt lat="44.50185" lon="1.68515">
        <ele>280</ele>
        <time>2014-07-20T11:11:36Z</time>
      </trkpt>
      <trkpt lat="44.50186" lon="1.68514">
        <ele>280</ele>
        <time>2014-07-20T11:11:37Z</time>
      </trkpt>
      <trkpt lat="44.50188" lon="1.68514">
        <ele>280</ele>
        <time>2014-07-20T11:11:38Z</time>
      </trkpt>
      <trkpt lat="44.50189" lon="1.68513">
        <ele>281</ele>
        <time>2014-07-20T11:11:39Z</time>
      </trkpt>
      <trkpt lat="44.5019" lon="1.68512">
        <ele>281</ele>
        <time>2014-07-20T11:11:40Z</time>
      </trkpt>
      <trkpt lat="44.50191" lon="1.6851">
        <ele>281</ele>
        <time>2014-07-20T11:11:41Z</time>
      </trkpt>
      <trkpt lat="44.50192" lon="1.68509">
        <ele>282</ele>
        <time>2014-07-20T11:11:42Z</time>
      </trkpt>
      <trkpt lat="44.50192" lon="1.68507">
        <ele>281</ele>
        <time>2014-07-20T11:11:43Z</time>
      </trkpt>
      <trkpt lat="44.50206" lon="1.68496">
        <ele>285</ele>
        <time>2014-07-20T11:11:55Z</time>
      </trkpt>
      <trkpt lat="44.5021" lon="1.68492">
        <ele>286</ele>
        <time>2014-07-20T11:11:58Z</time>
      </trkpt>
      <trkpt lat="44.50211" lon="1.6849">
        <ele>286</ele>
        <time>2014-07-20T11:11:59Z</time>
      </trkpt>
      <trkpt lat="44.50212" lon="1.68489">
        <ele>286</ele>
        <time>2014-07-20T11:12:00Z</time>
      </trkpt>
      <trkpt lat="44.50213" lon="1.68488">
        <ele>286</ele>
        <time>2014-07-20T11:12:01Z</time>
      </trkpt>
      <trkpt lat="44.50214" lon="1.68488">
        <ele>287</ele>
        <time>2014-07-20T11:12:02Z</time>
      </trkpt>
      <trkpt lat="44.50215" lon="1.68486">
        <ele>287</ele>
        <time>2014-07-20T11:12:04Z</time>
      </trkpt>
      <trkpt lat="44.50221" lon="1.68488">
        <ele>288</ele>
        <time>2014-07-20T11:12:13Z</time>
      </trkpt>
      <trkpt lat="44.50221" lon="1.68488">
        <ele>288</ele>
        <time>2014-07-20T11:12:14Z</time>
      </trkpt>
      <trkpt lat="44.50229" lon="1.68486">
        <ele>289</ele>
        <time>2014-07-20T11:12:26Z</time>
      </trkpt>
      <trkpt lat="44.50234" lon="1.68484">
        <ele>290</ele>
        <time>2014-07-20T11:12:40Z</time>
      </trkpt>
      <trkpt lat="44.50246" lon="1.68487">
        <ele>292</ele>
        <time>2014-07-20T11:12:55Z</time>
      </trkpt>
      <trkpt lat="44.5025" lon="1.68485">
        <ele>293</ele>
        <time>2014-07-20T11:13:00Z</time>
      </trkpt>
      <trkpt lat="44.50252" lon="1.68484">
        <ele>293</ele>
        <time>2014-07-20T11:13:02Z</time>
      </trkpt>
      <trkpt lat="44.50258" lon="1.68484">
        <ele>295</ele>
        <time>2014-07-20T11:13:16Z</time>
      </trkpt>
      <trkpt lat="44.50265" lon="1.68484">
        <ele>296</ele>
        <time>2014-07-20T11:13:30Z</time>
      </trkpt>
      <trkpt lat="44.50272" lon="1.68482">
        <ele>297</ele>
        <time>2014-07-20T11:13:44Z</time>
      </trkpt>
      <trkpt lat="44.50279" lon="1.68481">
        <ele>298</ele>
        <time>2014-07-20T11:13:51Z</time>
      </trkpt>
      <trkpt lat="44.50289" lon="1.6848">
        <ele>300</ele>
        <time>2014-07-20T11:14:05Z</time>
      </trkpt>
      <trkpt lat="44.50299" lon="1.68479">
        <ele>302</ele>
        <time>2014-07-20T11:14:20Z</time>
      </trkpt>
      <trkpt lat="44.50303" lon="1.68479">
        <ele>303</ele>
        <time>2014-07-20T11:14:24Z</time>
      </trkpt>
      <trkpt lat="44.50318" lon="1.68479">
        <ele>305</ele>
        <time>2014-07-20T11:14:39Z</time>
      </trkpt>
      <trkpt lat="44.50335" lon="1.68478">
        <ele>307</ele>
        <time>2014-07-20T11:14:56Z</time>
      </trkpt>
      <trkpt lat="44.50345" lon="1.68476">
        <ele>307</ele>
        <time>2014-07-20T11:15:09Z</time>
      </trkpt>
      <trkpt lat="44.50366" lon="1.68467">
        <ele>310</ele>
        <time>2014-07-20T11:15:21Z</time>
      </trkpt>
      <trkpt lat="44.50391" lon="1.68458">
        <ele>310</ele>
        <time>2014-07-20T11:15:34Z</time>
      </trkpt>
      <trkpt lat="44.5042" lon="1.68446">
        <ele>311</ele>
        <time>2014-07-20T11:15:49Z</time>
      </trkpt>
      <trkpt lat="44.50455" lon="1.68432">
        <ele>311</ele>
        <time>2014-07-20T11:16:05Z</time>
      </trkpt>
      <trkpt lat="44.50493" lon="1.68413">
        <ele>311</ele>
        <time>2014-07-20T11:16:21Z</time>
      </trkpt>
      <trkpt lat="44.50526" lon="1.68393">
        <ele>308</ele>
        <time>2014-07-20T11:16:33Z</time>
      </trkpt>
      <trkpt lat="44.50555" lon="1.68375">
        <ele>305</ele>
        <time>2014-07-20T11:16:46Z</time>
      </trkpt>
      <trkpt lat="44.50595" lon="1.68368">
        <ele>303</ele>
        <time>2014-07-20T11:16:59Z</time>
      </trkpt>
      <trkpt lat="44.50617" lon="1.68367">
        <ele>302</ele>
        <time>2014-07-20T11:17:04Z</time>
      </trkpt>
      <trkpt lat="44.50634" lon="1.68366">
        <ele>301</ele>
        <time>2014-07-20T11:17:07Z</time>
      </trkpt>
      <trkpt lat="44.50646" lon="1.68366">
        <ele>300</ele>
        <time>2014-07-20T11:17:09Z</time>
      </trkpt>
      <trkpt lat="44.50691" lon="1.68366">
        <ele>296</ele>
        <time>2014-07-20T11:17:16Z</time>
      </trkpt>
      <trkpt lat="44.50698" lon="1.68365">
        <ele>296</ele>
        <time>2014-07-20T11:17:17Z</time>
      </trkpt>
      <trkpt lat="44.50728" lon="1.68357">
        <ele>294</ele>
        <time>2014-07-20T11:17:22Z</time>
      </trkpt>
      <trkpt lat="44.50742" lon="1.68353">
        <ele>292</ele>
        <time>2014-07-20T11:17:25Z</time>
      </trkpt>
      <trkpt lat="44.50753" lon="1.6835">
        <ele>291</ele>
        <time>2014-07-20T11:17:28Z</time>
      </trkpt>
      <trkpt lat="44.50779" lon="1.68341">
        <ele>290</ele>
        <time>2014-07-20T11:17:40Z</time>
      </trkpt>
      <trkpt lat="44.50785" lon="1.68336">
        <ele>290</ele>
        <time>2014-07-20T11:17:44Z</time>
      </trkpt>
      <trkpt lat="44.50786" lon="1.68335">
        <ele>289</ele>
        <time>2014-07-20T11:17:45Z</time>
      </trkpt>
      <trkpt lat="44.50788" lon="1.68333">
        <ele>289</ele>
        <time>2014-07-20T11:17:46Z</time>
      </trkpt>
      <trkpt lat="44.5079" lon="1.68332">
        <ele>289</ele>
        <time>2014-07-20T11:17:47Z</time>
      </trkpt>
      <trkpt lat="44.50791" lon="1.6833">
        <ele>289</ele>
        <time>2014-07-20T11:17:48Z</time>
      </trkpt>
      <trkpt lat="44.50793" lon="1.68328">
        <ele>289</ele>
        <time>2014-07-20T11:17:49Z</time>
      </trkpt>
      <trkpt lat="44.50796" lon="1.68326">
        <ele>289</ele>
        <time>2014-07-20T11:17:50Z</time>
      </trkpt>
      <trkpt lat="44.50821" lon="1.68302">
        <ele>289</ele>
        <time>2014-07-20T11:18:03Z</time>
      </trkpt>
      <trkpt lat="44.50852" lon="1.68272">
        <ele>292</ele>
        <time>2014-07-20T11:18:16Z</time>
      </trkpt>
      <trkpt lat="44.50879" lon="1.68232">
        <ele>294</ele>
        <time>2014-07-20T11:18:30Z</time>
      </trkpt>
      <trkpt lat="44.50904" lon="1.68199">
        <ele>296</ele>
        <time>2014-07-20T11:18:43Z</time>
      </trkpt>
      <trkpt lat="44.50929" lon="1.68182">
        <ele>297</ele>
        <time>2014-07-20T11:18:54Z</time>
      </trkpt>
      <trkpt lat="44.50944" lon="1.6813">
        <ele>297</ele>
        <time>2014-07-20T11:19:08Z</time>
      </trkpt>
      <trkpt lat="44.5096" lon="1.68076">
        <ele>296</ele>
        <time>2014-07-20T11:19:22Z</time>
      </trkpt>
      <trkpt lat="44.50976" lon="1.67999">
        <ele>295</ele>
        <time>2014-07-20T11:19:37Z</time>
      </trkpt>
      <trkpt lat="44.51" lon="1.67909">
        <ele>293</ele>
        <time>2014-07-20T11:19:53Z</time>
      </trkpt>
      <trkpt lat="44.51027" lon="1.67883">
        <ele>293</ele>
        <time>2014-07-20T11:20:04Z</time>
      </trkpt>
      <trkpt lat="44.51029" lon="1.67884">
        <ele>293</ele>
        <time>2014-07-20T11:20:05Z</time>
      </trkpt>
      <trkpt lat="44.5103" lon="1.67885">
        <ele>293</ele>
        <time>2014-07-20T11:20:06Z</time>
      </trkpt>
      <trkpt lat="44.51032" lon="1.67886">
        <ele>293</ele>
        <time>2014-07-20T11:20:07Z</time>
      </trkpt>
      <trkpt lat="44.51033" lon="1.67887">
        <ele>294</ele>
        <time>2014-07-20T11:20:08Z</time>
      </trkpt>
      <trkpt lat="44.51035" lon="1.67887">
        <ele>293</ele>
        <time>2014-07-20T11:20:09Z</time>
      </trkpt>
      <trkpt lat="44.51037" lon="1.67887">
        <ele>294</ele>
        <time>2014-07-20T11:20:10Z</time>
      </trkpt>
      <trkpt lat="44.51039" lon="1.67886">
        <ele>294</ele>
        <time>2014-07-20T11:20:11Z</time>
      </trkpt>
      <trkpt lat="44.51073" lon="1.67901">
        <ele>297</ele>
        <time>2014-07-20T11:20:22Z</time>
      </trkpt>
      <trkpt lat="44.51115" lon="1.67923">
        <ele>300</ele>
        <time>2014-07-20T11:20:35Z</time>
      </trkpt>
      <trkpt lat="44.51153" lon="1.67945">
        <ele>300</ele>
        <time>2014-07-20T11:20:51Z</time>
      </trkpt>
      <trkpt lat="44.51164" lon="1.67955">
        <ele>298</ele>
        <time>2014-07-20T11:21:01Z</time>
      </trkpt>
      <trkpt lat="44.51163" lon="1.67956">
        <ele>298</ele>
        <time>2014-07-20T11:21:25Z</time>
      </trkpt>
      <trkpt lat="44.51165" lon="1.67954">
        <ele>299</ele>
        <time>2014-07-20T11:21:46Z</time>
      </trkpt>
      <trkpt lat="44.51166" lon="1.67955">
        <ele>299</ele>
        <time>2014-07-20T11:22:24Z</time>
      </trkpt>
      <trkpt lat="44.51166" lon="1.67955">
        <ele>299</ele>
        <time>2014-07-20T11:22:56Z</time>
      </trkpt>
      <trkpt lat="44.51166" lon="1.67957">
        <ele>299</ele>
        <time>2014-07-20T11:23:18Z</time>
      </trkpt>
      <trkpt lat="44.51182" lon="1.67961">
        <ele>298</ele>
        <time>2014-07-20T11:23:30Z</time>
      </trkpt>
      <trkpt lat="44.51187" lon="1.67967">
        <ele>296</ele>
        <time>2014-07-20T11:23:42Z</time>
      </trkpt>
      <trkpt lat="44.51188" lon="1.67966">
        <ele>296</ele>
        <time>2014-07-20T11:23:45Z</time>
      </trkpt>
      <trkpt lat="44.51189" lon="1.67967">
        <ele>296</ele>
        <time>2014-07-20T11:23:46Z</time>
      </trkpt>
      <trkpt lat="44.51194" lon="1.67977">
        <ele>295</ele>
        <time>2014-07-20T11:23:53Z</time>
      </trkpt>
      <trkpt lat="44.51195" lon="1.67977">
        <ele>295</ele>
        <time>2014-07-20T11:23:54Z</time>
      </trkpt>
      <trkpt lat="44.51199" lon="1.67975">
        <ele>294</ele>
        <time>2014-07-20T11:24:02Z</time>
      </trkpt>
      <trkpt lat="44.51199" lon="1.67976">
        <ele>294</ele>
        <time>2014-07-20T11:24:20Z</time>
      </trkpt>
      <trkpt lat="44.51199" lon="1.67974">
        <ele>294</ele>
        <time>2014-07-20T11:24:50Z</time>
      </trkpt>
      <trkpt lat="44.51199" lon="1.67974">
        <ele>294</ele>
        <time>2014-07-20T11:25:17Z</time>
      </trkpt>
      <trkpt lat="44.51199" lon="1.67974">
        <ele>294</ele>
        <time>2014-07-20T11:25:19Z</time>
      </trkpt>
      <trkpt lat="44.512" lon="1.67974">
        <ele>294</ele>
        <time>2014-07-20T11:25:31Z</time>
      </trkpt>
      <trkpt lat="44.51199" lon="1.67975">
        <ele>294</ele>
        <time>2014-07-20T11:25:52Z</time>
      </trkpt>
      <trkpt lat="44.51198" lon="1.67977">
        <ele>294</ele>
        <time>2014-07-20T11:26:26Z</time>
      </trkpt>
      <trkpt lat="44.51199" lon="1.67977">
        <ele>294</ele>
        <time>2014-07-20T11:26:56Z</time>
      </trkpt>
      <trkpt lat="44.51198" lon="1.67977">
        <ele>294</ele>
        <time>2014-07-20T11:27:11Z</time>
      </trkpt>
      <trkpt lat="44.512" lon="1.67977">
        <ele>294</ele>
        <time>2014-07-20T11:27:25Z</time>
      </trkpt>
      <trkpt lat="44.51199" lon="1.67979">
        <ele>294</ele>
        <time>2014-07-20T11:27:38Z</time>
      </trkpt>
      <trkpt lat="44.512" lon="1.67981">
        <ele>293</ele>
        <time>2014-07-20T11:27:39Z</time>
      </trkpt>
      <trkpt lat="44.51201" lon="1.67983">
        <ele>294</ele>
        <time>2014-07-20T11:27:40Z</time>
      </trkpt>
      <trkpt lat="44.51202" lon="1.67986">
        <ele>293</ele>
        <time>2014-07-20T11:27:41Z</time>
      </trkpt>
      <trkpt lat="44.51204" lon="1.67987">
        <ele>293</ele>
        <time>2014-07-20T11:27:42Z</time>
      </trkpt>
      <trkpt lat="44.51205" lon="1.67989">
        <ele>292</ele>
        <time>2014-07-20T11:27:43Z</time>
      </trkpt>
      <trkpt lat="44.51207" lon="1.67991">
        <ele>292</ele>
        <time>2014-07-20T11:27:44Z</time>
      </trkpt>
      <trkpt lat="44.5121" lon="1.67994">
        <ele>292</ele>
        <time>2014-07-20T11:27:45Z</time>
      </trkpt>
      <trkpt lat="44.51213" lon="1.67998">
        <ele>291</ele>
        <time>2014-07-20T11:27:46Z</time>
      </trkpt>
      <trkpt lat="44.51215" lon="1.68002">
        <ele>290</ele>
        <time>2014-07-20T11:27:47Z</time>
      </trkpt>
      <trkpt lat="44.51225" lon="1.68016">
        <ele>289</ele>
        <time>2014-07-20T11:27:50Z</time>
      </trkpt>
      <trkpt lat="44.51243" lon="1.68046">
        <ele>286</ele>
        <time>2014-07-20T11:27:55Z</time>
      </trkpt>
      <trkpt lat="44.51248" lon="1.68054">
        <ele>286</ele>
        <time>2014-07-20T11:27:56Z</time>
      </trkpt>
      <trkpt lat="44.51254" lon="1.68061">
        <ele>285</ele>
        <time>2014-07-20T11:27:57Z</time>
      </trkpt>
      <trkpt lat="44.51262" lon="1.68065">
        <ele>284</ele>
        <time>2014-07-20T11:27:58Z</time>
      </trkpt>
      <trkpt lat="44.5127" lon="1.68068">
        <ele>283</ele>
        <time>2014-07-20T11:27:59Z</time>
      </trkpt>
      <trkpt lat="44.51279" lon="1.6807">
        <ele>284</ele>
        <time>2014-07-20T11:28:00Z</time>
      </trkpt>
      <trkpt lat="44.51318" lon="1.68088">
        <ele>280</ele>
        <time>2014-07-20T11:28:05Z</time>
      </trkpt>
      <trkpt lat="44.51355" lon="1.68115">
        <ele>277</ele>
        <time>2014-07-20T11:28:15Z</time>
      </trkpt>
      <trkpt lat="44.5137" lon="1.68131">
        <ele>274</ele>
        <time>2014-07-20T11:28:21Z</time>
      </trkpt>
      <trkpt lat="44.51388" lon="1.68155">
        <ele>272</ele>
        <time>2014-07-20T11:28:28Z</time>
      </trkpt>
      <trkpt lat="44.51409" lon="1.68193">
        <ele>269</ele>
        <time>2014-07-20T11:28:33Z</time>
      </trkpt>
      <trkpt lat="44.51412" lon="1.68204">
        <ele>267</ele>
        <time>2014-07-20T11:28:34Z</time>
      </trkpt>
      <trkpt lat="44.51416" lon="1.68221">
        <ele>265</ele>
        <time>2014-07-20T11:28:36Z</time>
      </trkpt>
      <trkpt lat="44.51417" lon="1.68227">
        <ele>263</ele>
        <time>2014-07-20T11:28:37Z</time>
      </trkpt>
      <trkpt lat="44.51417" lon="1.68232">
        <ele>263</ele>
        <time>2014-07-20T11:28:38Z</time>
      </trkpt>
      <trkpt lat="44.51417" lon="1.68237">
        <ele>262</ele>
        <time>2014-07-20T11:28:39Z</time>
      </trkpt>
      <trkpt lat="44.51418" lon="1.6824">
        <ele>262</ele>
        <time>2014-07-20T11:28:40Z</time>
      </trkpt>
      <trkpt lat="44.51418" lon="1.68241">
        <ele>261</ele>
        <time>2014-07-20T11:28:41Z</time>
      </trkpt>
      <trkpt lat="44.5142" lon="1.68241">
        <ele>261</ele>
        <time>2014-07-20T11:28:42Z</time>
      </trkpt>
      <trkpt lat="44.51421" lon="1.6824">
        <ele>261</ele>
        <time>2014-07-20T11:28:43Z</time>
      </trkpt>
      <trkpt lat="44.51423" lon="1.68238">
        <ele>261</ele>
        <time>2014-07-20T11:28:44Z</time>
      </trkpt>
      <trkpt lat="44.51426" lon="1.68235">
        <ele>261</ele>
        <time>2014-07-20T11:28:45Z</time>
      </trkpt>
      <trkpt lat="44.51429" lon="1.68231">
        <ele>261</ele>
        <time>2014-07-20T11:28:46Z</time>
      </trkpt>
      <trkpt lat="44.51433" lon="1.68228">
        <ele>260</ele>
        <time>2014-07-20T11:28:47Z</time>
      </trkpt>
      <trkpt lat="44.51459" lon="1.68201">
        <ele>259</ele>
        <time>2014-07-20T11:28:52Z</time>
      </trkpt>
      <trkpt lat="44.51463" lon="1.68193">
        <ele>258</ele>
        <time>2014-07-20T11:28:53Z</time>
      </trkpt>
      <trkpt lat="44.51468" lon="1.68184">
        <ele>258</ele>
        <time>2014-07-20T11:28:54Z</time>
      </trkpt>
      <trkpt lat="44.51471" lon="1.68174">
        <ele>257</ele>
        <time>2014-07-20T11:28:55Z</time>
      </trkpt>
      <trkpt lat="44.51474" lon="1.68163">
        <ele>256</ele>
        <time>2014-07-20T11:28:56Z</time>
      </trkpt>
      <trkpt lat="44.51475" lon="1.68153">
        <ele>256</ele>
        <time>2014-07-20T11:28:57Z</time>
      </trkpt>
      <trkpt lat="44.51476" lon="1.68144">
        <ele>254</ele>
        <time>2014-07-20T11:28:58Z</time>
      </trkpt>
      <trkpt lat="44.51476" lon="1.68139">
        <ele>254</ele>
        <time>2014-07-20T11:28:59Z</time>
      </trkpt>
      <trkpt lat="44.51477" lon="1.68135">
        <ele>252</ele>
        <time>2014-07-20T11:29:00Z</time>
      </trkpt>
      <trkpt lat="44.51479" lon="1.68133">
        <ele>253</ele>
        <time>2014-07-20T11:29:01Z</time>
      </trkpt>
      <trkpt lat="44.51482" lon="1.68132">
        <ele>252</ele>
        <time>2014-07-20T11:29:02Z</time>
      </trkpt>
      <trkpt lat="44.51488" lon="1.68134">
        <ele>251</ele>
        <time>2014-07-20T11:29:03Z</time>
      </trkpt>
      <trkpt lat="44.51492" lon="1.68138">
        <ele>250</ele>
        <time>2014-07-20T11:29:04Z</time>
      </trkpt>
      <trkpt lat="44.51496" lon="1.68144">
        <ele>250</ele>
        <time>2014-07-20T11:29:05Z</time>
      </trkpt>
      <trkpt lat="44.515" lon="1.6815">
        <ele>249</ele>
        <time>2014-07-20T11:29:06Z</time>
      </trkpt>
      <trkpt lat="44.51513" lon="1.68171">
        <ele>247</ele>
        <time>2014-07-20T11:29:09Z</time>
      </trkpt>
      <trkpt lat="44.51516" lon="1.68181">
        <ele>247</ele>
        <time>2014-07-20T11:29:10Z</time>
      </trkpt>
      <trkpt lat="44.51523" lon="1.68202">
        <ele>245</ele>
        <time>2014-07-20T11:29:12Z</time>
      </trkpt>
      <trkpt lat="44.5153" lon="1.68238">
        <ele>243</ele>
        <time>2014-07-20T11:29:15Z</time>
      </trkpt>
      <trkpt lat="44.51531" lon="1.68252">
        <ele>242</ele>
        <time>2014-07-20T11:29:16Z</time>
      </trkpt>
      <trkpt lat="44.51542" lon="1.68254">
        <ele>239</ele>
        <time>2014-07-20T11:32:24Z</time>
      </trkpt>
      <trkpt lat="44.51545" lon="1.68252">
        <ele>238</ele>
        <time>2014-07-20T11:32:25Z</time>
      </trkpt>
      <trkpt lat="44.51548" lon="1.68249">
        <ele>238</ele>
        <time>2014-07-20T11:32:26Z</time>
      </trkpt>
      <trkpt lat="44.5155" lon="1.68244">
        <ele>238</ele>
        <time>2014-07-20T11:32:27Z</time>
      </trkpt>
      <trkpt lat="44.51551" lon="1.68239">
        <ele>238</ele>
        <time>2014-07-20T11:32:28Z</time>
      </trkpt>
      <trkpt lat="44.51554" lon="1.68182">
        <ele>237</ele>
        <time>2014-07-20T11:32:39Z</time>
      </trkpt>
      <trkpt lat="44.51556" lon="1.68134">
        <ele>233</ele>
        <time>2014-07-20T11:32:49Z</time>
      </trkpt>
      <trkpt lat="44.51557" lon="1.68127">
        <ele>233</ele>
        <time>2014-07-20T11:32:50Z</time>
      </trkpt>
      <trkpt lat="44.51556" lon="1.68109">
        <ele>231</ele>
        <time>2014-07-20T11:32:53Z</time>
      </trkpt>
      <trkpt lat="44.51557" lon="1.68094">
        <ele>229</ele>
        <time>2014-07-20T11:32:56Z</time>
      </trkpt>
      <trkpt lat="44.51556" lon="1.68087">
        <ele>227</ele>
        <time>2014-07-20T11:32:57Z</time>
      </trkpt>
      <trkpt lat="44.51555" lon="1.6808">
        <ele>227</ele>
        <time>2014-07-20T11:32:58Z</time>
      </trkpt>
      <trkpt lat="44.51553" lon="1.68073">
        <ele>226</ele>
        <time>2014-07-20T11:32:59Z</time>
      </trkpt>
      <trkpt lat="44.5155" lon="1.68067">
        <ele>225</ele>
        <time>2014-07-20T11:33:00Z</time>
      </trkpt>
      <trkpt lat="44.51546" lon="1.68062">
        <ele>224</ele>
        <time>2014-07-20T11:33:01Z</time>
      </trkpt>
      <trkpt lat="44.51543" lon="1.68057">
        <ele>224</ele>
        <time>2014-07-20T11:33:02Z</time>
      </trkpt>
      <trkpt lat="44.51541" lon="1.68053">
        <ele>224</ele>
        <time>2014-07-20T11:33:03Z</time>
      </trkpt>
      <trkpt lat="44.5154" lon="1.68049">
        <ele>223</ele>
        <time>2014-07-20T11:33:04Z</time>
      </trkpt>
      <trkpt lat="44.51539" lon="1.68046">
        <ele>223</ele>
        <time>2014-07-20T11:33:05Z</time>
      </trkpt>
      <trkpt lat="44.5154" lon="1.68044">
        <ele>223</ele>
        <time>2014-07-20T11:33:06Z</time>
      </trkpt>
      <trkpt lat="44.51541" lon="1.68044">
        <ele>223</ele>
        <time>2014-07-20T11:33:07Z</time>
      </trkpt>
      <trkpt lat="44.51543" lon="1.68045">
        <ele>223</ele>
        <time>2014-07-20T11:33:08Z</time>
      </trkpt>
      <trkpt lat="44.51545" lon="1.68047">
        <ele>222</ele>
        <time>2014-07-20T11:33:09Z</time>
      </trkpt>
      <trkpt lat="44.51548" lon="1.6805">
        <ele>222</ele>
        <time>2014-07-20T11:33:10Z</time>
      </trkpt>
      <trkpt lat="44.51552" lon="1.68055">
        <ele>221</ele>
        <time>2014-07-20T11:33:11Z</time>
      </trkpt>
      <trkpt lat="44.51557" lon="1.68059">
        <ele>221</ele>
        <time>2014-07-20T11:33:12Z</time>
      </trkpt>
      <trkpt lat="44.5156" lon="1.68064">
        <ele>220</ele>
        <time>2014-07-20T11:33:13Z</time>
      </trkpt>
      <trkpt lat="44.51561" lon="1.68067">
        <ele>219</ele>
        <time>2014-07-20T11:33:14Z</time>
      </trkpt>
      <trkpt lat="44.51563" lon="1.6807">
        <ele>218</ele>
        <time>2014-07-20T11:33:15Z</time>
      </trkpt>
      <trkpt lat="44.51565" lon="1.68071">
        <ele>217</ele>
        <time>2014-07-20T11:33:16Z</time>
      </trkpt>
      <trkpt lat="44.51567" lon="1.6807">
        <ele>217</ele>
        <time>2014-07-20T11:33:17Z</time>
      </trkpt>
      <trkpt lat="44.51569" lon="1.68068">
        <ele>216</ele>
        <time>2014-07-20T11:33:18Z</time>
      </trkpt>
      <trkpt lat="44.5157" lon="1.68065">
        <ele>216</ele>
        <time>2014-07-20T11:33:19Z</time>
      </trkpt>
      <trkpt lat="44.5157" lon="1.68061">
        <ele>215</ele>
        <time>2014-07-20T11:33:20Z</time>
      </trkpt>
      <trkpt lat="44.51569" lon="1.68055">
        <ele>215</ele>
        <time>2014-07-20T11:33:21Z</time>
      </trkpt>
      <trkpt lat="44.51566" lon="1.68048">
        <ele>215</ele>
        <time>2014-07-20T11:33:22Z</time>
      </trkpt>
      <trkpt lat="44.51563" lon="1.68042">
        <ele>214</ele>
        <time>2014-07-20T11:33:23Z</time>
      </trkpt>
      <trkpt lat="44.51559" lon="1.68037">
        <ele>214</ele>
        <time>2014-07-20T11:33:24Z</time>
      </trkpt>
      <trkpt lat="44.51556" lon="1.68024">
        <ele>211</ele>
        <time>2014-07-20T11:33:27Z</time>
      </trkpt>
      <trkpt lat="44.51558" lon="1.68021">
        <ele>210</ele>
        <time>2014-07-20T11:33:28Z</time>
      </trkpt>
      <trkpt lat="44.5156" lon="1.68019">
        <ele>209</ele>
        <time>2014-07-20T11:33:29Z</time>
      </trkpt>
      <trkpt lat="44.51563" lon="1.6802">
        <ele>209</ele>
        <time>2014-07-20T11:33:30Z</time>
      </trkpt>
      <trkpt lat="44.51565" lon="1.68022">
        <ele>209</ele>
        <time>2014-07-20T11:33:31Z</time>
      </trkpt>
      <trkpt lat="44.51566" lon="1.68025">
        <ele>207</ele>
        <time>2014-07-20T11:33:32Z</time>
      </trkpt>
      <trkpt lat="44.51568" lon="1.68029">
        <ele>207</ele>
        <time>2014-07-20T11:33:33Z</time>
      </trkpt>
      <trkpt lat="44.51569" lon="1.68033">
        <ele>206</ele>
        <time>2014-07-20T11:33:34Z</time>
      </trkpt>
      <trkpt lat="44.51571" lon="1.68038">
        <ele>204</ele>
        <time>2014-07-20T11:33:35Z</time>
      </trkpt>
      <trkpt lat="44.51573" lon="1.68042">
        <ele>204</ele>
        <time>2014-07-20T11:33:36Z</time>
      </trkpt>
      <trkpt lat="44.51581" lon="1.68057">
        <ele>201</ele>
        <time>2014-07-20T11:33:39Z</time>
      </trkpt>
      <trkpt lat="44.51584" lon="1.68062">
        <ele>200</ele>
        <time>2014-07-20T11:33:40Z</time>
      </trkpt>
      <trkpt lat="44.51595" lon="1.68077">
        <ele>197</ele>
        <time>2014-07-20T11:33:43Z</time>
      </trkpt>
      <trkpt lat="44.516" lon="1.68082">
        <ele>196</ele>
        <time>2014-07-20T11:33:44Z</time>
      </trkpt>
      <trkpt lat="44.51604" lon="1.68086">
        <ele>195</ele>
        <time>2014-07-20T11:33:45Z</time>
      </trkpt>
      <trkpt lat="44.51608" lon="1.68091">
        <ele>194</ele>
        <time>2014-07-20T11:33:46Z</time>
      </trkpt>
      <trkpt lat="44.51613" lon="1.68093">
        <ele>193</ele>
        <time>2014-07-20T11:33:47Z</time>
      </trkpt>
      <trkpt lat="44.51617" lon="1.68097">
        <ele>193</ele>
        <time>2014-07-20T11:33:48Z</time>
      </trkpt>
      <trkpt lat="44.51622" lon="1.681">
        <ele>191</ele>
        <time>2014-07-20T11:33:49Z</time>
      </trkpt>
      <trkpt lat="44.51628" lon="1.68103">
        <ele>190</ele>
        <time>2014-07-20T11:33:50Z</time>
      </trkpt>
      <trkpt lat="44.51656" lon="1.6811">
        <ele>186</ele>
        <time>2014-07-20T11:33:54Z</time>
      </trkpt>
      <trkpt lat="44.51664" lon="1.6811">
        <ele>185</ele>
        <time>2014-07-20T11:33:55Z</time>
      </trkpt>
      <trkpt lat="44.51679" lon="1.6811">
        <ele>182</ele>
        <time>2014-07-20T11:33:57Z</time>
      </trkpt>
      <trkpt lat="44.51685" lon="1.68108">
        <ele>180</ele>
        <time>2014-07-20T11:33:58Z</time>
      </trkpt>
      <trkpt lat="44.51692" lon="1.68105">
        <ele>180</ele>
        <time>2014-07-20T11:33:59Z</time>
      </trkpt>
      <trkpt lat="44.51699" lon="1.68104">
        <ele>179</ele>
        <time>2014-07-20T11:34:00Z</time>
      </trkpt>
      <trkpt lat="44.51706" lon="1.68103">
        <ele>177</ele>
        <time>2014-07-20T11:34:01Z</time>
      </trkpt>
      <trkpt lat="44.51712" lon="1.68104">
        <ele>175</ele>
        <time>2014-07-20T11:34:02Z</time>
      </trkpt>
      <trkpt lat="44.51718" lon="1.68105">
        <ele>174</ele>
        <time>2014-07-20T11:34:03Z</time>
      </trkpt>
      <trkpt lat="44.51724" lon="1.68107">
        <ele>172</ele>
        <time>2014-07-20T11:34:04Z</time>
      </trkpt>
      <trkpt lat="44.5173" lon="1.68111">
        <ele>171</ele>
        <time>2014-07-20T11:34:05Z</time>
      </trkpt>
      <trkpt lat="44.51734" lon="1.68114">
        <ele>170</ele>
        <time>2014-07-20T11:34:06Z</time>
      </trkpt>
      <trkpt lat="44.51737" lon="1.68115">
        <ele>168</ele>
        <time>2014-07-20T11:34:07Z</time>
      </trkpt>
      <trkpt lat="44.51739" lon="1.68114">
        <ele>168</ele>
        <time>2014-07-20T11:34:08Z</time>
      </trkpt>
      <trkpt lat="44.5174" lon="1.68111">
        <ele>168</ele>
        <time>2014-07-20T11:34:09Z</time>
      </trkpt>
      <trkpt lat="44.51742" lon="1.68108">
        <ele>167</ele>
        <time>2014-07-20T11:34:10Z</time>
      </trkpt>
      <trkpt lat="44.51743" lon="1.68103">
        <ele>166</ele>
        <time>2014-07-20T11:34:11Z</time>
      </trkpt>
      <trkpt lat="44.51748" lon="1.68094">
        <ele>164</ele>
        <time>2014-07-20T11:34:14Z</time>
      </trkpt>
      <trkpt lat="44.5175" lon="1.68095">
        <ele>164</ele>
        <time>2014-07-20T11:34:15Z</time>
      </trkpt>
      <trkpt lat="44.51753" lon="1.68098">
        <ele>163</ele>
        <time>2014-07-20T11:34:16Z</time>
      </trkpt>
      <trkpt lat="44.51756" lon="1.68101">
        <ele>162</ele>
        <time>2014-07-20T11:34:17Z</time>
      </trkpt>
      <trkpt lat="44.5176" lon="1.68103">
        <ele>161</ele>
        <time>2014-07-20T11:34:18Z</time>
      </trkpt>
      <trkpt lat="44.51763" lon="1.68105">
        <ele>161</ele>
        <time>2014-07-20T11:34:19Z</time>
      </trkpt>
      <trkpt lat="44.51766" lon="1.68104">
        <ele>160</ele>
        <time>2014-07-20T11:34:20Z</time>
      </trkpt>
      <trkpt lat="44.51769" lon="1.68103">
        <ele>160</ele>
        <time>2014-07-20T11:34:21Z</time>
      </trkpt>
      <trkpt lat="44.51773" lon="1.68101">
        <ele>159</ele>
        <time>2014-07-20T11:34:22Z</time>
      </trkpt>
      <trkpt lat="44.51776" lon="1.68098">
        <ele>158</ele>
        <time>2014-07-20T11:34:23Z</time>
      </trkpt>
      <trkpt lat="44.51779" lon="1.68096">
        <ele>158</ele>
        <time>2014-07-20T11:34:24Z</time>
      </trkpt>
      <trkpt lat="44.51783" lon="1.68095">
        <ele>157</ele>
        <time>2014-07-20T11:34:25Z</time>
      </trkpt>
      <trkpt lat="44.51789" lon="1.68091">
        <ele>156</ele>
        <time>2014-07-20T11:34:27Z</time>
      </trkpt>
      <trkpt lat="44.51792" lon="1.68089">
        <ele>155</ele>
        <time>2014-07-20T11:34:28Z</time>
      </trkpt>
      <trkpt lat="44.51795" lon="1.68087">
        <ele>154</ele>
        <time>2014-07-20T11:34:29Z</time>
      </trkpt>
      <trkpt lat="44.51796" lon="1.68085">
        <ele>154</ele>
        <time>2014-07-20T11:34:30Z</time>
      </trkpt>
      <trkpt lat="44.51796" lon="1.68084">
        <ele>154</ele>
        <time>2014-07-20T11:34:51Z</time>
      </trkpt>
      <trkpt lat="44.51796" lon="1.68085">
        <ele>154</ele>
        <time>2014-07-20T11:35:15Z</time>
      </trkpt>
      <trkpt lat="44.51797" lon="1.68083">
        <ele>154</ele>
        <time>2014-07-20T11:35:35Z</time>
      </trkpt>
      <trkpt lat="44.51796" lon="1.68085">
        <ele>154</ele>
        <time>2014-07-20T11:36:03Z</time>
      </trkpt>
      <trkpt lat="44.51795" lon="1.68082">
        <ele>154</ele>
        <time>2014-07-20T11:36:34Z</time>
      </trkpt>
      <trkpt lat="44.51795" lon="1.68085">
        <ele>154</ele>
        <time>2014-07-20T11:37:02Z</time>
      </trkpt>
      <trkpt lat="44.51796" lon="1.68085">
        <ele>154</ele>
        <time>2014-07-20T11:37:11Z</time>
      </trkpt>
      <trkpt lat="44.51797" lon="1.68085">
        <ele>154</ele>
        <time>2014-07-20T11:37:12Z</time>
      </trkpt>
      <trkpt lat="44.51798" lon="1.68084">
        <ele>153</ele>
        <time>2014-07-20T11:37:13Z</time>
      </trkpt>
      <trkpt lat="44.51801" lon="1.68083">
        <ele>153</ele>
        <time>2014-07-20T11:37:14Z</time>
      </trkpt>
      <trkpt lat="44.51804" lon="1.68081">
        <ele>153</ele>
        <time>2014-07-20T11:37:15Z</time>
      </trkpt>
      <trkpt lat="44.51807" lon="1.68078">
        <ele>153</ele>
        <time>2014-07-20T11:37:16Z</time>
      </trkpt>
      <trkpt lat="44.51811" lon="1.68074">
        <ele>153</ele>
        <time>2014-07-20T11:37:17Z</time>
      </trkpt>
      <trkpt lat="44.51813" lon="1.6807">
        <ele>152</ele>
        <time>2014-07-20T11:37:18Z</time>
      </trkpt>
      <trkpt lat="44.51815" lon="1.68066">
        <ele>152</ele>
        <time>2014-07-20T11:37:19Z</time>
      </trkpt>
      <trkpt lat="44.51817" lon="1.68063">
        <ele>152</ele>
        <time>2014-07-20T11:37:20Z</time>
      </trkpt>
      <trkpt lat="44.51819" lon="1.6806">
        <ele>151</ele>
        <time>2014-07-20T11:37:21Z</time>
      </trkpt>
      <trkpt lat="44.51821" lon="1.68057">
        <ele>152</ele>
        <time>2014-07-20T11:37:22Z</time>
      </trkpt>
      <trkpt lat="44.51823" lon="1.68055">
        <ele>151</ele>
        <time>2014-07-20T11:37:23Z</time>
      </trkpt>
      <trkpt lat="44.51825" lon="1.68053">
        <ele>151</ele>
        <time>2014-07-20T11:37:24Z</time>
      </trkpt>
      <trkpt lat="44.51828" lon="1.6805">
        <ele>151</ele>
        <time>2014-07-20T11:37:25Z</time>
      </trkpt>
      <trkpt lat="44.5183" lon="1.68047">
        <ele>151</ele>
        <time>2014-07-20T11:37:26Z</time>
      </trkpt>
      <trkpt lat="44.51839" lon="1.68037">
        <ele>150</ele>
        <time>2014-07-20T11:37:29Z</time>
      </trkpt>
      <trkpt lat="44.51852" lon="1.6802">
        <ele>149</ele>
        <time>2014-07-20T11:37:33Z</time>
      </trkpt>
      <trkpt lat="44.51863" lon="1.68008">
        <ele>148</ele>
        <time>2014-07-20T11:37:36Z</time>
      </trkpt>
      <trkpt lat="44.51918" lon="1.67963">
        <ele>146</ele>
        <time>2014-07-20T11:37:48Z</time>
      </trkpt>
      <trkpt lat="44.51939" lon="1.67951">
        <ele>145</ele>
        <time>2014-07-20T11:37:59Z</time>
      </trkpt>
      <trkpt lat="44.51941" lon="1.67949">
        <ele>145</ele>
        <time>2014-07-20T11:38:01Z</time>
      </trkpt>
      <trkpt lat="44.51942" lon="1.67947">
        <ele>145</ele>
        <time>2014-07-20T11:38:02Z</time>
      </trkpt>
      <trkpt lat="44.51943" lon="1.67945">
        <ele>145</ele>
        <time>2014-07-20T11:38:03Z</time>
      </trkpt>
      <trkpt lat="44.51944" lon="1.67944">
        <ele>145</ele>
        <time>2014-07-20T11:38:04Z</time>
      </trkpt>
      <trkpt lat="44.51949" lon="1.67935">
        <ele>144</ele>
        <time>2014-07-20T11:38:16Z</time>
      </trkpt>
      <trkpt lat="44.51953" lon="1.67934">
        <ele>143</ele>
        <time>2014-07-20T11:38:31Z</time>
      </trkpt>
      <trkpt lat="44.51952" lon="1.67932">
        <ele>143</ele>
        <time>2014-07-20T11:38:51Z</time>
      </trkpt>
      <trkpt lat="44.51954" lon="1.67931">
        <ele>143</ele>
        <time>2014-07-20T11:38:55Z</time>
      </trkpt>
      <trkpt lat="44.51956" lon="1.67929">
        <ele>144</ele>
        <time>2014-07-20T11:38:57Z</time>
      </trkpt>
      <trkpt lat="44.5196" lon="1.67925">
        <ele>144</ele>
        <time>2014-07-20T11:39:00Z</time>
      </trkpt>
      <trkpt lat="44.51964" lon="1.67914">
        <ele>145</ele>
        <time>2014-07-20T11:39:10Z</time>
      </trkpt>
      <trkpt lat="44.51975" lon="1.67901">
        <ele>144</ele>
        <time>2014-07-20T11:39:23Z</time>
      </trkpt>
      <trkpt lat="44.51982" lon="1.67891">
        <ele>145</ele>
        <time>2014-07-20T11:39:34Z</time>
      </trkpt>
      <trkpt lat="44.51987" lon="1.67884">
        <ele>146</ele>
        <time>2014-07-20T11:39:48Z</time>
      </trkpt>
      <trkpt lat="44.51993" lon="1.67892">
        <ele>147</ele>
        <time>2014-07-20T11:40:02Z</time>
      </trkpt>
      <trkpt lat="44.51999" lon="1.67898">
        <ele>147</ele>
        <time>2014-07-20T11:40:15Z</time>
      </trkpt>
      <trkpt lat="44.52003" lon="1.679">
        <ele>147</ele>
        <time>2014-07-20T11:40:32Z</time>
      </trkpt>
      <trkpt lat="44.52001" lon="1.67899">
        <ele>147</ele>
        <time>2014-07-20T11:40:56Z</time>
      </trkpt>
      <trkpt lat="44.52003" lon="1.67907">
        <ele>147</ele>
        <time>2014-07-20T11:41:12Z</time>
      </trkpt>
      <trkpt lat="44.52009" lon="1.67913">
        <ele>147</ele>
        <time>2014-07-20T11:41:25Z</time>
      </trkpt>
      <trkpt lat="44.52016" lon="1.6791">
        <ele>147</ele>
        <time>2014-07-20T11:41:43Z</time>
      </trkpt>
      <trkpt lat="44.52033" lon="1.67899">
        <ele>146</ele>
        <time>2014-07-20T11:41:52Z</time>
      </trkpt>
      <trkpt lat="44.52032" lon="1.679">
        <ele>147</ele>
        <time>2014-07-20T11:41:53Z</time>
      </trkpt>
      <trkpt lat="44.5203" lon="1.67901">
        <ele>146</ele>
        <time>2014-07-20T11:41:54Z</time>
      </trkpt>
      <trkpt lat="44.52029" lon="1.67901">
        <ele>146</ele>
        <time>2014-07-20T11:41:55Z</time>
      </trkpt>
      <trkpt lat="44.52027" lon="1.679">
        <ele>146</ele>
        <time>2014-07-20T11:41:56Z</time>
      </trkpt>
      <trkpt lat="44.52027" lon="1.67895">
        <ele>146</ele>
        <time>2014-07-20T11:41:58Z</time>
      </trkpt>
      <trkpt lat="44.52029" lon="1.67892">
        <ele>146</ele>
        <time>2014-07-20T11:41:59Z</time>
      </trkpt>
      <trkpt lat="44.52033" lon="1.67889">
        <ele>145</ele>
        <time>2014-07-20T11:42:00Z</time>
      </trkpt>
      <trkpt lat="44.52036" lon="1.67885">
        <ele>145</ele>
        <time>2014-07-20T11:42:01Z</time>
      </trkpt>
      <trkpt lat="44.52039" lon="1.67881">
        <ele>145</ele>
        <time>2014-07-20T11:42:02Z</time>
      </trkpt>
      <trkpt lat="44.52042" lon="1.67872">
        <ele>143</ele>
        <time>2014-07-20T11:42:05Z</time>
      </trkpt>
      <trkpt lat="44.5204" lon="1.6786">
        <ele>142</ele>
        <time>2014-07-20T11:42:15Z</time>
      </trkpt>
      <trkpt lat="44.52041" lon="1.67859">
        <ele>142</ele>
        <time>2014-07-20T11:42:28Z</time>
      </trkpt>
      <trkpt lat="44.5204" lon="1.6786">
        <ele>142</ele>
        <time>2014-07-20T11:42:47Z</time>
      </trkpt>
      <trkpt lat="44.52041" lon="1.6786">
        <ele>143</ele>
        <time>2014-07-20T11:43:04Z</time>
      </trkpt>
      <trkpt lat="44.52042" lon="1.67866">
        <ele>143</ele>
        <time>2014-07-20T11:43:17Z</time>
      </trkpt>
      <trkpt lat="44.52042" lon="1.67867">
        <ele>143</ele>
        <time>2014-07-20T11:43:18Z</time>
      </trkpt>
      <trkpt lat="44.52042" lon="1.67869">
        <ele>143</ele>
        <time>2014-07-20T11:43:19Z</time>
      </trkpt>
      <trkpt lat="44.52041" lon="1.6787">
        <ele>143</ele>
        <time>2014-07-20T11:43:20Z</time>
      </trkpt>
      <trkpt lat="44.52042" lon="1.67874">
        <ele>143</ele>
        <time>2014-07-20T11:43:22Z</time>
      </trkpt>
      <trkpt lat="44.52043" lon="1.67876">
        <ele>143</ele>
        <time>2014-07-20T11:43:23Z</time>
      </trkpt>
      <trkpt lat="44.52042" lon="1.67875">
        <ele>144</ele>
        <time>2014-07-20T11:43:29Z</time>
      </trkpt>
      <trkpt lat="44.52041" lon="1.67876">
        <ele>144</ele>
        <time>2014-07-20T11:43:30Z</time>
      </trkpt>
      <trkpt lat="44.52031" lon="1.67895">
        <ele>145</ele>
        <time>2014-07-20T11:43:46Z</time>
      </trkpt>
      <trkpt lat="44.52031" lon="1.67896">
        <ele>146</ele>
        <time>2014-07-20T11:43:47Z</time>
      </trkpt>
      <trkpt lat="44.52032" lon="1.67897">
        <ele>147</ele>
        <time>2014-07-20T11:43:56Z</time>
      </trkpt>
      <trkpt lat="44.52033" lon="1.67897">
        <ele>147</ele>
        <time>2014-07-20T11:43:57Z</time>
      </trkpt>
      <trkpt lat="44.52034" lon="1.67896">
        <ele>147</ele>
        <time>2014-07-20T11:43:58Z</time>
      </trkpt>
      <trkpt lat="44.52035" lon="1.67896">
        <ele>147</ele>
        <time>2014-07-20T11:43:59Z</time>
      </trkpt>
      <trkpt lat="44.52048" lon="1.67891">
        <ele>146</ele>
        <time>2014-07-20T11:44:13Z</time>
      </trkpt>
      <trkpt lat="44.52048" lon="1.67892">
        <ele>145</ele>
        <time>2014-07-20T11:44:26Z</time>
      </trkpt>
    </trkseg>
  </trk>
</gpx>